Time,TemperatureF,DewpointF,PressureIn,WindDirection,WindDirectionDegrees,WindSpeedMPH,WindSpeedGustMPH,Humidity,HourlyPrecipIn,Conditions,Clouds,dailyrainin,SoftwareType,DateUTC
2013-01-25 00:00:00,40.6,40.1,29.82,SSW,202,0.0,0.0,98,0.00,,---,0.00,VWS V14.01,2013-01-25 08:00:00,
2013-01-25 00:01:00,40.6,40.1,29.82,SSW,202,0.0,0.0,98,0.00,,---,0.00,VWS V14.01,2013-01-25 08:01:00,
2013-01-25 00:02:00,40.6,40.1,29.82,SSW,202,0.0,0.0,98,0.00,,---,0.00,VWS V14.01,2013-01-25 08:02:00,
2013-01-25 00:03:00,40.6,40.1,29.82,South,180,0.0,0.0,98,0.00,,---,0.00,VWS V14.01,2013-01-25 08:03:00,
2013-01-25 00:04:00,40.6,40.1,29.82,South,180,0.0,0.0,98,0.00,,---,0.00,VWS V14.01,2013-01-25 08:04:00,
2013-01-25 00:05:00,40.6,40.1,29.82,South,180,0.0,0.0,98,0.00,,---,0.00,VWS V14.01,2013-01-25 08:05:00,
2013-01-25 00:06:00,40.6,40.1,29.82,South,180,0.0,0.0,98,0.00,,---,0.00,VWS V14.01,2013-01-25 08:06:00,
2013-01-25 00:07:00,40.6,40.1,29.82,South,180,0.0,0.0,98,0.00,,---,0.00,VWS V14.01,2013-01-25 08:07:00,
2013-01-25 00:08:00,40.6,40.1,29.82,South,180,0.0,0.0,98,0.00,,---,0.00,VWS V14.01,2013-01-25 08:08:00,
2013-01-25 00:09:00,40.6,40.1,29.82,South,180,0.0,0.0,98,0.00,,---,0.00,VWS V14.01,2013-01-25 08:09:00,
2013-01-25 00:10:00,40.6,40.1,29.82,SSE,158,0.0,0.0,98,0.00,,---,0.00,VWS V14.01,2013-01-25 08:10:00,
2013-01-25 00:11:00,40.6,40.1,29.82,South,180,0.0,0.0,98,0.00,,---,0.00,VWS V14.01,2013-01-25 08:11:00,
2013-01-25 00:12:00,40.6,40.1,29.82,SSW,202,0.0,0.0,98,0.00,,---,0.00,VWS V14.01,2013-01-25 08:12:00,
2013-01-25 00:13:00,40.6,40.1,29.82,SSW,202,0.0,0.0,98,0.00,,---,0.00,VWS V14.01,2013-01-25 08:13:00,
2013-01-25 00:14:00,40.6,40.1,29.82,SSW,202,0.0,0.0,98,0.00,,---,0.00,VWS V14.01,2013-01-25 08:14:00,
2013-01-25 00:15:00,40.6,40.1,29.82,SSW,202,0.0,0.0,98,0.00,,---,0.00,VWS V14.01,2013-01-25 08:15:00,
2013-01-25 00:16:00,40.6,40.1,29.82,SSW,202,0.0,0.0,98,0.00,,---,0.00,VWS V14.01,2013-01-25 08:16:00,
2013-01-25 00:17:00,40.6,40.1,29.82,SSW,202,0.0,0.0,98,0.04,,---,0.04,VWS V14.01,2013-01-25 08:17:00,
2013-01-25 00:18:00,40.6,40.1,29.82,SSW,202,0.0,0.0,98,0.04,,---,0.04,VWS V14.01,2013-01-25 08:18:00,
2013-01-25 00:19:00,40.6,40.1,29.82,SSW,202,0.0,0.0,98,0.04,,---,0.04,VWS V14.01,2013-01-25 08:19:00,
2013-01-25 00:20:00,40.8,40.3,29.82,SSW,202,0.0,0.9,98,0.04,,---,0.04,VWS V14.01,2013-01-25 08:20:00,
2013-01-25 00:21:00,40.8,40.3,29.82,SSW,202,0.0,0.0,98,0.04,,---,0.04,VWS V14.01,2013-01-25 08:21:00,
2013-01-25 00:22:00,40.8,40.3,29.82,SSW,202,0.0,0.0,98,0.04,,---,0.04,VWS V14.01,2013-01-25 08:22:00,
2013-01-25 00:23:00,40.8,40.3,29.82,SSW,202,0.0,0.0,98,0.04,,---,0.04,VWS V14.01,2013-01-25 08:23:00,
2013-01-25 00:24:00,40.8,40.3,29.82,SSW,202,0.0,0.0,98,0.04,,---,0.04,VWS V14.01,2013-01-25 08:24:00,
2013-01-25 00:25:00,40.8,40.3,29.82,SSW,202,0.0,0.0,98,0.04,,---,0.04,VWS V14.01,2013-01-25 08:25:00,
2013-01-25 00:27:00,40.8,40.3,29.82,SSW,202,0.0,0.9,98,0.04,,---,0.04,VWS V14.01,2013-01-25 08:27:00,
2013-01-25 00:28:00,40.8,40.3,29.82,SSW,202,0.0,0.0,98,0.04,,---,0.04,VWS V14.01,2013-01-25 08:28:00,
2013-01-25 00:29:00,40.8,40.3,29.82,SSW,202,0.0,0.0,98,0.04,,---,0.04,VWS V14.01,2013-01-25 08:29:00,
2013-01-25 00:30:00,40.8,40.3,29.82,SSW,202,0.0,0.0,98,0.04,,---,0.04,VWS V14.01,2013-01-25 08:30:00,
2013-01-25 00:31:00,40.8,40.3,29.82,SSW,202,0.0,0.0,98,0.04,,---,0.04,VWS V14.01,2013-01-25 08:31:00,
2013-01-25 00:32:00,40.8,40.3,29.82,SSW,202,0.0,0.0,98,0.04,,---,0.04,VWS V14.01,2013-01-25 08:32:00,
2013-01-25 00:33:00,40.8,40.3,29.82,SSW,202,0.0,0.0,98,0.04,,---,0.04,VWS V14.01,2013-01-25 08:33:00,
2013-01-25 00:34:00,40.8,40.3,29.82,SSW,202,0.0,0.0,98,0.04,,---,0.04,VWS V14.01,2013-01-25 08:34:00,
2013-01-25 00:35:00,40.8,40.3,29.82,SSW,202,0.0,0.0,98,0.04,,---,0.04,VWS V14.01,2013-01-25 08:35:00,
2013-01-25 00:36:00,40.8,40.3,29.82,SSW,202,0.0,0.0,98,0.04,,---,0.04,VWS V14.01,2013-01-25 08:36:00,
2013-01-25 00:37:00,40.8,40.3,29.82,SSW,202,0.0,0.0,98,0.04,,---,0.04,VWS V14.01,2013-01-25 08:37:00,
2013-01-25 00:38:00,40.8,40.3,29.82,SSW,202,0.0,0.0,98,0.04,,---,0.04,VWS V14.01,2013-01-25 08:38:00,
2013-01-25 00:39:00,40.8,40.3,29.82,SSW,202,0.0,0.0,98,0.04,,---,0.04,VWS V14.01,2013-01-25 08:39:00,
2013-01-25 00:40:00,40.8,40.3,29.82,SSW,202,0.0,0.0,98,0.04,,---,0.04,VWS V14.01,2013-01-25 08:40:00,
2013-01-25 00:41:00,40.8,40.3,29.82,SSW,202,0.0,0.0,98,0.04,,---,0.04,VWS V14.01,2013-01-25 08:41:00,
2013-01-25 00:42:00,40.8,40.3,29.82,SSW,202,0.0,0.0,98,0.04,,---,0.04,VWS V14.01,2013-01-25 08:42:00,
2013-01-25 00:43:00,40.8,40.3,29.82,SSW,202,0.0,0.0,98,0.04,,---,0.04,VWS V14.01,2013-01-25 08:43:00,
2013-01-25 00:44:00,40.8,40.3,29.82,SSW,202,0.0,0.0,98,0.04,,---,0.04,VWS V14.01,2013-01-25 08:44:00,
2013-01-25 00:45:00,40.8,40.3,29.82,SSW,202,0.0,0.0,98,0.04,,---,0.04,VWS V14.01,2013-01-25 08:45:00,
2013-01-25 00:46:00,40.8,40.3,29.82,SSW,202,0.0,0.0,98,0.04,,---,0.04,VWS V14.01,2013-01-25 08:46:00,
2013-01-25 00:47:00,40.8,40.3,29.82,SSW,202,0.0,0.0,98,0.04,,---,0.04,VWS V14.01,2013-01-25 08:47:00,
2013-01-25 00:48:00,40.8,40.3,29.82,SSW,202,0.0,0.0,98,0.04,,---,0.04,VWS V14.01,2013-01-25 08:48:00,
2013-01-25 00:49:00,40.8,40.3,29.82,SSW,202,0.0,0.0,98,0.04,,---,0.04,VWS V14.01,2013-01-25 08:49:00,
2013-01-25 00:50:00,40.8,40.3,29.82,SSW,202,0.0,0.0,98,0.04,,---,0.04,VWS V14.01,2013-01-25 08:50:00,
2013-01-25 00:51:00,40.8,40.3,29.82,SSW,202,0.0,0.0,98,0.04,,---,0.04,VWS V14.01,2013-01-25 08:51:00,
2013-01-25 00:52:00,40.8,40.3,29.82,SSW,202,0.0,0.0,98,0.04,,---,0.04,VWS V14.01,2013-01-25 08:52:00,
2013-01-25 00:53:00,40.8,40.3,29.82,SSW,202,0.0,0.0,98,0.04,,---,0.04,VWS V14.01,2013-01-25 08:53:00,
2013-01-25 00:54:00,40.8,40.3,29.82,SSW,202,0.0,0.0,98,0.04,,---,0.04,VWS V14.01,2013-01-25 08:54:00,
2013-01-25 00:55:00,40.8,40.3,29.82,SSW,202,0.0,0.0,98,0.04,,---,0.04,VWS V14.01,2013-01-25 08:55:00,
2013-01-25 00:56:00,40.8,40.3,29.82,SSW,202,0.0,0.0,98,0.04,,---,0.04,VWS V14.01,2013-01-25 08:56:00,
2013-01-25 00:57:00,40.8,40.3,29.82,SSW,202,0.0,0.0,98,0.04,,---,0.04,VWS V14.01,2013-01-25 08:57:00,
2013-01-25 00:58:00,40.8,40.3,29.82,SSW,202,0.0,0.0,98,0.04,,---,0.04,VWS V14.01,2013-01-25 08:58:00,
2013-01-25 00:59:00,40.8,40.3,29.82,SSW,202,0.0,0.0,98,0.04,,---,0.04,VWS V14.01,2013-01-25 08:59:00,
2013-01-25 01:00:00,40.8,40.3,29.82,SSW,202,0.0,0.0,98,0.04,,---,0.04,VWS V14.01,2013-01-25 09:00:00,
2013-01-25 01:01:00,40.8,40.3,29.82,SSW,202,0.0,0.0,98,0.04,,---,0.04,VWS V14.01,2013-01-25 09:01:00,
2013-01-25 01:02:00,40.8,40.3,29.82,SSW,202,0.0,0.0,98,0.04,,---,0.04,VWS V14.01,2013-01-25 09:02:00,
2013-01-25 01:03:00,40.8,40.3,29.82,SSW,202,0.0,0.0,98,0.04,,---,0.04,VWS V14.01,2013-01-25 09:03:00,
2013-01-25 01:04:00,40.8,40.3,29.82,SSW,202,0.0,0.0,98,0.04,,---,0.04,VWS V14.01,2013-01-25 09:04:00,
2013-01-25 01:05:00,40.8,40.3,29.82,SSW,202,0.0,0.0,98,0.04,,---,0.04,VWS V14.01,2013-01-25 09:05:00,
2013-01-25 01:06:00,40.8,40.3,29.82,SSW,202,0.0,0.0,98,0.04,,---,0.04,VWS V14.01,2013-01-25 09:06:00,
2013-01-25 01:07:00,40.8,40.3,29.82,SSW,202,0.0,0.0,98,0.04,,---,0.04,VWS V14.01,2013-01-25 09:07:00,
2013-01-25 01:08:00,40.8,40.3,29.82,SSW,202,0.0,0.0,98,0.04,,---,0.04,VWS V14.01,2013-01-25 09:08:00,
2013-01-25 01:09:00,40.8,40.3,29.82,SSW,202,1.3,1.3,98,0.04,,---,0.04,VWS V14.01,2013-01-25 09:09:00,
2013-01-25 01:10:00,40.8,40.3,29.82,SSW,202,1.3,1.6,98,0.04,,---,0.04,VWS V14.01,2013-01-25 09:10:00,
2013-01-25 01:11:00,40.8,40.3,29.82,SSW,202,0.0,1.3,98,0.04,,---,0.04,VWS V14.01,2013-01-25 09:11:00,
2013-01-25 01:12:00,40.8,40.3,29.82,SSE,158,0.9,0.9,98,0.04,,---,0.04,VWS V14.01,2013-01-25 09:12:00,
2013-01-25 01:13:00,40.8,40.3,29.82,SE,135,0.0,0.0,98,0.04,,---,0.04,VWS V14.01,2013-01-25 09:13:00,
2013-01-25 01:14:00,40.8,40.3,29.82,SE,135,0.0,0.0,98,0.04,,---,0.04,VWS V14.01,2013-01-25 09:14:00,
2013-01-25 01:15:00,40.8,40.3,29.82,SSE,158,0.0,0.9,98,0.04,,---,0.04,VWS V14.01,2013-01-25 09:15:00,
2013-01-25 01:17:00,40.8,40.3,29.82,SSE,158,0.0,0.9,98,0.04,,---,0.04,VWS V14.01,2013-01-25 09:17:00,
2013-01-25 01:18:00,40.8,40.3,29.82,East,90,0.9,0.9,98,0.00,,---,0.04,VWS V14.01,2013-01-25 09:18:00,
2013-01-25 01:19:00,40.8,40.3,29.82,East,90,0.0,0.9,98,0.00,,---,0.04,VWS V14.01,2013-01-25 09:19:00,
2013-01-25 01:20:00,40.8,40.3,29.82,East,90,0.0,0.0,98,0.00,,---,0.04,VWS V14.01,2013-01-25 09:20:00,
2013-01-25 01:21:00,40.8,40.3,29.82,East,90,0.0,0.0,98,0.00,,---,0.04,VWS V14.01,2013-01-25 09:21:00,
2013-01-25 01:22:00,40.8,40.3,29.82,ESE,112,0.9,0.9,98,0.00,,---,0.04,VWS V14.01,2013-01-25 09:22:00,
2013-01-25 01:23:00,40.8,40.3,29.82,SSE,158,0.0,0.9,98,0.00,,---,0.04,VWS V14.01,2013-01-25 09:23:00,
2013-01-25 01:24:00,40.8,40.3,29.82,SSE,158,0.0,0.9,98,0.00,,---,0.04,VWS V14.01,2013-01-25 09:24:00,
2013-01-25 01:25:00,40.8,40.3,29.82,SSE,158,0.0,0.0,98,0.00,,---,0.04,VWS V14.01,2013-01-25 09:25:00,
2013-01-25 01:26:00,40.8,40.3,29.82,SSE,158,0.0,0.0,98,0.00,,---,0.04,VWS V14.01,2013-01-25 09:26:00,
2013-01-25 01:27:00,40.8,40.3,29.82,SSE,158,0.0,0.0,98,0.00,,---,0.04,VWS V14.01,2013-01-25 09:27:00,
2013-01-25 01:28:00,40.8,40.3,29.82,ENE,68,1.1,1.1,98,0.00,,---,0.04,VWS V14.01,2013-01-25 09:28:00,
2013-01-25 01:29:00,40.8,40.3,29.82,ENE,68,0.0,1.1,98,0.00,,---,0.04,VWS V14.01,2013-01-25 09:29:00,
2013-01-25 01:30:00,40.8,40.3,29.82,NNE,22,0.0,0.0,98,0.00,,---,0.04,VWS V14.01,2013-01-25 09:30:00,
2013-01-25 01:31:00,40.8,40.3,29.82,WSW,248,0.0,0.0,98,0.00,,---,0.04,VWS V14.01,2013-01-25 09:31:00,
2013-01-25 01:32:00,40.8,40.3,29.82,WSW,248,0.0,0.0,98,0.00,,---,0.04,VWS V14.01,2013-01-25 09:32:00,
2013-01-25 01:33:00,40.8,40.3,29.82,WSW,248,0.0,0.0,98,0.00,,---,0.04,VWS V14.01,2013-01-25 09:33:00,
2013-01-25 01:34:00,40.8,40.3,29.82,West,270,0.0,0.0,98,0.00,,---,0.04,VWS V14.01,2013-01-25 09:34:00,
2013-01-25 01:35:00,40.8,40.3,29.82,NNW,338,0.0,0.0,98,0.00,,---,0.04,VWS V14.01,2013-01-25 09:35:00,
2013-01-25 01:36:00,40.8,40.3,29.82,NNW,338,0.0,0.0,98,0.00,,---,0.04,VWS V14.01,2013-01-25 09:36:00,
2013-01-25 01:38:00,40.8,40.3,29.82,NNW,338,0.0,0.0,98,0.00,,---,0.04,VWS V14.01,2013-01-25 09:38:00,
2013-01-25 01:39:00,40.8,40.3,29.82,SW,225,1.1,2.0,98,0.00,,---,0.04,VWS V14.01,2013-01-25 09:39:00,
2013-01-25 01:40:00,40.8,40.3,29.82,SW,225,0.0,1.1,98,0.00,,---,0.04,VWS V14.01,2013-01-25 09:40:00,
2013-01-25 01:41:00,40.8,40.3,29.82,SW,225,0.0,0.9,98,0.00,,---,0.04,VWS V14.01,2013-01-25 09:41:00,
2013-01-25 01:42:00,40.8,40.3,29.82,SW,225,0.0,0.0,98,0.00,,---,0.04,VWS V14.01,2013-01-25 09:42:00,
2013-01-25 01:43:00,40.8,40.3,29.82,SW,225,0.0,0.0,98,0.00,,---,0.04,VWS V14.01,2013-01-25 09:43:00,
2013-01-25 01:44:00,40.8,40.3,29.82,SW,225,0.0,0.0,98,0.00,,---,0.04,VWS V14.01,2013-01-25 09:44:00,
2013-01-25 01:45:00,40.8,40.3,29.82,WSW,248,0.0,1.1,98,0.00,,---,0.04,VWS V14.01,2013-01-25 09:45:00,
2013-01-25 01:46:00,40.8,40.3,29.82,WSW,248,0.0,0.0,98,0.00,,---,0.04,VWS V14.01,2013-01-25 09:46:00,
2013-01-25 01:47:00,40.8,40.3,29.82,WSW,248,0.0,0.0,98,0.00,,---,0.04,VWS V14.01,2013-01-25 09:47:00,
2013-01-25 01:48:00,41.0,40.5,29.82,SW,225,0.0,0.0,98,0.00,,---,0.04,VWS V14.01,2013-01-25 09:48:00,
2013-01-25 01:49:00,41.0,40.5,29.82,SW,225,0.0,0.0,98,0.00,,---,0.04,VWS V14.01,2013-01-25 09:49:00,
2013-01-25 01:50:00,41.0,40.5,29.82,SW,225,0.0,0.0,98,0.00,,---,0.04,VWS V14.01,2013-01-25 09:50:00,
2013-01-25 01:51:00,41.0,40.5,29.82,SW,225,0.0,0.0,98,0.00,,---,0.04,VWS V14.01,2013-01-25 09:51:00,
2013-01-25 01:52:00,41.0,40.5,29.82,SSW,202,0.0,0.0,98,0.04,,---,0.08,VWS V14.01,2013-01-25 09:52:00,
2013-01-25 01:53:00,41.0,40.5,29.82,SSW,202,0.0,0.0,98,0.04,,---,0.08,VWS V14.01,2013-01-25 09:53:00,
2013-01-25 01:54:00,41.0,40.5,29.82,SW,225,0.0,0.0,98,0.04,,---,0.08,VWS V14.01,2013-01-25 09:54:00,
2013-01-25 01:55:00,41.0,40.5,29.82,WSW,248,1.1,1.1,98,0.04,,---,0.08,VWS V14.01,2013-01-25 09:55:00,
2013-01-25 01:56:00,41.0,40.5,29.82,SSW,202,0.0,1.1,98,0.04,,---,0.08,VWS V14.01,2013-01-25 09:56:00,
2013-01-25 01:57:00,41.0,40.5,29.82,SSW,202,0.0,0.0,98,0.04,,---,0.08,VWS V14.01,2013-01-25 09:57:00,
2013-01-25 01:58:00,41.0,40.5,29.82,SSW,202,0.0,0.0,98,0.04,,---,0.08,VWS V14.01,2013-01-25 09:58:00,
2013-01-25 01:59:00,41.0,40.5,29.82,SSW,202,0.0,0.0,98,0.04,,---,0.08,VWS V14.01,2013-01-25 09:59:00,
2013-01-25 02:00:00,41.0,40.5,29.82,SSW,202,0.0,0.0,98,0.04,,---,0.08,VWS V14.01,2013-01-25 10:00:00,
2013-01-25 02:01:00,41.0,40.5,29.82,SSW,202,0.0,0.0,98,0.04,,---,0.08,VWS V14.01,2013-01-25 10:01:00,
2013-01-25 02:02:00,41.0,40.5,29.82,SSW,202,0.0,0.0,98,0.04,,---,0.08,VWS V14.01,2013-01-25 10:02:00,
2013-01-25 02:03:00,41.0,40.5,29.82,SSW,202,0.0,0.0,98,0.04,,---,0.08,VWS V14.01,2013-01-25 10:03:00,
2013-01-25 02:04:00,41.0,40.5,29.82,SSW,202,0.0,0.0,98,0.04,,---,0.08,VWS V14.01,2013-01-25 10:04:00,
2013-01-25 02:05:00,41.0,40.5,29.82,SSW,202,0.0,0.0,98,0.04,,---,0.08,VWS V14.01,2013-01-25 10:05:00,
2013-01-25 02:06:00,41.0,40.5,29.82,SSW,202,0.0,0.0,98,0.04,,---,0.08,VWS V14.01,2013-01-25 10:06:00,
2013-01-25 02:07:00,41.0,40.5,29.82,SSW,202,0.0,0.0,98,0.04,,---,0.08,VWS V14.01,2013-01-25 10:07:00,
2013-01-25 02:08:00,41.0,40.5,29.82,SSW,202,0.0,0.0,98,0.04,,---,0.08,VWS V14.01,2013-01-25 10:08:00,
2013-01-25 02:09:00,41.0,40.5,29.82,SSW,202,0.0,0.0,98,0.04,,---,0.08,VWS V14.01,2013-01-25 10:09:00,
2013-01-25 02:10:00,41.0,40.5,29.82,SSW,202,0.0,0.0,98,0.04,,---,0.08,VWS V14.01,2013-01-25 10:10:00,
2013-01-25 02:11:00,41.0,40.5,29.82,SSW,202,0.0,0.0,98,0.04,,---,0.08,VWS V14.01,2013-01-25 10:11:00,
2013-01-25 02:12:00,41.0,40.5,29.82,WNW,292,0.0,0.0,98,0.04,,---,0.08,VWS V14.01,2013-01-25 10:12:00,
2013-01-25 02:13:00,41.0,40.5,29.82,North,0,0.0,0.0,98,0.04,,---,0.08,VWS V14.01,2013-01-25 10:13:00,
2013-01-25 02:14:00,41.0,40.5,29.82,WNW,292,0.0,0.0,98,0.04,,---,0.08,VWS V14.01,2013-01-25 10:14:00,
2013-01-25 02:15:00,41.0,40.5,29.82,WNW,292,0.0,1.3,98,0.04,,---,0.08,VWS V14.01,2013-01-25 10:15:00,
2013-01-25 02:16:00,41.0,40.5,29.82,WSW,248,0.0,0.0,98,0.04,,---,0.08,VWS V14.01,2013-01-25 10:16:00,
2013-01-25 02:17:00,41.0,40.5,29.82,WSW,248,0.0,0.0,98,0.04,,---,0.08,VWS V14.01,2013-01-25 10:17:00,
2013-01-25 02:18:00,41.0,40.5,29.82,SSW,202,0.0,0.0,98,0.04,,---,0.08,VWS V14.01,2013-01-25 10:18:00,
2013-01-25 02:19:00,41.0,40.5,29.82,SSW,202,0.0,0.0,98,0.04,,---,0.08,VWS V14.01,2013-01-25 10:19:00,
2013-01-25 02:20:00,41.0,40.5,29.82,SSW,202,0.0,0.0,98,0.04,,---,0.08,VWS V14.01,2013-01-25 10:20:00,
2013-01-25 02:21:00,41.0,40.5,29.82,SSW,202,0.0,0.0,98,0.04,,---,0.08,VWS V14.01,2013-01-25 10:21:00,
2013-01-25 02:22:00,41.0,40.5,29.82,SSW,202,0.0,0.0,98,0.04,,---,0.08,VWS V14.01,2013-01-25 10:22:00,
2013-01-25 02:23:00,41.0,40.5,29.82,SSW,202,0.0,0.0,98,0.04,,---,0.08,VWS V14.01,2013-01-25 10:23:00,
2013-01-25 02:24:00,41.0,40.5,29.82,WSW,248,0.9,0.9,98,0.04,,---,0.08,VWS V14.01,2013-01-25 10:24:00,
2013-01-25 02:25:00,41.0,40.5,29.82,WSW,248,0.0,0.9,98,0.04,,---,0.08,VWS V14.01,2013-01-25 10:25:00,
2013-01-25 02:26:00,41.0,40.5,29.82,WSW,248,0.0,0.0,98,0.04,,---,0.08,VWS V14.01,2013-01-25 10:26:00,
2013-01-25 02:27:00,41.0,40.5,29.82,WSW,248,0.0,0.0,98,0.04,,---,0.08,VWS V14.01,2013-01-25 10:27:00,
2013-01-25 02:28:00,41.0,40.5,29.82,WSW,248,0.0,0.0,98,0.04,,---,0.08,VWS V14.01,2013-01-25 10:28:00,
2013-01-25 02:30:00,41.0,40.5,29.82,WSW,248,0.0,1.1,98,0.04,,---,0.08,VWS V14.01,2013-01-25 10:30:00,
2013-01-25 02:31:00,41.0,40.5,29.82,WSW,248,0.0,0.0,98,0.04,,---,0.08,VWS V14.01,2013-01-25 10:31:00,
2013-01-25 02:32:00,41.0,40.5,29.82,SSW,202,0.0,0.0,98,0.04,,---,0.08,VWS V14.01,2013-01-25 10:32:00,
2013-01-25 02:33:00,41.0,40.5,29.82,SSW,202,0.0,0.0,98,0.04,,---,0.08,VWS V14.01,2013-01-25 10:33:00,
2013-01-25 02:34:00,41.0,40.5,29.82,SSW,202,0.0,0.0,98,0.04,,---,0.08,VWS V14.01,2013-01-25 10:34:00,
2013-01-25 02:35:00,41.0,40.5,29.82,SSW,202,0.0,1.1,98,0.04,,---,0.08,VWS V14.01,2013-01-25 10:35:00,
2013-01-25 02:37:00,41.2,40.7,29.82,SSW,202,0.0,0.0,98,0.04,,---,0.08,VWS V14.01,2013-01-25 10:37:00,
2013-01-25 02:38:00,41.2,40.7,29.82,SSW,202,0.0,0.0,98,0.04,,---,0.08,VWS V14.01,2013-01-25 10:38:00,
2013-01-25 02:39:00,41.2,40.7,29.82,SSW,202,0.0,0.0,98,0.04,,---,0.08,VWS V14.01,2013-01-25 10:39:00,
2013-01-25 02:40:00,41.2,40.7,29.82,SSW,202,0.0,0.0,98,0.08,,---,0.12,VWS V14.01,2013-01-25 10:40:00,
2013-01-25 02:41:00,41.2,40.7,29.82,SSW,202,0.0,0.0,98,0.08,,---,0.12,VWS V14.01,2013-01-25 10:41:00,
2013-01-25 02:42:00,41.2,40.7,29.82,SSW,202,0.0,0.0,98,0.08,,---,0.12,VWS V14.01,2013-01-25 10:42:00,
2013-01-25 02:43:00,41.2,40.7,29.82,SSE,158,0.0,1.1,98,0.08,,---,0.12,VWS V14.01,2013-01-25 10:43:00,
2013-01-25 02:44:00,41.2,40.7,29.82,SSE,158,0.0,1.1,98,0.08,,---,0.12,VWS V14.01,2013-01-25 10:44:00,
2013-01-25 02:45:00,41.2,40.7,29.82,SE,135,0.9,2.7,98,0.08,,---,0.12,VWS V14.01,2013-01-25 10:45:00,
2013-01-25 02:46:00,41.2,40.7,29.82,WSW,248,1.3,1.3,98,0.08,,---,0.12,VWS V14.01,2013-01-25 10:46:00,
2013-01-25 02:47:00,41.2,40.7,29.82,WNW,292,0.0,0.0,98,0.08,,---,0.12,VWS V14.01,2013-01-25 10:47:00,
2013-01-25 02:48:00,41.2,40.7,29.82,WNW,292,0.0,1.1,98,0.08,,---,0.12,VWS V14.01,2013-01-25 10:48:00,
2013-01-25 02:49:00,41.2,40.7,29.82,WNW,292,0.0,0.0,98,0.08,,---,0.12,VWS V14.01,2013-01-25 10:49:00,
2013-01-25 02:50:00,41.2,40.7,29.82,SSW,202,0.0,0.0,98,0.08,,---,0.12,VWS V14.01,2013-01-25 10:50:00,
2013-01-25 02:51:00,41.4,40.8,29.82,SSW,202,0.0,0.0,98,0.08,,---,0.12,VWS V14.01,2013-01-25 10:51:00,
2013-01-25 02:52:00,41.4,40.8,29.82,SSE,158,0.0,0.0,98,0.04,,---,0.12,VWS V14.01,2013-01-25 10:52:00,
2013-01-25 02:53:00,41.4,40.8,29.82,SSE,158,0.0,1.3,98,0.04,,---,0.12,VWS V14.01,2013-01-25 10:53:00,
2013-01-25 02:54:00,41.4,40.8,29.82,ESE,112,0.0,0.0,98,0.04,,---,0.12,VWS V14.01,2013-01-25 10:54:00,
2013-01-25 02:55:00,41.4,40.8,29.82,ESE,112,0.0,0.0,98,0.04,,---,0.12,VWS V14.01,2013-01-25 10:55:00,
2013-01-25 02:57:00,41.5,41.0,29.82,SSW,202,0.0,0.0,98,0.04,,---,0.12,VWS V14.01,2013-01-25 10:57:00,
2013-01-25 02:58:00,41.5,41.0,29.82,SSW,202,0.0,0.0,98,0.04,,---,0.12,VWS V14.01,2013-01-25 10:58:00,
2013-01-25 02:59:00,41.5,41.0,29.82,SSW,202,0.0,0.0,98,0.04,,---,0.12,VWS V14.01,2013-01-25 10:59:00,
2013-01-25 03:00:00,41.5,41.0,29.82,SSW,202,0.0,0.0,98,0.04,,---,0.12,VWS V14.01,2013-01-25 11:00:00,
2013-01-25 03:01:00,41.5,41.0,29.82,SSW,202,0.0,0.0,98,0.04,,---,0.12,VWS V14.01,2013-01-25 11:01:00,
2013-01-25 03:02:00,41.5,41.0,29.82,SSE,158,0.0,0.0,98,0.04,,---,0.12,VWS V14.01,2013-01-25 11:02:00,
2013-01-25 03:03:00,41.5,41.0,29.82,SSE,158,0.0,0.0,98,0.04,,---,0.12,VWS V14.01,2013-01-25 11:03:00,
2013-01-25 03:05:00,41.5,41.0,29.82,ESE,112,0.0,0.0,98,0.04,,---,0.12,VWS V14.01,2013-01-25 11:05:00,
2013-01-25 03:06:00,41.5,41.0,29.82,ESE,112,0.0,0.0,98,0.04,,---,0.12,VWS V14.01,2013-01-25 11:06:00,
2013-01-25 03:07:00,41.5,41.0,29.82,WSW,248,0.9,0.9,98,0.04,,---,0.12,VWS V14.01,2013-01-25 11:07:00,
2013-01-25 03:08:00,41.5,41.0,29.82,WSW,248,0.9,0.9,98,0.04,,---,0.12,VWS V14.01,2013-01-25 11:08:00,
2013-01-25 03:09:00,41.5,41.0,29.82,WSW,248,0.0,0.9,98,0.04,,---,0.12,VWS V14.01,2013-01-25 11:09:00,
2013-01-25 03:10:00,41.5,41.0,29.82,SSW,202,0.0,0.0,98,0.04,,---,0.12,VWS V14.01,2013-01-25 11:10:00,
2013-01-25 03:11:00,41.5,41.0,29.82,SSW,202,0.0,0.0,98,0.04,,---,0.12,VWS V14.01,2013-01-25 11:11:00,
2013-01-25 03:12:00,41.5,41.0,29.82,SSW,202,0.0,0.0,98,0.04,,---,0.12,VWS V14.01,2013-01-25 11:12:00,
2013-01-25 03:13:00,41.5,41.0,29.82,SSW,202,0.0,0.0,98,0.04,,---,0.12,VWS V14.01,2013-01-25 11:13:00,
2013-01-25 03:14:00,41.5,41.0,29.82,SSW,202,0.0,0.0,98,0.04,,---,0.12,VWS V14.01,2013-01-25 11:14:00,
2013-01-25 03:15:00,41.5,41.0,29.82,WSW,248,0.0,0.0,98,0.04,,---,0.12,VWS V14.01,2013-01-25 11:15:00,
2013-01-25 03:16:00,41.5,41.0,29.82,WSW,248,0.0,0.0,98,0.04,,---,0.12,VWS V14.01,2013-01-25 11:16:00,
2013-01-25 03:17:00,41.5,41.0,29.82,West,270,0.0,0.0,98,0.04,,---,0.12,VWS V14.01,2013-01-25 11:17:00,
2013-01-25 03:18:00,41.5,41.0,29.82,West,270,0.0,0.0,98,0.04,,---,0.12,VWS V14.01,2013-01-25 11:18:00,
2013-01-25 03:20:00,41.7,41.2,29.82,SSW,202,1.1,1.1,98,0.04,,---,0.12,VWS V14.01,2013-01-25 11:20:00,
2013-01-25 03:21:00,41.7,41.2,29.82,SSW,202,0.0,1.1,98,0.04,,---,0.12,VWS V14.01,2013-01-25 11:21:00,
2013-01-25 03:22:00,41.7,41.2,29.82,SSW,202,0.0,0.0,98,0.04,,---,0.12,VWS V14.01,2013-01-25 11:22:00,
2013-01-25 03:23:00,41.7,41.2,29.82,SSW,202,0.0,0.0,98,0.04,,---,0.12,VWS V14.01,2013-01-25 11:23:00,
2013-01-25 03:24:00,41.7,41.2,29.82,SSW,202,0.0,0.0,98,0.04,,---,0.12,VWS V14.01,2013-01-25 11:24:00,
2013-01-25 03:25:00,41.7,41.2,29.82,SSW,202,0.0,0.0,98,0.04,,---,0.12,VWS V14.01,2013-01-25 11:25:00,
2013-01-25 03:26:00,41.7,41.2,29.82,SSW,202,0.0,0.0,98,0.04,,---,0.12,VWS V14.01,2013-01-25 11:26:00,
2013-01-25 03:27:00,41.7,41.2,29.82,WSW,248,0.0,0.0,98,0.04,,---,0.12,VWS V14.01,2013-01-25 11:27:00,
2013-01-25 03:28:00,41.7,41.2,29.82,WSW,248,0.0,0.0,98,0.04,,---,0.12,VWS V14.01,2013-01-25 11:28:00,
2013-01-25 03:29:00,41.7,41.2,29.82,WSW,248,0.0,0.0,98,0.04,,---,0.12,VWS V14.01,2013-01-25 11:29:00,
2013-01-25 03:30:00,41.7,41.2,29.82,WSW,248,0.0,0.0,98,0.04,,---,0.12,VWS V14.01,2013-01-25 11:30:00,
2013-01-25 03:31:00,41.7,41.2,29.82,WSW,248,0.0,0.0,98,0.04,,---,0.12,VWS V14.01,2013-01-25 11:31:00,
2013-01-25 03:32:00,41.7,41.2,29.82,North,0,0.9,0.9,98,0.04,,---,0.12,VWS V14.01,2013-01-25 11:32:00,
2013-01-25 03:33:00,41.7,41.2,29.82,NNW,338,0.0,0.0,98,0.04,,---,0.12,VWS V14.01,2013-01-25 11:33:00,
2013-01-25 03:34:00,41.7,41.2,29.82,North,0,0.0,0.9,98,0.04,,---,0.12,VWS V14.01,2013-01-25 11:34:00,
2013-01-25 03:35:00,41.7,41.2,29.82,WSW,248,0.9,1.1,98,0.04,,---,0.12,VWS V14.01,2013-01-25 11:35:00,
2013-01-25 03:36:00,41.7,41.2,29.82,WSW,248,0.0,1.3,98,0.04,,---,0.12,VWS V14.01,2013-01-25 11:36:00,
2013-01-25 03:37:00,41.7,41.2,29.82,NNW,338,0.0,0.0,98,0.04,,---,0.12,VWS V14.01,2013-01-25 11:37:00,
2013-01-25 03:38:00,41.7,41.2,29.82,NNW,338,0.0,0.0,98,0.04,,---,0.12,VWS V14.01,2013-01-25 11:38:00,
2013-01-25 03:39:00,41.7,41.2,29.82,West,270,0.0,0.0,98,0.04,,---,0.12,VWS V14.01,2013-01-25 11:39:00,
2013-01-25 03:40:00,41.7,41.2,29.82,West,270,0.0,0.0,98,0.04,,---,0.12,VWS V14.01,2013-01-25 11:40:00,
2013-01-25 03:41:00,41.7,41.2,29.82,West,270,0.0,0.0,98,0.00,,---,0.12,VWS V14.01,2013-01-25 11:41:00,
2013-01-25 03:42:00,41.7,41.2,29.82,West,270,0.0,0.0,98,0.00,,---,0.12,VWS V14.01,2013-01-25 11:42:00,
2013-01-25 03:43:00,41.7,41.2,29.82,West,270,0.0,0.0,98,0.00,,---,0.12,VWS V14.01,2013-01-25 11:43:00,
2013-01-25 03:44:00,41.7,41.2,29.82,West,270,0.0,0.0,98,0.00,,---,0.12,VWS V14.01,2013-01-25 11:44:00,
2013-01-25 03:45:00,41.7,41.2,29.82,West,270,0.0,0.0,98,0.00,,---,0.12,VWS V14.01,2013-01-25 11:45:00,
2013-01-25 03:46:00,41.7,41.2,29.82,West,270,0.0,0.0,98,0.00,,---,0.12,VWS V14.01,2013-01-25 11:46:00,
2013-01-25 03:47:00,41.7,41.2,29.82,SW,225,0.0,0.0,98,0.00,,---,0.12,VWS V14.01,2013-01-25 11:47:00,
2013-01-25 03:48:00,41.7,41.2,29.82,SW,225,0.0,0.9,98,0.00,,---,0.12,VWS V14.01,2013-01-25 11:48:00,
2013-01-25 03:49:00,41.7,41.2,29.82,SSW,202,0.0,0.0,98,0.00,,---,0.12,VWS V14.01,2013-01-25 11:49:00,
2013-01-25 03:50:00,41.7,41.2,29.82,SSE,158,0.0,0.0,98,0.00,,---,0.12,VWS V14.01,2013-01-25 11:50:00,
2013-01-25 03:51:00,41.7,41.2,29.82,SSE,158,0.0,0.0,98,0.00,,---,0.12,VWS V14.01,2013-01-25 11:51:00,
2013-01-25 03:52:00,41.7,41.2,29.79,SSW,202,1.1,1.3,98,0.00,,---,0.12,VWS V14.01,2013-01-25 11:52:00,
2013-01-25 03:53:00,41.7,41.2,29.79,SSW,202,1.1,1.3,98,0.00,,---,0.12,VWS V14.01,2013-01-25 11:53:00,
2013-01-25 03:54:00,41.7,41.2,29.79,SSW,202,0.0,1.1,98,0.00,,---,0.12,VWS V14.01,2013-01-25 11:54:00,
2013-01-25 03:55:00,41.7,41.2,29.79,West,270,0.9,0.9,98,0.00,,---,0.12,VWS V14.01,2013-01-25 11:55:00,
2013-01-25 03:56:00,41.7,41.2,29.79,WNW,292,0.0,0.9,98,0.05,,---,0.17,VWS V14.01,2013-01-25 11:56:00,
2013-01-25 03:57:00,41.7,41.2,29.79,WNW,292,0.0,0.0,98,0.05,,---,0.17,VWS V14.01,2013-01-25 11:57:00,
2013-01-25 03:58:00,41.7,41.2,29.79,WNW,292,0.0,0.0,98,0.05,,---,0.17,VWS V14.01,2013-01-25 11:58:00,
2013-01-25 03:59:00,41.7,41.2,29.79,WSW,248,0.0,1.1,98,0.05,,---,0.17,VWS V14.01,2013-01-25 11:59:00,
2013-01-25 04:00:00,41.7,41.2,29.79,WSW,248,0.0,0.0,98,0.05,,---,0.17,VWS V14.01,2013-01-25 12:00:00,
2013-01-25 04:01:00,41.7,41.2,29.79,WSW,248,0.0,0.0,98,0.05,,---,0.17,VWS V14.01,2013-01-25 12:01:00,
2013-01-25 04:02:00,41.7,41.2,29.79,WSW,248,0.0,0.0,98,0.05,,---,0.17,VWS V14.01,2013-01-25 12:02:00,
2013-01-25 04:03:00,41.7,41.2,29.79,WSW,248,0.0,0.0,98,0.05,,---,0.17,VWS V14.01,2013-01-25 12:03:00,
2013-01-25 04:04:00,41.7,41.2,29.79,WSW,248,1.6,2.0,98,0.05,,---,0.17,VWS V14.01,2013-01-25 12:04:00,
2013-01-25 04:05:00,41.7,41.2,29.79,SW,225,0.9,1.6,98,0.05,,---,0.17,VWS V14.01,2013-01-25 12:05:00,
2013-01-25 04:06:00,41.7,41.2,29.79,West,270,0.0,0.9,98,0.05,,---,0.17,VWS V14.01,2013-01-25 12:06:00,
2013-01-25 04:07:00,41.9,41.4,29.79,South,180,0.0,1.1,98,0.05,,---,0.17,VWS V14.01,2013-01-25 12:07:00,
2013-01-25 04:08:00,41.9,41.4,29.79,South,180,0.0,1.1,98,0.05,,---,0.17,VWS V14.01,2013-01-25 12:08:00,
2013-01-25 04:09:00,41.9,41.4,29.79,SSW,202,0.0,0.0,98,0.05,,---,0.17,VWS V14.01,2013-01-25 12:09:00,
2013-01-25 04:10:00,41.9,41.4,29.79,West,270,0.0,0.0,98,0.05,,---,0.17,VWS V14.01,2013-01-25 12:10:00,
2013-01-25 04:11:00,41.9,41.4,29.79,WSW,248,0.9,0.9,98,0.05,,---,0.17,VWS V14.01,2013-01-25 12:11:00,
2013-01-25 04:12:00,41.9,41.4,29.79,WNW,292,1.3,1.3,98,0.05,,---,0.17,VWS V14.01,2013-01-25 12:12:00,
2013-01-25 04:13:00,41.9,41.4,29.79,WNW,292,1.3,1.3,98,0.05,,---,0.17,VWS V14.01,2013-01-25 12:13:00,
2013-01-25 04:14:00,41.9,41.4,29.79,East,90,0.0,2.5,98,0.05,,---,0.17,VWS V14.01,2013-01-25 12:14:00,
2013-01-25 04:15:00,41.9,41.4,29.79,ESE,112,0.0,1.1,98,0.05,,---,0.17,VWS V14.01,2013-01-25 12:15:00,
2013-01-25 04:16:00,41.9,41.4,29.79,ESE,112,0.0,0.0,98,0.05,,---,0.17,VWS V14.01,2013-01-25 12:16:00,
2013-01-25 04:17:00,42.1,41.6,29.79,ESE,112,0.0,0.0,98,0.05,,---,0.17,VWS V14.01,2013-01-25 12:17:00,
2013-01-25 04:18:00,42.1,41.6,29.79,ESE,112,0.0,0.0,98,0.05,,---,0.17,VWS V14.01,2013-01-25 12:18:00,
2013-01-25 04:19:00,42.1,41.6,29.79,ESE,112,0.0,0.0,98,0.05,,---,0.17,VWS V14.01,2013-01-25 12:19:00,
2013-01-25 04:20:00,42.1,41.6,29.79,ESE,112,0.0,0.0,98,0.05,,---,0.17,VWS V14.01,2013-01-25 12:20:00,
2013-01-25 04:21:00,42.1,41.6,29.79,SSE,158,0.0,0.0,98,0.05,,---,0.17,VWS V14.01,2013-01-25 12:21:00,
2013-01-25 04:22:00,42.1,41.6,29.79,WSW,248,0.0,0.0,98,0.05,,---,0.17,VWS V14.01,2013-01-25 12:22:00,
2013-01-25 04:23:00,42.1,41.6,29.79,WSW,248,0.0,0.0,98,0.05,,---,0.17,VWS V14.01,2013-01-25 12:23:00,
2013-01-25 04:24:00,42.1,41.6,29.79,ESE,112,1.3,1.3,98,0.05,,---,0.17,VWS V14.01,2013-01-25 12:24:00,
2013-01-25 04:25:00,42.1,41.6,29.79,ESE,112,0.0,1.6,98,0.05,,---,0.17,VWS V14.01,2013-01-25 12:25:00,
2013-01-25 04:26:00,42.1,41.6,29.79,ESE,112,0.0,0.0,98,0.05,,---,0.17,VWS V14.01,2013-01-25 12:26:00,
2013-01-25 04:27:00,42.1,41.6,29.79,East,90,0.0,0.0,98,0.05,,---,0.17,VWS V14.01,2013-01-25 12:27:00,
2013-01-25 04:28:00,42.1,41.6,29.79,East,90,0.0,0.0,98,0.05,,---,0.17,VWS V14.01,2013-01-25 12:28:00,
2013-01-25 04:29:00,42.1,41.6,29.79,ESE,112,0.0,0.0,98,0.05,,---,0.17,VWS V14.01,2013-01-25 12:29:00,
2013-01-25 04:30:00,42.1,41.6,29.79,ESE,112,0.0,0.0,98,0.05,,---,0.17,VWS V14.01,2013-01-25 12:30:00,
2013-01-25 04:31:00,42.1,41.6,29.79,SE,135,0.0,0.0,98,0.05,,---,0.17,VWS V14.01,2013-01-25 12:31:00,
2013-01-25 04:32:00,42.3,41.7,29.79,SSE,158,0.0,0.0,98,0.05,,---,0.17,VWS V14.01,2013-01-25 12:32:00,
2013-01-25 04:33:00,42.3,41.7,29.79,SSE,158,0.0,0.0,98,0.05,,---,0.17,VWS V14.01,2013-01-25 12:33:00,
2013-01-25 04:34:00,42.3,41.7,29.79,SSE,158,0.0,0.0,98,0.05,,---,0.17,VWS V14.01,2013-01-25 12:34:00,
2013-01-25 04:35:00,42.3,41.7,29.79,SSE,158,0.0,0.0,98,0.05,,---,0.17,VWS V14.01,2013-01-25 12:35:00,
2013-01-25 04:36:00,42.3,41.7,29.79,SSE,158,0.0,0.0,98,0.05,,---,0.17,VWS V14.01,2013-01-25 12:36:00,
2013-01-25 04:37:00,42.3,41.7,29.79,SSE,158,0.0,0.0,98,0.05,,---,0.17,VWS V14.01,2013-01-25 12:37:00,
2013-01-25 04:38:00,42.3,41.7,29.79,SSE,158,0.0,0.0,98,0.05,,---,0.17,VWS V14.01,2013-01-25 12:38:00,
2013-01-25 04:39:00,42.3,41.7,29.79,SE,135,0.0,0.0,98,0.05,,---,0.17,VWS V14.01,2013-01-25 12:39:00,
2013-01-25 04:40:00,42.3,41.7,29.79,ESE,112,0.0,0.0,98,0.05,,---,0.17,VWS V14.01,2013-01-25 12:40:00,
2013-01-25 04:41:00,42.4,41.9,29.79,ESE,112,0.0,1.6,98,0.05,,---,0.17,VWS V14.01,2013-01-25 12:41:00,
2013-01-25 04:42:00,42.6,42.1,29.79,ESE,112,0.0,0.9,98,0.05,,---,0.17,VWS V14.01,2013-01-25 12:42:00,
2013-01-25 04:43:00,42.6,42.1,29.79,ESE,112,0.0,0.9,98,0.05,,---,0.17,VWS V14.01,2013-01-25 12:43:00,
2013-01-25 04:44:00,42.6,42.1,29.79,ESE,112,0.0,0.0,98,0.05,,---,0.17,VWS V14.01,2013-01-25 12:44:00,
2013-01-25 04:45:00,42.6,42.1,29.79,ESE,112,0.0,0.0,98,0.05,,---,0.17,VWS V14.01,2013-01-25 12:45:00,
2013-01-25 04:46:00,42.8,42.3,29.79,ESE,112,0.0,0.0,98,0.05,,---,0.17,VWS V14.01,2013-01-25 12:46:00,
2013-01-25 04:47:00,42.8,42.3,29.79,ESE,112,0.0,0.0,98,0.05,,---,0.17,VWS V14.01,2013-01-25 12:47:00,
2013-01-25 04:48:00,42.8,42.3,29.79,ESE,112,0.0,0.0,98,0.05,,---,0.17,VWS V14.01,2013-01-25 12:48:00,
2013-01-25 04:49:00,42.8,42.3,29.79,ESE,112,0.0,0.0,98,0.05,,---,0.17,VWS V14.01,2013-01-25 12:49:00,
2013-01-25 04:51:00,43.0,42.5,29.79,ESE,112,0.0,0.0,98,0.05,,---,0.17,VWS V14.01,2013-01-25 12:51:00,
2013-01-25 04:52:00,43.2,42.6,29.79,ESE,112,0.0,0.0,98,0.05,,---,0.17,VWS V14.01,2013-01-25 12:52:00,
2013-01-25 04:53:00,43.2,42.6,29.79,ESE,112,0.0,0.0,98,0.05,,---,0.17,VWS V14.01,2013-01-25 12:53:00,
2013-01-25 04:54:00,43.2,42.6,29.79,SE,135,0.0,0.0,98,0.05,,---,0.17,VWS V14.01,2013-01-25 12:54:00,
2013-01-25 04:55:00,43.2,42.6,29.79,ESE,112,0.0,0.0,98,0.05,,---,0.17,VWS V14.01,2013-01-25 12:55:00,
2013-01-25 04:57:00,43.5,43.0,29.79,ESE,112,0.0,0.0,98,0.00,,---,0.17,VWS V14.01,2013-01-25 12:57:00,
2013-01-25 04:58:00,43.5,43.0,29.79,ESE,112,0.0,0.0,98,0.00,,---,0.17,VWS V14.01,2013-01-25 12:58:00,
2013-01-25 04:59:00,43.7,43.2,29.79,ESE,112,0.0,0.9,98,0.00,,---,0.17,VWS V14.01,2013-01-25 12:59:00,
2013-01-25 05:00:00,43.7,43.2,29.79,SE,135,0.9,1.1,98,0.00,,---,0.17,VWS V14.01,2013-01-25 13:00:00,
2013-01-25 05:01:00,43.7,43.2,29.79,SE,135,0.0,0.9,98,0.00,,---,0.17,VWS V14.01,2013-01-25 13:01:00,
2013-01-25 05:02:00,43.7,43.2,29.79,SE,135,0.0,0.0,98,0.00,,---,0.17,VWS V14.01,2013-01-25 13:02:00,
2013-01-25 05:03:00,43.7,43.2,29.79,SE,135,0.0,0.0,98,0.00,,---,0.17,VWS V14.01,2013-01-25 13:03:00,
2013-01-25 05:04:00,43.7,43.2,29.79,SE,135,0.0,0.0,98,0.00,,---,0.17,VWS V14.01,2013-01-25 13:04:00,
2013-01-25 05:05:00,43.9,43.3,29.79,SSE,158,0.0,0.0,98,0.00,,---,0.17,VWS V14.01,2013-01-25 13:05:00,
2013-01-25 05:06:00,43.9,43.3,29.79,ESE,112,0.0,0.0,98,0.00,,---,0.17,VWS V14.01,2013-01-25 13:06:00,
2013-01-25 05:07:00,44.1,43.5,29.79,ESE,112,0.0,0.0,98,0.00,,---,0.17,VWS V14.01,2013-01-25 13:07:00,
2013-01-25 05:08:00,44.1,43.5,29.79,ESE,112,0.0,0.0,98,0.00,,---,0.17,VWS V14.01,2013-01-25 13:08:00,
2013-01-25 05:09:00,44.1,43.5,29.79,ESE,112,0.0,0.0,98,0.00,,---,0.17,VWS V14.01,2013-01-25 13:09:00,
2013-01-25 05:10:00,44.1,43.5,29.79,ESE,112,0.0,0.0,98,0.00,,---,0.17,VWS V14.01,2013-01-25 13:10:00,
2013-01-25 05:11:00,44.1,43.5,29.79,ESE,112,1.6,1.6,98,0.00,,---,0.17,VWS V14.01,2013-01-25 13:11:00,
2013-01-25 05:12:00,44.2,43.7,29.79,ESE,112,0.0,0.0,98,0.00,,---,0.17,VWS V14.01,2013-01-25 13:12:00,
2013-01-25 05:13:00,44.2,43.7,29.79,ESE,112,0.0,0.0,98,0.00,,---,0.17,VWS V14.01,2013-01-25 13:13:00,
2013-01-25 05:14:00,44.2,43.7,29.79,ESE,112,0.0,0.0,98,0.00,,---,0.17,VWS V14.01,2013-01-25 13:14:00,
2013-01-25 05:16:00,44.4,43.9,29.79,ESE,112,0.0,0.0,98,0.00,,---,0.17,VWS V14.01,2013-01-25 13:16:00,
2013-01-25 05:17:00,44.4,43.9,29.79,ESE,112,0.0,0.0,98,0.00,,---,0.17,VWS V14.01,2013-01-25 13:17:00,
2013-01-25 05:18:00,44.4,43.9,29.79,ESE,112,0.0,0.0,98,0.00,,---,0.17,VWS V14.01,2013-01-25 13:18:00,
2013-01-25 05:19:00,44.4,43.9,29.79,ESE,112,0.0,0.0,98,0.00,,---,0.17,VWS V14.01,2013-01-25 13:19:00,
2013-01-25 05:20:00,44.6,44.1,29.79,ESE,112,0.0,0.0,98,0.00,,---,0.17,VWS V14.01,2013-01-25 13:20:00,
2013-01-25 05:21:00,44.6,44.1,29.79,ESE,112,0.0,0.0,98,0.00,,---,0.17,VWS V14.01,2013-01-25 13:21:00,
2013-01-25 05:22:00,44.6,44.1,29.79,ESE,112,0.0,0.0,98,0.00,,---,0.17,VWS V14.01,2013-01-25 13:22:00,
2013-01-25 05:23:00,44.6,44.1,29.79,ESE,112,0.0,0.0,98,0.00,,---,0.17,VWS V14.01,2013-01-25 13:23:00,
2013-01-25 05:24:00,44.6,44.1,29.79,ESE,112,0.0,0.0,98,0.00,,---,0.17,VWS V14.01,2013-01-25 13:24:00,
2013-01-25 05:25:00,44.8,44.2,29.79,ESE,112,0.0,0.0,98,0.00,,---,0.17,VWS V14.01,2013-01-25 13:25:00,
2013-01-25 05:26:00,44.8,44.2,29.79,ESE,112,0.0,0.0,98,0.00,,---,0.17,VWS V14.01,2013-01-25 13:26:00,
2013-01-25 05:27:00,44.8,44.2,29.79,ESE,112,0.0,0.0,98,0.00,,---,0.17,VWS V14.01,2013-01-25 13:27:00,
2013-01-25 05:28:00,44.8,44.2,29.79,ESE,112,0.0,0.0,98,0.00,,---,0.17,VWS V14.01,2013-01-25 13:28:00,
2013-01-25 05:29:00,44.8,44.2,29.79,ESE,112,0.0,0.0,98,0.00,,---,0.17,VWS V14.01,2013-01-25 13:29:00,
2013-01-25 05:30:00,44.8,44.2,29.79,SE,135,0.9,0.9,98,0.00,,---,0.17,VWS V14.01,2013-01-25 13:30:00,
2013-01-25 05:31:00,44.8,44.2,29.79,ESE,112,0.0,0.9,98,0.00,,---,0.17,VWS V14.01,2013-01-25 13:31:00,
2013-01-25 05:32:00,44.8,44.2,29.79,ESE,112,0.0,0.0,98,0.00,,---,0.17,VWS V14.01,2013-01-25 13:32:00,
2013-01-25 05:33:00,44.8,44.2,29.79,ESE,112,0.0,0.0,98,0.00,,---,0.17,VWS V14.01,2013-01-25 13:33:00,
2013-01-25 05:34:00,44.8,44.2,29.79,ESE,112,0.0,0.0,98,0.00,,---,0.17,VWS V14.01,2013-01-25 13:34:00,
2013-01-25 05:35:00,44.8,44.2,29.79,ESE,112,0.0,0.0,98,0.00,,---,0.17,VWS V14.01,2013-01-25 13:35:00,
2013-01-25 05:36:00,44.8,44.2,29.79,ESE,112,0.0,0.0,98,0.00,,---,0.17,VWS V14.01,2013-01-25 13:36:00,
2013-01-25 05:37:00,44.8,44.2,29.79,ESE,112,0.0,0.0,98,0.00,,---,0.17,VWS V14.01,2013-01-25 13:37:00,
2013-01-25 05:38:00,44.8,44.2,29.79,ESE,112,0.0,0.0,98,0.00,,---,0.17,VWS V14.01,2013-01-25 13:38:00,
2013-01-25 05:40:00,44.8,44.2,29.79,ESE,112,0.0,0.0,98,0.00,,---,0.17,VWS V14.01,2013-01-25 13:40:00,
2013-01-25 05:41:00,44.8,44.2,29.79,SE,135,0.0,0.0,98,0.00,,---,0.17,VWS V14.01,2013-01-25 13:41:00,
2013-01-25 05:42:00,44.8,44.2,29.79,SSE,158,0.0,0.0,98,0.00,,---,0.17,VWS V14.01,2013-01-25 13:42:00,
2013-01-25 05:43:00,44.8,44.2,29.79,SSE,158,0.0,0.0,98,0.00,,---,0.17,VWS V14.01,2013-01-25 13:43:00,
2013-01-25 05:45:00,44.8,44.2,29.79,SE,135,0.0,0.0,98,0.00,,---,0.17,VWS V14.01,2013-01-25 13:45:00,
2013-01-25 05:47:00,45.0,44.4,29.79,ESE,112,1.3,1.3,98,0.00,,---,0.17,VWS V14.01,2013-01-25 13:47:00,
2013-01-25 05:48:00,45.0,44.4,29.79,ESE,112,0.0,1.3,98,0.00,,---,0.17,VWS V14.01,2013-01-25 13:48:00,
2013-01-25 05:49:00,45.0,44.4,29.79,SSE,158,0.0,0.9,98,0.00,,---,0.17,VWS V14.01,2013-01-25 13:49:00,
2013-01-25 05:50:00,45.0,44.4,29.79,SSE,158,0.0,0.0,98,0.00,,---,0.17,VWS V14.01,2013-01-25 13:50:00,
2013-01-25 05:52:00,45.0,44.4,29.79,SW,225,0.0,0.0,98,0.00,,---,0.17,VWS V14.01,2013-01-25 13:52:00,
2013-01-25 05:55:00,45.0,44.4,29.79,ESE,112,0.0,0.0,98,0.00,,---,0.17,VWS V14.01,2013-01-25 13:55:00,
2013-01-25 05:56:00,45.0,44.4,29.79,ESE,112,0.0,0.0,98,0.00,,---,0.17,VWS V14.01,2013-01-25 13:56:00,
2013-01-25 05:57:00,45.0,44.4,29.79,ESE,112,0.0,0.0,98,0.00,,---,0.17,VWS V14.01,2013-01-25 13:57:00,
2013-01-25 05:58:00,45.0,44.4,29.79,ESE,112,0.0,0.0,98,0.00,,---,0.17,VWS V14.01,2013-01-25 13:58:00,
2013-01-25 05:59:00,45.0,44.4,29.79,ESE,112,0.9,0.9,98,0.00,,---,0.17,VWS V14.01,2013-01-25 13:59:00,
2013-01-25 06:01:00,45.0,44.4,29.79,ESE,112,0.0,0.0,98,0.00,,---,0.17,VWS V14.01,2013-01-25 14:01:00,
2013-01-25 06:02:00,45.0,44.4,29.79,SSE,158,0.0,0.0,98,0.00,,---,0.17,VWS V14.01,2013-01-25 14:02:00,
2013-01-25 06:04:00,45.0,44.4,29.79,SE,135,0.0,0.0,98,0.00,,---,0.17,VWS V14.01,2013-01-25 14:04:00,
2013-01-25 06:07:00,45.0,44.4,29.79,SE,135,0.0,0.9,98,0.00,,---,0.17,VWS V14.01,2013-01-25 14:07:00,
2013-01-25 06:08:00,45.0,44.4,29.79,SE,135,0.0,0.9,98,0.00,,---,0.17,VWS V14.01,2013-01-25 14:08:00,
2013-01-25 06:09:00,45.0,44.4,29.79,SE,135,0.0,0.0,98,0.00,,---,0.17,VWS V14.01,2013-01-25 14:09:00,
2013-01-25 06:10:00,45.0,44.4,29.79,SE,135,0.0,0.0,98,0.00,,---,0.17,VWS V14.01,2013-01-25 14:10:00,
2013-01-25 06:11:00,45.0,44.4,29.79,SE,135,0.0,0.0,98,0.00,,---,0.17,VWS V14.01,2013-01-25 14:11:00,
2013-01-25 06:12:00,45.0,44.4,29.79,SE,135,0.0,1.1,98,0.00,,---,0.17,VWS V14.01,2013-01-25 14:12:00,
2013-01-25 06:13:00,45.0,44.4,29.79,SE,135,0.9,1.1,98,0.00,,---,0.17,VWS V14.01,2013-01-25 14:13:00,
2013-01-25 06:14:00,45.1,44.6,29.79,SSW,202,1.6,1.6,98,0.00,,---,0.17,VWS V14.01,2013-01-25 14:14:00,
2013-01-25 06:15:00,45.1,44.6,29.79,SSW,202,0.0,2.7,98,0.00,,---,0.17,VWS V14.01,2013-01-25 14:15:00,
2013-01-25 06:17:00,45.1,44.6,29.79,SSE,158,2.0,2.0,98,0.00,,---,0.17,VWS V14.01,2013-01-25 14:17:00,
2013-01-25 06:18:00,45.1,44.6,29.79,SSE,158,2.0,2.0,98,0.00,,---,0.17,VWS V14.01,2013-01-25 14:18:00,
2013-01-25 06:19:00,45.3,44.8,29.79,South,180,0.0,2.0,98,0.00,,---,0.17,VWS V14.01,2013-01-25 14:19:00,
2013-01-25 06:20:00,45.3,44.8,29.79,ESE,112,0.0,0.0,98,0.00,,---,0.17,VWS V14.01,2013-01-25 14:20:00,
2013-01-25 06:22:00,45.3,44.8,29.79,SSE,158,2.2,2.2,98,0.00,,---,0.17,VWS V14.01,2013-01-25 14:22:00,
2013-01-25 06:23:00,45.3,44.8,29.79,SSE,158,2.2,2.2,98,0.00,,---,0.17,VWS V14.01,2013-01-25 14:23:00,
2013-01-25 06:24:00,45.3,44.8,29.79,SSE,158,0.0,2.2,98,0.00,,---,0.17,VWS V14.01,2013-01-25 14:24:00,
2013-01-25 06:25:00,45.3,44.8,29.79,ESE,112,0.0,0.9,98,0.00,,---,0.17,VWS V14.01,2013-01-25 14:25:00,
2013-01-25 06:27:00,45.3,44.8,29.79,SSE,158,0.0,0.0,98,0.00,,---,0.17,VWS V14.01,2013-01-25 14:27:00,
2013-01-25 06:28:00,45.3,44.8,29.79,SSE,158,0.0,0.0,98,0.00,,---,0.17,VWS V14.01,2013-01-25 14:28:00,
2013-01-25 06:29:00,45.3,44.8,29.79,SSE,158,0.0,0.0,98,0.00,,---,0.17,VWS V14.01,2013-01-25 14:29:00,
2013-01-25 06:30:00,45.3,44.8,29.79,SSE,158,0.0,0.0,98,0.00,,---,0.17,VWS V14.01,2013-01-25 14:30:00,
2013-01-25 06:31:00,45.3,44.8,29.79,South,180,0.0,2.0,98,0.00,,---,0.17,VWS V14.01,2013-01-25 14:31:00,
2013-01-25 06:32:00,45.3,44.8,29.79,SSE,158,1.1,2.2,98,0.00,,---,0.17,VWS V14.01,2013-01-25 14:32:00,
2013-01-25 06:33:00,45.3,44.8,29.79,SSE,158,1.1,2.2,98,0.00,,---,0.17,VWS V14.01,2013-01-25 14:33:00,
2013-01-25 06:34:00,45.3,44.8,29.79,South,180,2.0,2.0,98,0.00,,---,0.17,VWS V14.01,2013-01-25 14:34:00,
2013-01-25 06:35:00,45.3,44.8,29.79,ESE,112,0.0,2.0,98,0.00,,---,0.17,VWS V14.01,2013-01-25 14:35:00,
2013-01-25 06:36:00,45.5,45.0,29.79,SE,135,0.0,0.0,98,0.00,,---,0.17,VWS V14.01,2013-01-25 14:36:00,
2013-01-25 06:37:00,45.5,45.0,29.79,ESE,112,0.0,0.9,98,0.00,,---,0.17,VWS V14.01,2013-01-25 14:37:00,
2013-01-25 06:38:00,45.5,45.0,29.79,ESE,112,0.0,0.9,98,0.00,,---,0.17,VWS V14.01,2013-01-25 14:38:00,
2013-01-25 06:39:00,45.5,45.0,29.79,ESE,112,0.0,0.0,98,0.00,,---,0.17,VWS V14.01,2013-01-25 14:39:00,
2013-01-25 06:41:00,45.5,45.0,29.79,ESE,112,0.0,0.0,98,0.00,,---,0.17,VWS V14.01,2013-01-25 14:41:00,
2013-01-25 06:42:00,45.5,45.0,29.79,SSW,202,1.6,2.0,98,0.00,,---,0.17,VWS V14.01,2013-01-25 14:42:00,
2013-01-25 06:43:00,45.5,45.0,29.79,SSW,202,0.9,2.0,98,0.00,,---,0.17,VWS V14.01,2013-01-25 14:43:00,
2013-01-25 06:44:00,45.5,45.0,29.79,ESE,112,1.1,1.1,98,0.00,,---,0.17,VWS V14.01,2013-01-25 14:44:00,
2013-01-25 06:45:00,45.5,45.0,29.79,SSE,158,0.0,1.1,98,0.00,,---,0.17,VWS V14.01,2013-01-25 14:45:00,
2013-01-25 06:47:00,45.5,45.0,29.79,ESE,112,0.0,0.9,98,0.00,,---,0.17,VWS V14.01,2013-01-25 14:47:00,
2013-01-25 06:48:00,45.5,45.0,29.79,ESE,112,0.0,0.9,98,0.00,,---,0.17,VWS V14.01,2013-01-25 14:48:00,
2013-01-25 06:49:00,45.5,45.0,29.79,SSE,158,2.0,2.0,98,0.00,,---,0.17,VWS V14.01,2013-01-25 14:49:00,
2013-01-25 06:50:00,45.5,45.0,29.79,SE,135,0.0,2.0,98,0.00,,---,0.17,VWS V14.01,2013-01-25 14:50:00,
2013-01-25 06:51:00,45.5,45.0,29.79,SSE,158,0.9,2.7,98,0.00,,---,0.17,VWS V14.01,2013-01-25 14:51:00,
2013-01-25 06:52:00,45.5,45.0,29.79,SSE,158,1.1,2.0,98,0.00,,---,0.17,VWS V14.01,2013-01-25 14:52:00,
2013-01-25 06:53:00,45.5,45.0,29.79,SSE,158,0.9,2.0,98,0.00,,---,0.17,VWS V14.01,2013-01-25 14:53:00,
2013-01-25 06:54:00,45.5,45.0,29.79,SSE,158,0.0,0.9,98,0.00,,---,0.17,VWS V14.01,2013-01-25 14:54:00,
2013-01-25 06:55:00,45.5,45.0,29.79,East,90,0.0,1.3,98,0.00,,---,0.17,VWS V14.01,2013-01-25 14:55:00,
2013-01-25 06:56:00,45.5,45.0,29.79,ENE,68,2.0,2.7,98,0.00,,---,0.17,VWS V14.01,2013-01-25 14:56:00,
2013-01-25 06:57:00,45.5,45.0,29.79,SSW,202,0.0,2.0,98,0.00,,---,0.17,VWS V14.01,2013-01-25 14:57:00,
2013-01-25 06:58:00,45.5,45.0,29.79,SSW,202,0.0,2.0,98,0.00,,---,0.17,VWS V14.01,2013-01-25 14:58:00,
2013-01-25 06:59:00,45.5,45.0,29.79,ESE,112,0.0,1.6,98,0.00,,---,0.17,VWS V14.01,2013-01-25 14:59:00,
2013-01-25 07:00:00,45.5,45.0,29.79,SSE,158,0.0,1.1,98,0.00,,---,0.17,VWS V14.01,2013-01-25 15:00:00,
2013-01-25 07:01:00,45.5,45.0,29.79,SSE,158,0.0,0.0,98,0.00,,---,0.17,VWS V14.01,2013-01-25 15:01:00,
2013-01-25 07:02:00,45.5,45.0,29.79,ESE,112,0.0,2.0,98,0.00,,---,0.17,VWS V14.01,2013-01-25 15:02:00,
2013-01-25 07:03:00,45.5,45.0,29.79,ESE,112,0.0,2.0,98,0.00,,---,0.17,VWS V14.01,2013-01-25 15:03:00,
2013-01-25 07:04:00,45.5,45.0,29.79,SSE,158,0.0,2.0,98,0.00,,---,0.17,VWS V14.01,2013-01-25 15:04:00,
2013-01-25 07:05:00,45.5,45.0,29.79,South,180,0.0,0.9,98,0.00,,---,0.17,VWS V14.01,2013-01-25 15:05:00,
2013-01-25 07:06:00,45.5,45.0,29.79,SSE,158,1.3,1.3,98,0.00,,---,0.17,VWS V14.01,2013-01-25 15:06:00,
2013-01-25 07:07:00,45.5,45.0,29.79,South,180,0.0,2.5,98,0.00,,---,0.17,VWS V14.01,2013-01-25 15:07:00,
2013-01-25 07:08:00,45.5,45.0,29.79,South,180,0.0,2.5,98,0.00,,---,0.17,VWS V14.01,2013-01-25 15:08:00,
2013-01-25 07:09:00,45.5,45.0,29.79,SSE,158,0.0,0.0,98,0.00,,---,0.17,VWS V14.01,2013-01-25 15:09:00,
2013-01-25 07:10:00,45.5,45.0,29.79,ESE,112,0.0,0.0,98,0.00,,---,0.17,VWS V14.01,2013-01-25 15:10:00,
2013-01-25 07:11:00,45.5,45.0,29.79,SSE,158,0.0,0.0,98,0.00,,---,0.17,VWS V14.01,2013-01-25 15:11:00,
2013-01-25 07:12:00,45.3,44.8,29.79,SSE,158,0.0,1.1,98,0.00,,---,0.17,VWS V14.01,2013-01-25 15:12:00,
2013-01-25 07:13:00,45.3,44.8,29.79,SSE,158,0.0,1.1,98,0.00,,---,0.17,VWS V14.01,2013-01-25 15:13:00,
2013-01-25 07:14:00,45.3,44.8,29.79,SSE,158,0.0,0.0,98,0.00,,---,0.17,VWS V14.01,2013-01-25 15:14:00,
2013-01-25 07:15:00,45.3,44.8,29.79,SSE,158,1.1,1.1,98,0.00,,---,0.17,VWS V14.01,2013-01-25 15:15:00,
2013-01-25 07:16:00,45.3,44.8,29.79,ESE,112,2.5,2.7,98,0.00,,---,0.17,VWS V14.01,2013-01-25 15:16:00,
2013-01-25 07:17:00,45.3,44.8,29.79,SE,135,0.0,0.0,98,0.00,,---,0.17,VWS V14.01,2013-01-25 15:17:00,
2013-01-25 07:18:00,45.3,44.8,29.79,SSE,158,0.9,0.9,98,0.00,,---,0.17,VWS V14.01,2013-01-25 15:18:00,
2013-01-25 07:19:00,45.3,44.8,29.79,SSE,158,0.0,2.2,98,0.00,,---,0.17,VWS V14.01,2013-01-25 15:19:00,
2013-01-25 07:20:00,45.3,44.8,29.79,SSE,158,0.0,0.0,98,0.00,,---,0.17,VWS V14.01,2013-01-25 15:20:00,
2013-01-25 07:21:00,45.3,44.8,29.79,ESE,112,0.0,0.0,98,0.00,,---,0.17,VWS V14.01,2013-01-25 15:21:00,
2013-01-25 07:22:00,45.3,44.8,29.79,SSE,158,2.5,2.5,98,0.00,,---,0.17,VWS V14.01,2013-01-25 15:22:00,
2013-01-25 07:23:00,45.3,44.8,29.79,SSE,158,1.6,2.5,98,0.00,,---,0.17,VWS V14.01,2013-01-25 15:23:00,
2013-01-25 07:24:00,45.3,44.8,29.79,SSE,158,0.0,1.6,98,0.00,,---,0.17,VWS V14.01,2013-01-25 15:24:00,
2013-01-25 07:25:00,45.3,44.8,29.79,ESE,112,0.9,0.9,98,0.00,,---,0.17,VWS V14.01,2013-01-25 15:25:00,
2013-01-25 07:27:00,45.1,44.6,29.79,ESE,112,0.0,0.0,98,0.00,,---,0.17,VWS V14.01,2013-01-25 15:27:00,
2013-01-25 07:29:00,45.1,44.6,29.79,ESE,112,0.0,0.0,98,0.00,,---,0.17,VWS V14.01,2013-01-25 15:29:00,
2013-01-25 07:30:00,45.1,44.6,29.79,East,90,0.9,0.9,98,0.00,,---,0.17,VWS V14.01,2013-01-25 15:30:00,
2013-01-25 07:31:00,45.1,44.6,29.79,ESE,112,0.0,1.3,98,0.00,,---,0.17,VWS V14.01,2013-01-25 15:31:00,
2013-01-25 07:32:00,45.1,44.6,29.79,ESE,112,0.0,0.0,98,0.00,,---,0.17,VWS V14.01,2013-01-25 15:32:00,
2013-01-25 07:33:00,45.1,44.6,29.79,ESE,112,0.0,0.0,98,0.00,,---,0.17,VWS V14.01,2013-01-25 15:33:00,
2013-01-25 07:34:00,45.1,44.6,29.79,ENE,68,0.0,1.3,98,0.00,,---,0.17,VWS V14.01,2013-01-25 15:34:00,
2013-01-25 07:35:00,45.1,44.6,29.79,ENE,68,0.0,0.0,98,0.00,,---,0.17,VWS V14.01,2013-01-25 15:35:00,
2013-01-25 07:36:00,45.1,44.6,29.79,East,90,0.0,0.0,98,0.00,,---,0.17,VWS V14.01,2013-01-25 15:36:00,
2013-01-25 07:37:00,45.1,44.6,29.82,ENE,68,0.0,1.6,98,0.00,,---,0.17,VWS V14.01,2013-01-25 15:37:00,
2013-01-25 07:38:00,45.1,44.6,29.82,ENE,68,0.0,1.6,98,0.00,,---,0.17,VWS V14.01,2013-01-25 15:38:00,
2013-01-25 07:39:00,45.1,44.6,29.82,ENE,68,0.0,0.0,98,0.00,,---,0.17,VWS V14.01,2013-01-25 15:39:00,
2013-01-25 07:40:00,45.1,44.6,29.82,ENE,68,0.0,0.0,98,0.00,,---,0.17,VWS V14.01,2013-01-25 15:40:00,
2013-01-25 07:41:00,45.1,44.6,29.82,ENE,68,0.0,0.0,98,0.00,,---,0.17,VWS V14.01,2013-01-25 15:41:00,
2013-01-25 07:42:00,45.1,44.6,29.82,NNE,22,0.0,0.0,98,0.00,,---,0.17,VWS V14.01,2013-01-25 15:42:00,
2013-01-25 07:43:00,45.1,44.6,29.82,NNE,22,0.0,0.0,98,0.00,,---,0.17,VWS V14.01,2013-01-25 15:43:00,
2013-01-25 07:44:00,45.1,44.6,29.82,NNE,22,0.0,1.1,98,0.00,,---,0.17,VWS V14.01,2013-01-25 15:44:00,
2013-01-25 07:45:00,45.0,44.4,29.82,NNE,22,0.0,0.0,98,0.00,,---,0.17,VWS V14.01,2013-01-25 15:45:00,
2013-01-25 07:46:00,45.0,44.4,29.82,NNE,22,0.0,0.0,98,0.00,,---,0.17,VWS V14.01,2013-01-25 15:46:00,
2013-01-25 07:47:00,45.0,44.4,29.82,NNE,22,0.0,0.0,98,0.00,,---,0.17,VWS V14.01,2013-01-25 15:47:00,
2013-01-25 07:48:00,45.0,44.4,29.82,NNE,22,0.0,0.0,98,0.00,,---,0.17,VWS V14.01,2013-01-25 15:48:00,
2013-01-25 07:49:00,45.0,44.4,29.82,NNE,22,1.3,1.3,98,0.00,,---,0.17,VWS V14.01,2013-01-25 15:49:00,
2013-01-25 07:50:00,45.0,44.4,29.82,NNE,22,0.0,1.3,98,0.00,,---,0.17,VWS V14.01,2013-01-25 15:50:00,
2013-01-25 07:51:00,45.0,44.4,29.82,ENE,68,0.0,0.0,98,0.00,,---,0.17,VWS V14.01,2013-01-25 15:51:00,
2013-01-25 07:52:00,44.8,44.2,29.82,ENE,68,0.0,0.0,98,0.00,,---,0.17,VWS V14.01,2013-01-25 15:52:00,
2013-01-25 07:53:00,44.8,44.2,29.82,ENE,68,0.0,0.0,98,0.00,,---,0.17,VWS V14.01,2013-01-25 15:53:00,
2013-01-25 07:54:00,44.8,44.2,29.82,ENE,68,0.9,0.9,98,0.00,,---,0.17,VWS V14.01,2013-01-25 15:54:00,
2013-01-25 07:55:00,44.8,44.2,29.82,ENE,68,0.0,1.1,98,0.00,,---,0.17,VWS V14.01,2013-01-25 15:55:00,
2013-01-25 07:56:00,44.8,44.2,29.82,ENE,68,0.0,0.0,98,0.00,,---,0.17,VWS V14.01,2013-01-25 15:56:00,
2013-01-25 07:57:00,44.6,44.1,29.82,ENE,68,0.0,0.0,98,0.00,,---,0.17,VWS V14.01,2013-01-25 15:57:00,
2013-01-25 07:58:00,44.6,44.1,29.82,ENE,68,0.0,0.0,98,0.00,,---,0.17,VWS V14.01,2013-01-25 15:58:00,
2013-01-25 07:59:00,44.6,44.1,29.82,ENE,68,0.0,0.0,98,0.00,,---,0.17,VWS V14.01,2013-01-25 15:59:00,
2013-01-25 08:00:00,44.6,44.1,29.82,ENE,68,1.3,1.3,98,0.00,,---,0.17,VWS V14.01,2013-01-25 16:00:00,
2013-01-25 08:01:00,44.6,44.1,29.82,ENE,68,0.0,1.3,98,0.00,,---,0.17,VWS V14.01,2013-01-25 16:01:00,
2013-01-25 08:02:00,44.4,43.9,29.82,ENE,68,0.0,0.0,98,0.00,,---,0.17,VWS V14.01,2013-01-25 16:02:00,
2013-01-25 08:03:00,44.4,43.9,29.82,ENE,68,0.0,0.0,98,0.00,,---,0.17,VWS V14.01,2013-01-25 16:03:00,
2013-01-25 08:04:00,44.4,43.9,29.82,ENE,68,0.0,0.0,98,0.00,,---,0.17,VWS V14.01,2013-01-25 16:04:00,
2013-01-25 08:05:00,44.4,43.9,29.82,ENE,68,0.0,0.0,98,0.00,,---,0.17,VWS V14.01,2013-01-25 16:05:00,
2013-01-25 08:06:00,44.4,43.9,29.82,ENE,68,0.0,0.0,98,0.00,,---,0.17,VWS V14.01,2013-01-25 16:06:00,
2013-01-25 08:07:00,44.4,43.9,29.82,NNE,22,1.6,2.5,98,0.00,,---,0.17,VWS V14.01,2013-01-25 16:07:00,
2013-01-25 08:08:00,44.4,43.9,29.82,NNE,22,1.6,2.5,98,0.00,,---,0.17,VWS V14.01,2013-01-25 16:08:00,
2013-01-25 08:09:00,44.4,43.9,29.82,NNE,22,0.0,1.6,98,0.00,,---,0.17,VWS V14.01,2013-01-25 16:09:00,
2013-01-25 08:10:00,44.2,43.7,29.82,NNE,22,0.0,0.0,98,0.00,,---,0.17,VWS V14.01,2013-01-25 16:10:00,
2013-01-25 08:11:00,44.2,43.7,29.82,ENE,68,0.0,0.0,98,0.00,,---,0.17,VWS V14.01,2013-01-25 16:11:00,
2013-01-25 08:12:00,44.4,43.9,29.82,East,90,1.6,1.6,98,0.00,,---,0.17,VWS V14.01,2013-01-25 16:12:00,
2013-01-25 08:13:00,44.4,43.9,29.82,East,90,1.6,1.6,98,0.00,,---,0.17,VWS V14.01,2013-01-25 16:13:00,
2013-01-25 08:14:00,44.4,43.9,29.82,ESE,112,0.0,1.6,98,0.00,,---,0.17,VWS V14.01,2013-01-25 16:14:00,
2013-01-25 08:15:00,44.4,43.9,29.82,ESE,112,0.9,0.9,98,0.00,,---,0.17,VWS V14.01,2013-01-25 16:15:00,
2013-01-25 08:16:00,44.6,44.1,29.82,ESE,112,0.0,1.1,98,0.00,,---,0.17,VWS V14.01,2013-01-25 16:16:00,
2013-01-25 08:17:00,44.6,44.1,29.82,NNE,22,0.9,1.6,98,0.00,,---,0.17,VWS V14.01,2013-01-25 16:17:00,
2013-01-25 08:18:00,44.6,44.1,29.82,NNE,22,0.9,1.6,98,0.00,,---,0.17,VWS V14.01,2013-01-25 16:18:00,
2013-01-25 08:19:00,44.6,44.1,29.82,NNE,22,0.0,0.9,98,0.00,,---,0.17,VWS V14.01,2013-01-25 16:19:00,
2013-01-25 08:20:00,44.6,44.1,29.82,NNE,22,0.0,0.9,98,0.00,,---,0.17,VWS V14.01,2013-01-25 16:20:00,
2013-01-25 08:21:00,44.6,44.1,29.82,NNE,22,0.0,0.0,98,0.00,,---,0.17,VWS V14.01,2013-01-25 16:21:00,
2013-01-25 08:22:00,44.6,44.1,29.82,NE,45,2.2,2.2,98,0.00,,---,0.17,VWS V14.01,2013-01-25 16:22:00,
2013-01-25 08:23:00,44.6,44.1,29.82,NE,45,2.2,2.2,98,0.00,,---,0.17,VWS V14.01,2013-01-25 16:23:00,
2013-01-25 08:24:00,44.6,44.1,29.82,NE,45,0.0,2.2,98,0.00,,---,0.17,VWS V14.01,2013-01-25 16:24:00,
2013-01-25 08:25:00,44.6,44.1,29.82,NE,45,0.0,1.1,98,0.00,,---,0.17,VWS V14.01,2013-01-25 16:25:00,
2013-01-25 08:26:00,44.6,44.1,29.82,ENE,68,0.9,1.1,98,0.00,,---,0.17,VWS V14.01,2013-01-25 16:26:00,
2013-01-25 08:27:00,44.6,44.1,29.82,ENE,68,0.9,1.6,98,0.00,,---,0.17,VWS V14.01,2013-01-25 16:27:00,
2013-01-25 08:28:00,44.6,44.1,29.82,East,90,0.0,1.6,98,0.00,,---,0.17,VWS V14.01,2013-01-25 16:28:00,
2013-01-25 08:29:00,44.6,44.1,29.82,East,90,0.0,0.0,98,0.00,,---,0.17,VWS V14.01,2013-01-25 16:29:00,
2013-01-25 08:30:00,44.6,44.1,29.82,East,90,0.0,0.0,98,0.00,,---,0.17,VWS V14.01,2013-01-25 16:30:00,
2013-01-25 08:31:00,44.6,44.1,29.82,East,90,1.1,1.1,98,0.00,,---,0.17,VWS V14.01,2013-01-25 16:31:00,
2013-01-25 08:32:00,44.8,44.2,29.82,ESE,112,0.0,0.0,98,0.00,,---,0.17,VWS V14.01,2013-01-25 16:32:00,
2013-01-25 08:33:00,44.8,44.2,29.82,ESE,112,0.0,1.1,98,0.00,,---,0.17,VWS V14.01,2013-01-25 16:33:00,
2013-01-25 08:34:00,44.8,44.2,29.82,SE,135,0.0,0.0,98,0.00,,---,0.17,VWS V14.01,2013-01-25 16:34:00,
2013-01-25 08:35:00,44.8,44.2,29.82,ENE,68,1.1,1.1,98,0.00,,---,0.17,VWS V14.01,2013-01-25 16:35:00,
2013-01-25 08:36:00,44.8,44.2,29.82,ENE,68,0.0,1.3,98,0.00,,---,0.17,VWS V14.01,2013-01-25 16:36:00,
2013-01-25 08:37:00,44.8,44.2,29.79,ENE,68,2.0,2.0,98,0.00,,---,0.17,VWS V14.01,2013-01-25 16:37:00,
2013-01-25 08:39:00,44.8,44.2,29.79,ENE,68,0.9,2.0,98,0.00,,---,0.17,VWS V14.01,2013-01-25 16:39:00,
2013-01-25 08:40:00,44.8,44.2,29.79,NE,45,0.0,0.9,98,0.00,,---,0.17,VWS V14.01,2013-01-25 16:40:00,
2013-01-25 08:42:00,44.8,44.2,29.79,NE,45,0.0,0.0,98,0.00,,---,0.17,VWS V14.01,2013-01-25 16:42:00,
2013-01-25 08:43:00,44.8,44.2,29.79,NE,45,0.0,0.0,98,0.00,,---,0.17,VWS V14.01,2013-01-25 16:43:00,
2013-01-25 08:44:00,44.8,44.2,29.79,NNE,22,2.5,2.5,98,0.00,,---,0.17,VWS V14.01,2013-01-25 16:44:00,
2013-01-25 08:46:00,44.8,44.2,29.79,NNE,22,0.0,0.9,98,0.00,,---,0.17,VWS V14.01,2013-01-25 16:46:00,
2013-01-25 08:47:00,44.8,44.2,29.79,NNE,22,0.9,0.9,98,0.00,,---,0.17,VWS V14.01,2013-01-25 16:47:00,
2013-01-25 08:49:00,44.8,44.2,29.79,NNE,22,0.0,0.9,98,0.00,,---,0.17,VWS V14.01,2013-01-25 16:49:00,
2013-01-25 08:50:00,44.8,44.2,29.79,NNE,22,0.0,0.0,98,0.00,,---,0.17,VWS V14.01,2013-01-25 16:50:00,
2013-01-25 08:51:00,44.8,44.2,29.79,NNE,22,0.0,0.0,98,0.00,,---,0.17,VWS V14.01,2013-01-25 16:51:00,
2013-01-25 08:52:00,44.8,44.2,29.79,NNE,22,0.0,0.0,98,0.00,,---,0.17,VWS V14.01,2013-01-25 16:52:00,
2013-01-25 08:53:00,44.8,44.2,29.79,NNE,22,0.0,0.0,98,0.00,,---,0.17,VWS V14.01,2013-01-25 16:53:00,
2013-01-25 08:54:00,44.8,44.2,29.79,ENE,68,0.0,0.0,98,0.00,,---,0.17,VWS V14.01,2013-01-25 16:54:00,
2013-01-25 08:55:00,44.8,44.2,29.79,ENE,68,0.0,0.0,98,0.00,,---,0.17,VWS V14.01,2013-01-25 16:55:00,
2013-01-25 08:56:00,44.8,44.2,29.79,ENE,68,0.0,0.0,98,0.00,,---,0.17,VWS V14.01,2013-01-25 16:56:00,
2013-01-25 08:57:00,44.8,44.2,29.79,ENE,68,0.0,0.0,98,0.00,,---,0.17,VWS V14.01,2013-01-25 16:57:00,
2013-01-25 08:58:00,44.8,44.2,29.79,ENE,68,0.0,0.0,98,0.00,,---,0.17,VWS V14.01,2013-01-25 16:58:00,
2013-01-25 08:59:00,44.8,44.2,29.79,ENE,68,0.0,0.0,98,0.00,,---,0.17,VWS V14.01,2013-01-25 16:59:00,
2013-01-25 09:00:00,44.8,44.2,29.79,ENE,68,0.0,0.0,98,0.00,,---,0.17,VWS V14.01,2013-01-25 17:00:00,
2013-01-25 09:01:00,45.0,44.4,29.79,ESE,112,0.0,0.0,98,0.00,,---,0.17,VWS V14.01,2013-01-25 17:01:00,
2013-01-25 09:02:00,45.0,44.4,29.79,ESE,112,0.0,0.0,98,0.00,,---,0.17,VWS V14.01,2013-01-25 17:02:00,
2013-01-25 09:03:00,45.0,44.4,29.79,ESE,112,0.0,0.0,98,0.00,,---,0.17,VWS V14.01,2013-01-25 17:03:00,
2013-01-25 09:04:00,45.0,44.4,29.79,ESE,112,0.0,0.0,98,0.00,,---,0.17,VWS V14.01,2013-01-25 17:04:00,
2013-01-25 09:05:00,45.0,44.4,29.79,ESE,112,0.0,0.0,98,0.00,,---,0.17,VWS V14.01,2013-01-25 17:05:00,
2013-01-25 09:06:00,45.0,44.4,29.79,East,90,0.0,0.0,98,0.00,,---,0.17,VWS V14.01,2013-01-25 17:06:00,
2013-01-25 09:07:00,45.0,44.4,29.82,ENE,68,0.0,0.0,98,0.00,,---,0.17,VWS V14.01,2013-01-25 17:07:00,
2013-01-25 09:08:00,45.0,44.4,29.82,ENE,68,0.0,0.0,98,0.00,,---,0.17,VWS V14.01,2013-01-25 17:08:00,
2013-01-25 09:09:00,45.0,44.4,29.82,SE,135,0.0,0.0,98,0.00,,---,0.17,VWS V14.01,2013-01-25 17:09:00,
2013-01-25 09:10:00,45.0,44.4,29.82,SSE,158,0.9,0.9,98,0.00,,---,0.17,VWS V14.01,2013-01-25 17:10:00,
2013-01-25 09:11:00,45.1,44.6,29.82,SSE,158,0.0,0.9,98,0.00,,---,0.17,VWS V14.01,2013-01-25 17:11:00,
2013-01-25 09:12:00,45.1,44.6,29.82,SSE,158,0.0,0.0,98,0.00,,---,0.17,VWS V14.01,2013-01-25 17:12:00,
2013-01-25 09:13:00,45.1,44.6,29.82,SSE,158,0.0,0.0,98,0.00,,---,2.41,VWS V14.01,2013-01-25 17:13:00,
2013-01-25 09:14:00,45.1,44.6,29.82,SSE,158,0.0,0.0,98,0.00,,---,2.41,VWS V14.01,2013-01-25 17:14:00,
2013-01-25 09:15:00,45.3,44.8,29.82,SSE,158,0.0,0.0,98,0.00,,---,2.41,VWS V14.01,2013-01-25 17:15:00,
2013-01-25 09:17:00,45.5,45.0,29.82,SSE,158,0.0,0.0,98,0.00,,---,2.41,VWS V14.01,2013-01-25 17:17:00,
2013-01-25 09:18:00,45.5,45.0,29.82,SSE,158,0.0,0.0,98,0.00,,---,2.41,VWS V14.01,2013-01-25 17:18:00,
2013-01-25 09:19:00,45.5,45.0,29.82,SSE,158,0.0,0.0,98,0.00,,---,2.41,VWS V14.01,2013-01-25 17:19:00,
2013-01-25 09:20:00,45.5,45.0,29.82,SSE,158,0.0,0.0,98,0.00,,---,2.41,VWS V14.01,2013-01-25 17:20:00,
2013-01-25 09:21:00,45.5,45.0,29.82,SSE,158,0.0,0.0,98,0.00,,---,2.41,VWS V14.01,2013-01-25 17:21:00,
2013-01-25 09:22:00,45.5,45.0,29.82,SSE,158,0.0,0.0,98,0.00,,---,2.41,VWS V14.01,2013-01-25 17:22:00,
2013-01-25 09:23:00,45.5,45.0,29.82,SSE,158,0.0,0.0,98,0.00,,---,2.41,VWS V14.01,2013-01-25 17:23:00,
2013-01-25 09:24:00,45.5,45.0,29.82,SSE,158,0.0,0.0,98,0.00,,---,2.41,VWS V14.01,2013-01-25 17:24:00,
2013-01-25 09:26:00,45.7,45.2,29.82,SSE,158,0.0,0.0,98,0.00,,---,2.41,VWS V14.01,2013-01-25 17:26:00,
2013-01-25 09:27:00,45.7,45.2,29.82,WSW,248,1.6,1.6,98,0.00,,---,2.41,VWS V14.01,2013-01-25 17:27:00,
2013-01-25 09:29:00,45.9,45.3,29.82,WSW,248,0.0,2.0,98,0.00,,---,2.41,VWS V14.01,2013-01-25 17:29:00,
2013-01-25 09:30:00,45.9,45.3,29.82,WSW,248,0.0,0.0,98,0.00,,---,2.41,VWS V14.01,2013-01-25 17:30:00,
2013-01-25 09:31:00,45.9,45.3,29.82,WSW,248,0.0,0.0,98,0.00,,---,2.41,VWS V14.01,2013-01-25 17:31:00,
2013-01-25 09:32:00,45.9,45.3,29.82,WSW,248,0.0,0.0,98,0.00,,---,2.41,VWS V14.01,2013-01-25 17:32:00,
2013-01-25 09:33:00,45.9,45.3,29.82,WSW,248,0.0,0.0,98,0.00,,---,2.41,VWS V14.01,2013-01-25 17:33:00,
2013-01-25 09:34:00,45.9,45.3,29.82,WSW,248,0.0,0.0,98,0.00,,---,2.41,VWS V14.01,2013-01-25 17:34:00,
2013-01-25 09:35:00,45.9,45.3,29.82,WSW,248,0.0,0.0,98,0.00,,---,2.41,VWS V14.01,2013-01-25 17:35:00,
2013-01-25 09:36:00,45.9,45.3,29.82,WSW,248,0.0,0.0,98,0.00,,---,2.41,VWS V14.01,2013-01-25 17:36:00,
2013-01-25 09:37:00,46.0,45.5,29.82,West,270,0.0,0.0,98,0.00,,---,2.41,VWS V14.01,2013-01-25 17:37:00,
2013-01-25 09:38:00,46.0,45.5,29.82,West,270,0.0,0.0,98,0.00,,---,2.41,VWS V14.01,2013-01-25 17:38:00,
2013-01-25 09:39:00,46.0,45.5,29.82,West,270,0.0,0.0,98,0.00,,---,2.41,VWS V14.01,2013-01-25 17:39:00,
2013-01-25 09:40:00,46.0,45.5,29.82,WNW,292,0.0,0.0,98,0.00,,---,2.41,VWS V14.01,2013-01-25 17:40:00,
2013-01-25 09:41:00,46.0,45.5,29.82,WNW,292,0.0,0.0,98,0.00,,---,2.41,VWS V14.01,2013-01-25 17:41:00,
2013-01-25 09:42:00,46.0,45.5,29.82,WNW,292,0.0,0.0,98,0.00,,---,2.41,VWS V14.01,2013-01-25 17:42:00,
2013-01-25 09:44:00,46.0,45.5,29.82,WNW,292,0.0,0.0,98,0.00,,---,2.41,VWS V14.01,2013-01-25 17:44:00,
2013-01-25 09:45:00,46.0,45.5,29.82,WNW,292,0.0,0.0,98,0.00,,---,2.41,VWS V14.01,2013-01-25 17:45:00,
2013-01-25 09:46:00,46.0,45.5,29.82,WNW,292,0.0,0.0,98,0.00,,---,2.41,VWS V14.01,2013-01-25 17:46:00,
2013-01-25 09:47:00,46.2,45.7,29.82,WNW,292,0.0,0.0,98,0.00,,---,2.41,VWS V14.01,2013-01-25 17:47:00,
2013-01-25 09:48:00,46.2,45.7,29.82,WNW,292,0.0,0.0,98,0.00,,---,2.41,VWS V14.01,2013-01-25 17:48:00,
2013-01-25 09:49:00,46.2,45.7,29.82,WNW,292,0.0,0.0,98,0.00,,---,2.41,VWS V14.01,2013-01-25 17:49:00,
2013-01-25 09:50:00,46.2,45.7,29.82,WNW,292,0.0,0.0,98,0.00,,---,2.41,VWS V14.01,2013-01-25 17:50:00,
2013-01-25 09:51:00,46.4,45.9,29.82,WNW,292,0.0,0.0,98,0.00,,---,2.41,VWS V14.01,2013-01-25 17:51:00,
2013-01-25 09:52:00,46.4,45.9,29.82,WNW,292,0.0,0.0,98,0.00,,---,2.41,VWS V14.01,2013-01-25 17:52:00,
2013-01-25 09:53:00,46.4,45.9,29.82,WNW,292,0.0,0.0,98,0.00,,---,2.41,VWS V14.01,2013-01-25 17:53:00,
2013-01-25 09:54:00,46.4,45.9,29.82,West,270,0.0,1.3,98,0.00,,---,2.41,VWS V14.01,2013-01-25 17:54:00,
2013-01-25 09:55:00,46.4,45.9,29.82,West,270,0.0,0.0,98,0.00,,---,2.41,VWS V14.01,2013-01-25 17:55:00,
2013-01-25 09:56:00,46.4,45.9,29.82,West,270,0.0,0.0,98,0.00,,---,2.41,VWS V14.01,2013-01-25 17:56:00,
2013-01-25 09:57:00,46.4,45.9,29.82,NNE,22,0.0,0.9,98,0.00,,---,2.41,VWS V14.01,2013-01-25 17:57:00,
2013-01-25 09:58:00,46.4,45.9,29.82,NNE,22,0.0,0.9,98,0.00,,---,2.41,VWS V14.01,2013-01-25 17:58:00,
2013-01-25 09:59:00,46.2,45.7,29.82,NNE,22,0.0,0.0,98,0.00,,---,2.41,VWS V14.01,2013-01-25 17:59:00,
2013-01-25 10:00:00,46.2,45.7,29.82,NNE,22,0.0,0.0,98,0.00,,---,2.41,VWS V14.01,2013-01-25 18:00:00,
2013-01-25 10:01:00,46.2,45.7,29.82,NNE,22,0.0,0.0,98,0.00,,---,2.41,VWS V14.01,2013-01-25 18:01:00,
2013-01-25 10:02:00,46.4,45.9,29.82,NNE,22,0.0,0.0,98,0.00,,---,2.41,VWS V14.01,2013-01-25 18:02:00,
2013-01-25 10:03:00,46.4,45.9,29.82,NNE,22,0.0,0.0,98,0.00,,---,2.41,VWS V14.01,2013-01-25 18:03:00,
2013-01-25 10:04:00,46.4,45.9,29.82,NNE,22,0.9,0.9,98,0.00,,---,2.41,VWS V14.01,2013-01-25 18:04:00,
2013-01-25 10:05:00,46.4,45.9,29.82,NNE,22,0.0,0.9,98,0.00,,---,2.41,VWS V14.01,2013-01-25 18:05:00,
2013-01-25 10:06:00,46.4,45.9,29.82,NNW,338,0.0,0.0,98,0.00,,---,2.41,VWS V14.01,2013-01-25 18:06:00,
2013-01-25 10:07:00,46.6,46.0,29.82,NNW,338,0.0,0.0,98,0.00,,---,2.41,VWS V14.01,2013-01-25 18:07:00,
2013-01-25 10:08:00,46.6,46.0,29.82,NNW,338,0.0,0.0,98,0.00,,---,2.41,VWS V14.01,2013-01-25 18:08:00,
2013-01-25 10:09:00,46.8,46.2,29.82,NNW,338,0.0,0.0,98,0.00,,---,2.41,VWS V14.01,2013-01-25 18:09:00,
2013-01-25 10:10:00,46.8,46.2,29.82,NNW,338,0.0,0.0,98,0.00,,---,2.41,VWS V14.01,2013-01-25 18:10:00,
2013-01-25 10:11:00,46.8,46.2,29.82,NNW,338,0.0,0.0,98,0.00,,---,2.41,VWS V14.01,2013-01-25 18:11:00,
2013-01-25 10:12:00,46.9,46.4,29.82,NNW,338,0.0,0.0,98,0.00,,---,2.41,VWS V14.01,2013-01-25 18:12:00,
2013-01-25 10:13:00,46.9,46.4,29.82,NNW,338,0.0,0.0,98,0.00,,---,2.41,VWS V14.01,2013-01-25 18:13:00,
2013-01-25 10:14:00,47.1,46.6,29.82,NNW,338,0.0,0.0,98,0.00,,---,2.41,VWS V14.01,2013-01-25 18:14:00,
2013-01-25 10:15:00,47.1,46.6,29.82,NNW,338,0.0,0.0,98,0.00,,---,2.41,VWS V14.01,2013-01-25 18:15:00,
2013-01-25 10:16:00,47.1,46.6,29.82,NNW,338,0.0,0.0,98,0.00,,---,2.41,VWS V14.01,2013-01-25 18:16:00,
2013-01-25 10:17:00,47.3,46.8,29.82,NNW,338,0.0,0.0,98,0.00,,---,2.41,VWS V14.01,2013-01-25 18:17:00,
2013-01-25 10:18:00,47.3,46.8,29.82,NNW,338,0.0,0.0,98,0.00,,---,2.41,VWS V14.01,2013-01-25 18:18:00,
2013-01-25 10:19:00,47.5,47.0,29.82,NNW,338,0.0,0.0,98,0.00,,---,2.41,VWS V14.01,2013-01-25 18:19:00,
2013-01-25 10:20:00,47.5,47.0,29.82,NW,315,0.0,0.0,98,0.00,,---,2.41,VWS V14.01,2013-01-25 18:20:00,
2013-01-25 10:21:00,47.5,47.0,29.82,NW,315,0.0,0.0,98,0.00,,---,2.41,VWS V14.01,2013-01-25 18:21:00,
2013-01-25 10:22:00,47.7,47.1,29.82,WSW,248,0.0,0.0,98,0.00,,---,2.41,VWS V14.01,2013-01-25 18:22:00,
2013-01-25 10:23:00,47.7,47.1,29.82,WSW,248,0.0,0.0,98,0.00,,---,2.41,VWS V14.01,2013-01-25 18:23:00,
2013-01-25 10:24:00,47.7,47.1,29.82,WSW,248,0.0,0.0,98,0.00,,---,2.41,VWS V14.01,2013-01-25 18:24:00,
2013-01-25 10:25:00,47.8,47.3,29.82,WSW,248,0.0,0.0,98,0.00,,---,2.41,VWS V14.01,2013-01-25 18:25:00,
2013-01-25 10:26:00,47.8,47.3,29.82,WSW,248,0.0,0.0,98,0.00,,---,2.41,VWS V14.01,2013-01-25 18:26:00,
2013-01-25 10:27:00,47.7,47.1,29.82,North,0,0.9,1.1,98,0.00,,---,2.41,VWS V14.01,2013-01-25 18:27:00,
2013-01-25 10:28:00,47.7,47.1,29.82,North,0,0.9,1.1,98,0.00,,---,2.41,VWS V14.01,2013-01-25 18:28:00,
2013-01-25 10:30:00,47.7,47.1,29.82,North,0,0.0,0.0,98,0.00,,---,2.41,VWS V14.01,2013-01-25 18:30:00,
2013-01-25 10:31:00,47.7,47.1,29.82,North,0,0.0,0.0,98,0.00,,---,2.41,VWS V14.01,2013-01-25 18:31:00,
2013-01-25 10:32:00,47.8,47.3,29.82,SE,135,0.0,0.0,98,0.00,,---,2.41,VWS V14.01,2013-01-25 18:32:00,
2013-01-25 10:33:00,47.8,47.3,29.82,SE,135,0.0,0.0,98,0.00,,---,2.41,VWS V14.01,2013-01-25 18:33:00,
2013-01-25 10:34:00,47.8,47.3,29.82,SE,135,0.0,0.0,98,0.00,,---,2.41,VWS V14.01,2013-01-25 18:34:00,
2013-01-25 10:35:00,47.8,47.3,29.82,SE,135,0.0,0.0,98,0.00,,---,2.41,VWS V14.01,2013-01-25 18:35:00,
2013-01-25 10:36:00,48.0,47.5,29.82,SE,135,0.0,0.0,98,0.00,,---,2.41,VWS V14.01,2013-01-25 18:36:00,
2013-01-25 10:37:00,48.0,47.5,29.82,SE,135,0.0,0.0,98,0.00,,---,2.41,VWS V14.01,2013-01-25 18:37:00,
2013-01-25 10:38:00,48.0,47.5,29.82,SE,135,0.0,0.0,98,0.00,,---,2.41,VWS V14.01,2013-01-25 18:38:00,
2013-01-25 10:39:00,48.0,47.5,29.82,SSE,158,0.0,0.0,98,0.00,,---,2.41,VWS V14.01,2013-01-25 18:39:00,
2013-01-25 10:40:00,48.2,47.7,29.82,SSE,158,0.0,0.0,98,0.00,,---,2.41,VWS V14.01,2013-01-25 18:40:00,
2013-01-25 10:41:00,48.2,47.7,29.82,SSE,158,0.0,0.0,98,0.00,,---,2.41,VWS V14.01,2013-01-25 18:41:00,
2013-01-25 10:42:00,48.4,47.8,29.82,SSW,202,0.0,0.0,98,0.00,,---,2.41,VWS V14.01,2013-01-25 18:42:00,
2013-01-25 10:43:00,48.4,47.8,29.82,SSW,202,0.0,0.0,98,0.00,,---,2.41,VWS V14.01,2013-01-25 18:43:00,
2013-01-25 10:44:00,48.4,47.8,29.82,SSW,202,0.0,0.0,98,0.00,,---,2.41,VWS V14.01,2013-01-25 18:44:00,
2013-01-25 10:45:00,48.4,47.8,29.82,WSW,248,2.0,2.0,98,0.00,,---,2.41,VWS V14.01,2013-01-25 18:45:00,
2013-01-25 10:46:00,48.4,47.8,29.82,WSW,248,0.0,2.0,98,0.00,,---,2.41,VWS V14.01,2013-01-25 18:46:00,
2013-01-25 10:47:00,48.4,47.8,29.82,WSW,248,0.0,1.6,98,0.00,,---,2.41,VWS V14.01,2013-01-25 18:47:00,
2013-01-25 10:48:00,48.4,47.8,29.82,WSW,248,0.0,1.6,98,0.00,,---,2.41,VWS V14.01,2013-01-25 18:48:00,
2013-01-25 10:49:00,48.4,47.8,29.82,WSW,248,0.0,0.0,98,0.00,,---,2.41,VWS V14.01,2013-01-25 18:49:00,
2013-01-25 10:50:00,48.4,47.8,29.82,WSW,248,0.0,0.0,98,0.00,,---,2.41,VWS V14.01,2013-01-25 18:50:00,
2013-01-25 10:51:00,48.6,48.0,29.82,WSW,248,0.0,0.0,98,0.00,,---,2.41,VWS V14.01,2013-01-25 18:51:00,
2013-01-25 10:52:00,48.6,48.0,29.82,WSW,248,0.0,0.0,98,0.00,,---,2.41,VWS V14.01,2013-01-25 18:52:00,
2013-01-25 10:53:00,48.6,48.0,29.82,WSW,248,0.0,0.0,98,0.00,,---,2.41,VWS V14.01,2013-01-25 18:53:00,
2013-01-25 10:54:00,48.6,48.0,29.82,WSW,248,0.0,0.0,98,0.00,,---,2.41,VWS V14.01,2013-01-25 18:54:00,
2013-01-25 10:55:00,48.6,48.0,29.82,WSW,248,0.0,0.0,98,0.00,,---,2.41,VWS V14.01,2013-01-25 18:55:00,
2013-01-25 10:56:00,48.6,48.0,29.82,WSW,248,0.0,0.0,98,0.00,,---,2.41,VWS V14.01,2013-01-25 18:56:00,
2013-01-25 10:57:00,48.6,48.0,29.82,WSW,248,0.0,0.0,98,0.00,,---,2.41,VWS V14.01,2013-01-25 18:57:00,
2013-01-25 10:58:00,48.6,48.0,29.82,WSW,248,0.0,0.0,98,0.00,,---,2.41,VWS V14.01,2013-01-25 18:58:00,
2013-01-25 10:59:00,48.6,48.0,29.82,WSW,248,0.0,0.0,98,0.00,,---,2.41,VWS V14.01,2013-01-25 18:59:00,
2013-01-25 11:00:00,48.6,48.0,29.82,WSW,248,0.0,0.0,98,0.00,,---,2.41,VWS V14.01,2013-01-25 19:00:00,
2013-01-25 11:01:00,48.6,48.0,29.82,WSW,248,0.0,0.0,98,0.00,,---,2.41,VWS V14.01,2013-01-25 19:01:00,
2013-01-25 11:02:00,48.7,48.2,29.82,WSW,248,0.0,0.0,98,0.00,,---,2.41,VWS V14.01,2013-01-25 19:02:00,
2013-01-25 11:03:00,48.7,48.2,29.82,WSW,248,0.0,0.0,98,0.00,,---,2.41,VWS V14.01,2013-01-25 19:03:00,
2013-01-25 11:04:00,48.7,48.2,29.82,WSW,248,0.0,0.0,98,0.00,,---,2.41,VWS V14.01,2013-01-25 19:04:00,
2013-01-25 11:05:00,48.7,48.2,29.82,WSW,248,0.0,0.0,98,0.00,,---,2.41,VWS V14.01,2013-01-25 19:05:00,
2013-01-25 11:06:00,48.7,48.2,29.82,WSW,248,0.0,0.9,98,0.00,,---,2.41,VWS V14.01,2013-01-25 19:06:00,
2013-01-25 11:07:00,48.9,48.4,29.79,WSW,248,1.6,2.0,98,0.00,,---,2.41,VWS V14.01,2013-01-25 19:07:00,
2013-01-25 11:08:00,48.9,48.4,29.79,WSW,248,1.1,2.0,98,0.00,,---,2.41,VWS V14.01,2013-01-25 19:08:00,
2013-01-25 11:09:00,48.7,48.2,29.79,WSW,248,0.0,1.1,98,0.00,,---,2.41,VWS V14.01,2013-01-25 19:09:00,
2013-01-25 11:10:00,48.9,48.4,29.79,WSW,248,0.0,0.0,98,0.00,,---,2.41,VWS V14.01,2013-01-25 19:10:00,
2013-01-25 11:11:00,48.9,48.4,29.79,WSW,248,0.0,0.0,98,0.00,,---,2.41,VWS V14.01,2013-01-25 19:11:00,
2013-01-25 11:12:00,48.9,48.4,29.79,WSW,248,0.0,0.0,98,0.00,,---,2.41,VWS V14.01,2013-01-25 19:12:00,
2013-01-25 11:13:00,48.9,48.4,29.79,WSW,248,0.0,0.0,98,0.00,,---,2.41,VWS V14.01,2013-01-25 19:13:00,
2013-01-25 11:14:00,48.9,48.4,29.79,WSW,248,2.2,2.2,98,0.00,,---,2.41,VWS V14.01,2013-01-25 19:14:00,
2013-01-25 11:15:00,48.9,48.4,29.79,WSW,248,0.0,2.2,98,0.00,,---,2.41,VWS V14.01,2013-01-25 19:15:00,
2013-01-25 11:16:00,48.9,48.4,29.79,WSW,248,0.0,0.0,98,0.00,,---,2.41,VWS V14.01,2013-01-25 19:16:00,
2013-01-25 11:17:00,48.7,48.2,29.79,WSW,248,0.0,0.0,98,0.00,,---,2.41,VWS V14.01,2013-01-25 19:17:00,
2013-01-25 11:18:00,48.7,48.2,29.79,WSW,248,0.0,0.0,98,0.00,,---,2.41,VWS V14.01,2013-01-25 19:18:00,
2013-01-25 11:19:00,48.7,48.2,29.79,WSW,248,0.0,0.0,98,0.00,,---,2.41,VWS V14.01,2013-01-25 19:19:00,
2013-01-25 11:20:00,48.6,48.0,29.79,WSW,248,0.0,0.0,98,0.00,,---,2.41,VWS V14.01,2013-01-25 19:20:00,
2013-01-25 11:21:00,48.6,48.0,29.79,WSW,248,0.0,0.0,98,0.00,,---,2.41,VWS V14.01,2013-01-25 19:21:00,
2013-01-25 11:22:00,48.6,48.0,29.82,WSW,248,0.0,0.0,98,0.00,,---,2.41,VWS V14.01,2013-01-25 19:22:00,
2013-01-25 11:23:00,48.6,48.0,29.82,WSW,248,0.0,0.0,98,0.00,,---,2.41,VWS V14.01,2013-01-25 19:23:00,
2013-01-25 11:24:00,48.4,47.8,29.82,WSW,248,1.6,1.6,98,0.00,,---,2.41,VWS V14.01,2013-01-25 19:24:00,
2013-01-25 11:25:00,48.4,47.8,29.82,WSW,248,0.0,1.6,98,0.00,,---,2.41,VWS V14.01,2013-01-25 19:25:00,
2013-01-25 11:26:00,48.4,47.8,29.82,WSW,248,0.0,0.0,98,0.00,,---,2.41,VWS V14.01,2013-01-25 19:26:00,
2013-01-25 11:27:00,48.4,47.8,29.82,WSW,248,0.0,0.9,98,0.00,,---,2.41,VWS V14.01,2013-01-25 19:27:00,
2013-01-25 11:28:00,48.4,47.8,29.82,WSW,248,0.0,0.9,98,0.00,,---,2.41,VWS V14.01,2013-01-25 19:28:00,
2013-01-25 11:29:00,48.4,47.8,29.82,WSW,248,0.0,1.3,98,0.00,,---,2.41,VWS V14.01,2013-01-25 19:29:00,
2013-01-25 11:30:00,48.4,47.8,29.82,WSW,248,0.0,0.0,98,0.00,,---,2.41,VWS V14.01,2013-01-25 19:30:00,
2013-01-25 11:31:00,48.4,47.8,29.82,WSW,248,0.0,0.0,98,0.00,,---,2.41,VWS V14.01,2013-01-25 19:31:00,
2013-01-25 11:32:00,48.4,47.8,29.82,WSW,248,1.3,1.3,98,0.00,,---,2.41,VWS V14.01,2013-01-25 19:32:00,
2013-01-25 11:33:00,48.4,47.8,29.82,WSW,248,1.1,1.3,98,0.00,,---,2.41,VWS V14.01,2013-01-25 19:33:00,
2013-01-25 11:34:00,48.4,47.8,29.82,WSW,248,0.0,1.3,98,0.00,,---,2.41,VWS V14.01,2013-01-25 19:34:00,
2013-01-25 11:35:00,48.4,47.8,29.82,WSW,248,0.0,0.0,98,0.00,,---,2.41,VWS V14.01,2013-01-25 19:35:00,
2013-01-25 11:36:00,48.4,47.8,29.82,SW,225,0.0,0.0,98,0.00,,---,2.41,VWS V14.01,2013-01-25 19:36:00,
2013-01-25 11:37:00,48.4,47.8,29.82,SW,225,0.0,0.0,98,0.00,,---,2.41,VWS V14.01,2013-01-25 19:37:00,
2013-01-25 11:38:00,48.4,47.8,29.82,SW,225,0.0,0.0,98,0.00,,---,2.41,VWS V14.01,2013-01-25 19:38:00,
2013-01-25 11:39:00,48.6,48.0,29.82,SW,225,0.0,0.0,98,0.00,,---,2.41,VWS V14.01,2013-01-25 19:39:00,
2013-01-25 11:40:00,48.6,48.0,29.82,SW,225,0.0,0.0,98,0.00,,---,2.41,VWS V14.01,2013-01-25 19:40:00,
2013-01-25 11:41:00,48.6,48.0,29.82,SW,225,0.0,0.0,98,0.00,,---,2.41,VWS V14.01,2013-01-25 19:41:00,
2013-01-25 11:42:00,48.6,48.0,29.82,SW,225,0.0,0.0,98,0.00,,---,2.41,VWS V14.01,2013-01-25 19:42:00,
2013-01-25 11:43:00,48.6,48.0,29.82,SW,225,0.0,0.0,98,0.00,,---,2.41,VWS V14.01,2013-01-25 19:43:00,
2013-01-25 11:44:00,48.7,48.2,29.82,SW,225,0.0,0.0,98,0.00,,---,2.41,VWS V14.01,2013-01-25 19:44:00,
2013-01-25 11:45:00,48.7,48.2,29.82,SW,225,0.0,0.0,98,0.00,,---,2.41,VWS V14.01,2013-01-25 19:45:00,
2013-01-25 11:46:00,48.7,48.2,29.82,WSW,248,0.0,0.9,98,0.00,,---,2.41,VWS V14.01,2013-01-25 19:46:00,
2013-01-25 11:47:00,48.7,48.2,29.82,WSW,248,0.0,0.9,98,0.00,,---,2.41,VWS V14.01,2013-01-25 19:47:00,
2013-01-25 11:48:00,48.7,48.2,29.82,WSW,248,0.0,0.9,98,0.00,,---,2.41,VWS V14.01,2013-01-25 19:48:00,
2013-01-25 11:49:00,48.7,48.2,29.82,WSW,248,0.0,0.0,98,0.00,,---,2.41,VWS V14.01,2013-01-25 19:49:00,
2013-01-25 11:50:00,48.7,48.2,29.82,WSW,248,0.0,0.0,98,0.00,,---,2.41,VWS V14.01,2013-01-25 19:50:00,
2013-01-25 11:52:00,48.9,48.4,29.79,WSW,248,0.0,0.0,98,0.00,,---,2.41,VWS V14.01,2013-01-25 19:52:00,
2013-01-25 11:54:00,48.9,48.4,29.79,WSW,248,0.0,0.0,98,0.00,,---,2.41,VWS V14.01,2013-01-25 19:54:00,
2013-01-25 11:55:00,48.9,48.4,29.79,WSW,248,0.0,0.0,98,0.00,,---,2.41,VWS V14.01,2013-01-25 19:55:00,
2013-01-25 11:56:00,48.9,48.4,29.79,WSW,248,0.0,0.0,98,0.00,,---,2.41,VWS V14.01,2013-01-25 19:56:00,
2013-01-25 11:57:00,49.1,48.6,29.79,WSW,248,0.0,0.0,98,0.00,,---,2.41,VWS V14.01,2013-01-25 19:57:00,
2013-01-25 11:58:00,49.1,48.6,29.79,WSW,248,0.0,0.0,98,0.00,,---,2.41,VWS V14.01,2013-01-25 19:58:00,
2013-01-25 11:59:00,49.1,48.6,29.79,WSW,248,0.0,0.0,98,0.00,,---,2.41,VWS V14.01,2013-01-25 19:59:00,
2013-01-25 12:00:00,49.1,48.6,29.79,WSW,248,0.0,1.1,98,0.00,,---,2.41,VWS V14.01,2013-01-25 20:00:00,
2013-01-25 12:01:00,49.1,48.6,29.79,West,270,0.0,0.0,98,0.00,,---,2.41,VWS V14.01,2013-01-25 20:01:00,
2013-01-25 12:02:00,48.9,48.4,29.79,WNW,292,0.0,1.3,98,0.00,,---,2.41,VWS V14.01,2013-01-25 20:02:00,
2013-01-25 12:03:00,48.9,48.4,29.79,WNW,292,0.0,1.3,98,0.00,,---,2.41,VWS V14.01,2013-01-25 20:03:00,
2013-01-25 12:04:00,49.1,48.6,29.79,WNW,292,0.0,0.0,98,0.00,,---,2.41,VWS V14.01,2013-01-25 20:04:00,
2013-01-25 12:05:00,49.1,48.6,29.79,WNW,292,0.0,0.0,98,0.00,,---,2.41,VWS V14.01,2013-01-25 20:05:00,
2013-01-25 12:06:00,49.1,48.6,29.79,WNW,292,0.0,0.0,98,0.00,,---,2.41,VWS V14.01,2013-01-25 20:06:00,
2013-01-25 12:07:00,49.3,48.7,29.79,WNW,292,0.0,0.0,98,0.00,,---,2.41,VWS V14.01,2013-01-25 20:07:00,
2013-01-25 12:08:00,49.3,48.7,29.79,WNW,292,0.0,0.0,98,0.00,,---,2.41,VWS V14.01,2013-01-25 20:08:00,
2013-01-25 12:09:00,49.5,48.9,29.79,WNW,292,0.0,0.0,98,0.00,,---,2.41,VWS V14.01,2013-01-25 20:09:00,
2013-01-25 12:10:00,49.5,48.9,29.79,WNW,292,0.0,0.0,98,0.00,,---,2.41,VWS V14.01,2013-01-25 20:10:00,
2013-01-25 12:11:00,49.6,49.1,29.79,West,270,0.0,0.0,98,0.00,,---,2.41,VWS V14.01,2013-01-25 20:11:00,
2013-01-25 12:12:00,49.8,49.3,29.79,WSW,248,0.0,0.0,98,0.00,,---,2.41,VWS V14.01,2013-01-25 20:12:00,
2013-01-25 12:13:00,49.8,49.3,29.79,WSW,248,0.0,0.0,98,0.00,,---,2.41,VWS V14.01,2013-01-25 20:13:00,
2013-01-25 12:14:00,49.8,49.3,29.79,SSW,202,0.0,0.0,98,0.00,,---,2.41,VWS V14.01,2013-01-25 20:14:00,
2013-01-25 12:15:00,49.8,49.3,29.79,SSW,202,0.0,0.0,98,0.00,,---,2.41,VWS V14.01,2013-01-25 20:15:00,
2013-01-25 12:16:00,49.8,49.3,29.79,SSW,202,0.0,0.0,98,0.00,,---,2.41,VWS V14.01,2013-01-25 20:16:00,
2013-01-25 12:17:00,50.0,49.5,29.79,SE,135,0.0,0.0,98,0.00,,---,2.41,VWS V14.01,2013-01-25 20:17:00,
2013-01-25 12:18:00,50.0,49.5,29.79,ESE,112,1.3,1.3,98,0.00,,---,2.41,VWS V14.01,2013-01-25 20:18:00,
2013-01-25 12:19:00,50.0,49.5,29.79,East,90,0.0,1.3,98,0.00,,---,2.41,VWS V14.01,2013-01-25 20:19:00,
2013-01-25 12:20:00,50.0,49.5,29.79,NE,45,1.3,1.3,98,0.00,,---,2.41,VWS V14.01,2013-01-25 20:20:00,
2013-01-25 12:21:00,50.0,49.5,29.79,NE,45,0.0,1.3,98,0.00,,---,2.41,VWS V14.01,2013-01-25 20:21:00,
2013-01-25 12:22:00,50.0,49.5,29.82,NNE,22,0.0,1.1,98,0.00,,---,2.41,VWS V14.01,2013-01-25 20:22:00,
2013-01-25 12:23:00,50.0,49.5,29.82,NNE,22,0.0,1.1,98,0.00,,---,2.41,VWS V14.01,2013-01-25 20:23:00,
2013-01-25 12:24:00,49.8,49.3,29.82,NNE,22,0.0,0.0,98,0.00,,---,2.41,VWS V14.01,2013-01-25 20:24:00,
2013-01-25 12:25:00,49.8,49.3,29.82,NNE,22,0.0,0.0,98,0.00,,---,2.41,VWS V14.01,2013-01-25 20:25:00,
2013-01-25 12:26:00,49.8,49.3,29.82,NNE,22,0.0,0.0,98,0.00,,---,2.41,VWS V14.01,2013-01-25 20:26:00,
2013-01-25 12:27:00,50.0,49.5,29.82,NE,45,0.0,0.0,98,0.00,,---,2.41,VWS V14.01,2013-01-25 20:27:00,
2013-01-25 12:28:00,50.0,49.5,29.82,NE,45,0.0,0.0,98,0.00,,---,2.41,VWS V14.01,2013-01-25 20:28:00,
2013-01-25 12:29:00,50.0,49.5,29.82,ESE,112,0.0,1.1,98,0.00,,---,2.41,VWS V14.01,2013-01-25 20:29:00,
2013-01-25 12:30:00,50.0,49.5,29.82,ESE,112,0.0,0.0,98,0.00,,---,2.41,VWS V14.01,2013-01-25 20:30:00,
2013-01-25 12:31:00,50.0,49.5,29.82,ENE,68,0.0,1.1,98,0.00,,---,2.41,VWS V14.01,2013-01-25 20:31:00,
2013-01-25 12:32:00,50.0,49.5,29.82,ENE,68,0.0,0.0,98,0.00,,---,2.41,VWS V14.01,2013-01-25 20:32:00,
2013-01-25 12:33:00,50.0,49.5,29.82,ENE,68,0.0,0.0,98,0.00,,---,2.41,VWS V14.01,2013-01-25 20:33:00,
2013-01-25 12:34:00,50.0,49.5,29.82,East,90,0.0,0.0,98,0.00,,---,2.41,VWS V14.01,2013-01-25 20:34:00,
2013-01-25 12:35:00,50.0,49.5,29.82,East,90,0.0,0.0,98,0.00,,---,2.41,VWS V14.01,2013-01-25 20:35:00,
2013-01-25 12:36:00,50.0,49.5,29.82,East,90,0.0,0.0,98,0.00,,---,2.41,VWS V14.01,2013-01-25 20:36:00,
2013-01-25 12:37:00,50.2,49.6,29.79,ESE,112,1.1,1.3,98,0.00,,---,2.41,VWS V14.01,2013-01-25 20:37:00,
2013-01-25 12:38:00,50.2,49.6,29.79,ESE,112,0.0,1.3,98,0.00,,---,2.41,VWS V14.01,2013-01-25 20:38:00,
2013-01-25 12:39:00,50.2,49.6,29.79,SE,135,0.0,0.0,98,0.00,,---,2.41,VWS V14.01,2013-01-25 20:39:00,
2013-01-25 12:42:00,50.2,49.6,29.79,ESE,112,0.0,0.9,98,0.00,,---,2.41,VWS V14.01,2013-01-25 20:42:00,
2013-01-25 12:43:00,50.2,49.6,29.79,SE,135,0.0,0.9,98,0.00,,---,2.41,VWS V14.01,2013-01-25 20:43:00,
2013-01-25 12:44:00,50.2,49.6,29.79,SE,135,0.0,1.1,98,0.00,,---,2.41,VWS V14.01,2013-01-25 20:44:00,
2013-01-25 12:45:00,50.4,49.8,29.79,SE,135,0.0,0.0,98,0.00,,---,2.41,VWS V14.01,2013-01-25 20:45:00,
2013-01-25 12:46:00,50.4,49.8,29.79,SE,135,0.0,0.0,98,0.00,,---,2.41,VWS V14.01,2013-01-25 20:46:00,
2013-01-25 12:47:00,50.5,50.0,29.79,SSW,202,0.9,1.1,98,0.00,,---,2.41,VWS V14.01,2013-01-25 20:47:00,
2013-01-25 12:48:00,50.5,50.0,29.79,SSW,202,0.0,1.1,98,0.00,,---,2.41,VWS V14.01,2013-01-25 20:48:00,
2013-01-25 12:49:00,50.7,50.2,29.79,SSW,202,0.9,1.1,98,0.00,,---,2.41,VWS V14.01,2013-01-25 20:49:00,
2013-01-25 12:50:00,50.7,50.2,29.79,SW,225,0.9,1.6,98,0.00,,---,2.41,VWS V14.01,2013-01-25 20:50:00,
2013-01-25 12:51:00,50.7,50.2,29.79,SW,225,0.0,0.9,98,0.00,,---,2.41,VWS V14.01,2013-01-25 20:51:00,
2013-01-25 12:52:00,50.9,50.4,29.76,SW,225,0.0,0.0,98,0.00,,---,2.41,VWS V14.01,2013-01-25 20:52:00,
2013-01-25 12:53:00,50.9,50.4,29.76,SW,225,0.0,0.0,98,0.00,,---,2.41,VWS V14.01,2013-01-25 20:53:00,
2013-01-25 12:54:00,50.9,50.4,29.76,SW,225,0.0,0.0,98,0.00,,---,2.41,VWS V14.01,2013-01-25 20:54:00,
2013-01-25 12:55:00,50.9,50.4,29.76,SW,225,0.0,0.0,98,0.00,,---,2.41,VWS V14.01,2013-01-25 20:55:00,
2013-01-25 12:56:00,50.9,50.4,29.76,SW,225,0.0,0.0,98,0.00,,---,2.41,VWS V14.01,2013-01-25 20:56:00,
2013-01-25 12:57:00,50.9,50.4,29.76,SW,225,0.0,0.0,98,0.00,,---,2.41,VWS V14.01,2013-01-25 20:57:00,
2013-01-25 12:58:00,50.9,50.4,29.76,SW,225,0.0,0.0,98,0.00,,---,2.41,VWS V14.01,2013-01-25 20:58:00,
2013-01-25 13:00:00,50.9,50.4,29.76,WSW,248,0.0,0.0,98,0.00,,---,2.41,VWS V14.01,2013-01-25 21:00:00,
2013-01-25 13:01:00,50.7,50.2,29.76,SW,225,0.0,0.0,98,0.00,,---,2.41,VWS V14.01,2013-01-25 21:01:00,
2013-01-25 13:02:00,50.7,50.2,29.76,ESE,112,0.0,1.1,98,0.00,,---,2.41,VWS V14.01,2013-01-25 21:02:00,
2013-01-25 13:03:00,50.7,50.2,29.76,ESE,112,0.0,1.1,98,0.00,,---,2.41,VWS V14.01,2013-01-25 21:03:00,
2013-01-25 13:04:00,50.7,50.2,29.76,ESE,112,0.0,0.0,98,0.00,,---,2.41,VWS V14.01,2013-01-25 21:04:00,
2013-01-25 13:05:00,50.7,50.2,29.76,ESE,112,0.0,0.0,98,0.00,,---,2.41,VWS V14.01,2013-01-25 21:05:00,
2013-01-25 13:07:00,50.5,50.0,29.76,ESE,112,0.0,0.0,98,0.00,,---,2.41,VWS V14.01,2013-01-25 21:07:00,
2013-01-25 13:09:00,50.5,50.0,29.76,SE,135,0.0,0.0,98,0.00,,---,2.41,VWS V14.01,2013-01-25 21:09:00,
2013-01-25 13:10:00,50.5,50.0,29.76,SE,135,0.0,0.0,98,0.00,,---,2.41,VWS V14.01,2013-01-25 21:10:00,
2013-01-25 13:11:00,50.5,50.0,29.76,SSE,158,0.0,0.0,98,0.00,,---,2.41,VWS V14.01,2013-01-25 21:11:00,
2013-01-25 13:12:00,50.5,50.0,29.76,SSE,158,0.0,0.0,98,0.00,,---,2.41,VWS V14.01,2013-01-25 21:12:00,
2013-01-25 13:13:00,50.4,49.5,29.76,SSE,158,0.0,0.0,97,0.00,,---,2.41,VWS V14.01,2013-01-25 21:13:00,
2013-01-25 13:14:00,50.4,49.5,29.76,SSE,158,0.0,0.0,97,0.00,,---,2.41,VWS V14.01,2013-01-25 21:14:00,
2013-01-25 13:15:00,50.4,49.5,29.76,SSE,158,0.0,0.0,97,0.00,,---,2.41,VWS V14.01,2013-01-25 21:15:00,
2013-01-25 13:16:00,50.4,49.5,29.76,SSE,158,0.0,0.0,97,0.00,,---,2.41,VWS V14.01,2013-01-25 21:16:00,
2013-01-25 13:17:00,50.4,49.5,29.76,SSE,158,0.0,0.0,97,0.00,,---,2.41,VWS V14.01,2013-01-25 21:17:00,
2013-01-25 13:18:00,50.4,49.5,29.76,SSE,158,0.0,0.0,97,0.00,,---,2.41,VWS V14.01,2013-01-25 21:18:00,
2013-01-25 13:19:00,50.4,49.5,29.76,SSE,158,0.0,0.0,97,0.00,,---,2.41,VWS V14.01,2013-01-25 21:19:00,
2013-01-25 13:20:00,50.4,49.5,29.76,SSE,158,0.0,0.0,97,0.00,,---,2.41,VWS V14.01,2013-01-25 21:20:00,
2013-01-25 13:21:00,50.2,49.4,29.76,SSE,158,0.0,0.0,97,0.00,,---,2.41,VWS V14.01,2013-01-25 21:21:00,
2013-01-25 13:22:00,50.2,49.4,29.76,SSE,158,0.0,0.0,97,0.00,,---,2.41,VWS V14.01,2013-01-25 21:22:00,
2013-01-25 13:23:00,50.2,49.4,29.76,SSE,158,0.0,0.0,97,0.00,,---,2.41,VWS V14.01,2013-01-25 21:23:00,
2013-01-25 13:24:00,50.2,49.4,29.76,SSE,158,0.0,0.0,97,0.00,,---,2.41,VWS V14.01,2013-01-25 21:24:00,
2013-01-25 13:25:00,50.2,49.4,29.76,SSE,158,0.0,0.0,97,0.00,,---,2.41,VWS V14.01,2013-01-25 21:25:00,
2013-01-25 13:26:00,50.2,49.4,29.76,SSE,158,0.0,0.0,97,0.00,,---,2.41,VWS V14.01,2013-01-25 21:26:00,
2013-01-25 13:27:00,50.2,49.4,29.76,SSE,158,0.0,0.0,97,0.00,,---,2.41,VWS V14.01,2013-01-25 21:27:00,
2013-01-25 13:28:00,50.2,49.4,29.76,SSE,158,0.0,0.0,97,0.00,,---,2.41,VWS V14.01,2013-01-25 21:28:00,
2013-01-25 13:29:00,50.2,49.4,29.76,SE,135,0.0,0.0,97,0.00,,---,2.41,VWS V14.01,2013-01-25 21:29:00,
2013-01-25 13:30:00,50.4,49.5,29.76,ESE,112,0.0,0.0,97,0.00,,---,2.41,VWS V14.01,2013-01-25 21:30:00,
2013-01-25 13:31:00,50.4,49.5,29.76,ESE,112,0.0,0.0,97,0.00,,---,2.41,VWS V14.01,2013-01-25 21:31:00,
2013-01-25 13:32:00,50.4,49.5,29.76,SSE,158,0.0,0.0,97,0.00,,---,2.41,VWS V14.01,2013-01-25 21:32:00,
2013-01-25 13:33:00,50.4,49.5,29.76,South,180,0.0,0.0,97,0.00,,---,2.41,VWS V14.01,2013-01-25 21:33:00,
2013-01-25 13:34:00,50.2,49.4,29.76,SSW,202,0.0,0.9,97,0.00,,---,2.41,VWS V14.01,2013-01-25 21:34:00,
2013-01-25 13:35:00,50.2,49.4,29.76,SSW,202,0.0,0.0,97,0.00,,---,2.41,VWS V14.01,2013-01-25 21:35:00,
2013-01-25 13:36:00,50.2,49.4,29.76,SSW,202,0.0,0.0,97,0.00,,---,2.41,VWS V14.01,2013-01-25 21:36:00,
2013-01-25 13:37:00,50.2,49.4,29.76,South,180,0.0,1.6,97,0.00,,---,2.41,VWS V14.01,2013-01-25 21:37:00,
2013-01-25 13:38:00,50.2,49.4,29.76,South,180,0.0,1.6,97,0.00,,---,2.41,VWS V14.01,2013-01-25 21:38:00,
2013-01-25 13:39:00,50.2,49.4,29.76,South,180,0.0,0.0,97,0.00,,---,2.41,VWS V14.01,2013-01-25 21:39:00,
2013-01-25 13:40:00,50.2,49.1,29.76,South,180,0.0,0.0,96,0.00,,---,2.41,VWS V14.01,2013-01-25 21:40:00,
2013-01-25 13:41:00,50.2,49.4,29.76,South,180,0.0,0.0,97,0.00,,---,2.41,VWS V14.01,2013-01-25 21:41:00,
2013-01-25 13:42:00,50.2,49.4,29.76,SSW,202,0.0,0.0,97,0.00,,---,2.41,VWS V14.01,2013-01-25 21:42:00,
2013-01-25 13:43:00,50.2,49.4,29.76,SSW,202,0.0,0.0,97,0.00,,---,2.41,VWS V14.01,2013-01-25 21:43:00,
2013-01-25 13:44:00,50.2,49.4,29.76,SSW,202,0.0,0.0,97,0.00,,---,2.41,VWS V14.01,2013-01-25 21:44:00,
2013-01-25 13:45:00,50.2,49.1,29.76,SSW,202,0.0,0.0,96,0.00,,---,2.41,VWS V14.01,2013-01-25 21:45:00,
2013-01-25 13:46:00,50.4,49.3,29.76,SSW,202,0.0,0.0,96,0.00,,---,2.41,VWS V14.01,2013-01-25 21:46:00,
2013-01-25 13:47:00,50.4,49.3,29.76,East,90,0.0,0.0,96,0.00,,---,2.41,VWS V14.01,2013-01-25 21:47:00,
2013-01-25 13:48:00,50.4,49.3,29.76,East,90,1.1,1.1,96,0.00,,---,2.41,VWS V14.01,2013-01-25 21:48:00,
2013-01-25 13:49:00,50.4,49.3,29.76,ENE,68,0.0,1.1,96,0.00,,---,2.41,VWS V14.01,2013-01-25 21:49:00,
2013-01-25 13:50:00,50.4,49.3,29.76,ENE,68,0.0,0.0,96,0.00,,---,2.41,VWS V14.01,2013-01-25 21:50:00,
2013-01-25 13:51:00,50.4,49.3,29.76,ESE,112,0.0,0.0,96,0.00,,---,2.41,VWS V14.01,2013-01-25 21:51:00,
2013-01-25 13:52:00,50.4,49.3,29.74,East,90,0.0,0.0,96,0.00,,---,2.41,VWS V14.01,2013-01-25 21:52:00,
2013-01-25 13:53:00,50.4,49.3,29.74,East,90,0.0,0.0,96,0.00,,---,2.41,VWS V14.01,2013-01-25 21:53:00,
2013-01-25 13:54:00,50.2,48.8,29.74,East,90,0.0,0.0,95,0.00,,---,2.41,VWS V14.01,2013-01-25 21:54:00,
2013-01-25 13:55:00,50.2,48.8,29.74,East,90,0.0,0.0,95,0.00,,---,2.41,VWS V14.01,2013-01-25 21:55:00,
2013-01-25 13:56:00,50.0,48.6,29.74,SSE,158,0.0,0.0,95,0.00,,---,2.41,VWS V14.01,2013-01-25 21:56:00,
2013-01-25 13:57:00,50.0,48.6,29.74,WSW,248,1.1,2.0,95,0.00,,---,2.41,VWS V14.01,2013-01-25 21:57:00,
2013-01-25 13:58:00,50.0,48.6,29.74,WSW,248,1.1,2.0,95,0.00,,---,2.41,VWS V14.01,2013-01-25 21:58:00,
2013-01-25 13:59:00,50.0,48.6,29.74,WSW,248,1.1,1.1,95,0.00,,---,2.41,VWS V14.01,2013-01-25 21:59:00,
2013-01-25 14:00:00,50.0,48.6,29.74,WSW,248,0.0,1.1,95,0.00,,---,2.41,VWS V14.01,2013-01-25 22:00:00,
2013-01-25 14:01:00,49.8,48.7,29.74,WSW,248,0.0,0.0,96,0.00,,---,2.41,VWS V14.01,2013-01-25 22:01:00,
2013-01-25 14:02:00,49.8,48.7,29.74,WSW,248,0.0,0.0,96,0.00,,---,2.41,VWS V14.01,2013-01-25 22:02:00,
2013-01-25 14:03:00,49.8,48.7,29.74,WSW,248,0.0,0.0,96,0.00,,---,2.41,VWS V14.01,2013-01-25 22:03:00,
2013-01-25 14:04:00,49.8,48.7,29.74,WSW,248,0.0,0.0,96,0.00,,---,2.41,VWS V14.01,2013-01-25 22:04:00,
2013-01-25 14:05:00,49.8,48.7,29.74,WSW,248,0.0,0.0,96,0.00,,---,2.41,VWS V14.01,2013-01-25 22:05:00,
2013-01-25 14:06:00,49.8,48.7,29.74,WSW,248,1.1,1.1,96,0.00,,---,2.41,VWS V14.01,2013-01-25 22:06:00,
2013-01-25 14:07:00,49.8,48.7,29.71,WSW,248,0.0,0.0,96,0.00,,---,2.41,VWS V14.01,2013-01-25 22:07:00,
2013-01-25 14:08:00,49.8,48.7,29.71,WSW,248,0.0,0.0,96,0.00,,---,2.41,VWS V14.01,2013-01-25 22:08:00,
2013-01-25 14:09:00,49.8,48.7,29.71,WSW,248,0.0,0.0,96,0.00,,---,2.41,VWS V14.01,2013-01-25 22:09:00,
2013-01-25 14:10:00,49.6,48.5,29.71,WSW,248,0.0,0.0,96,0.00,,---,2.41,VWS V14.01,2013-01-25 22:10:00,
2013-01-25 14:11:00,49.8,48.7,29.71,WSW,248,0.0,0.0,96,0.00,,---,2.41,VWS V14.01,2013-01-25 22:11:00,
2013-01-25 14:12:00,49.8,48.7,29.71,WSW,248,0.0,0.0,96,0.00,,---,2.41,VWS V14.01,2013-01-25 22:12:00,
2013-01-25 14:14:00,49.8,48.7,29.71,WSW,248,0.0,0.9,96,0.00,,---,2.41,VWS V14.01,2013-01-25 22:14:00,
2013-01-25 14:17:00,49.6,48.5,29.71,WSW,248,0.0,0.0,96,0.00,,---,2.41,VWS V14.01,2013-01-25 22:17:00,
2013-01-25 14:18:00,49.6,48.5,29.71,WSW,248,0.0,0.0,96,0.00,,---,2.41,VWS V14.01,2013-01-25 22:18:00,
2013-01-25 14:19:00,49.6,48.5,29.71,WSW,248,0.0,0.0,96,0.00,,---,2.41,VWS V14.01,2013-01-25 22:19:00,
2013-01-25 14:20:00,49.6,48.5,29.71,WSW,248,0.0,0.0,96,0.00,,---,2.41,VWS V14.01,2013-01-25 22:20:00,
2013-01-25 14:21:00,49.6,48.5,29.71,WSW,248,0.0,0.0,96,0.00,,---,2.41,VWS V14.01,2013-01-25 22:21:00,
2013-01-25 14:22:00,49.5,48.4,29.74,WSW,248,0.0,0.0,96,0.00,,---,2.41,VWS V14.01,2013-01-25 22:22:00,
2013-01-25 14:23:00,49.5,48.4,29.74,WSW,248,0.0,0.0,96,0.00,,---,2.41,VWS V14.01,2013-01-25 22:23:00,
2013-01-25 14:24:00,49.5,48.4,29.74,SW,225,0.0,0.0,96,0.00,,---,2.41,VWS V14.01,2013-01-25 22:24:00,
2013-01-25 14:25:00,49.5,48.4,29.74,SSW,202,0.0,0.0,96,0.00,,---,2.41,VWS V14.01,2013-01-25 22:25:00,
2013-01-25 14:26:00,49.5,48.4,29.74,SSW,202,0.0,0.0,96,0.00,,---,2.41,VWS V14.01,2013-01-25 22:26:00,
2013-01-25 14:27:00,49.5,48.4,29.74,SSW,202,0.0,0.0,96,0.00,,---,2.41,VWS V14.01,2013-01-25 22:27:00,
2013-01-25 14:28:00,49.5,48.4,29.74,SSW,202,0.0,0.0,96,0.00,,---,2.41,VWS V14.01,2013-01-25 22:28:00,
2013-01-25 14:29:00,49.5,48.4,29.74,SSW,202,0.0,0.0,96,0.00,,---,2.41,VWS V14.01,2013-01-25 22:29:00,
2013-01-25 14:30:00,49.5,48.4,29.74,SSW,202,0.0,0.0,96,0.00,,---,2.41,VWS V14.01,2013-01-25 22:30:00,
2013-01-25 14:31:00,49.5,48.4,29.74,SSW,202,0.0,0.0,96,0.00,,---,2.41,VWS V14.01,2013-01-25 22:31:00,
2013-01-25 14:32:00,49.5,48.4,29.74,SSW,202,0.0,0.0,96,0.00,,---,2.41,VWS V14.01,2013-01-25 22:32:00,
2013-01-25 14:33:00,49.5,48.4,29.74,SSW,202,0.0,0.0,96,0.00,,---,2.41,VWS V14.01,2013-01-25 22:33:00,
2013-01-25 14:34:00,49.5,48.4,29.74,SSW,202,0.0,0.0,96,0.00,,---,2.41,VWS V14.01,2013-01-25 22:34:00,
2013-01-25 14:35:00,49.5,48.4,29.74,SSW,202,0.0,0.0,96,0.00,,---,2.41,VWS V14.01,2013-01-25 22:35:00,
2013-01-25 14:36:00,49.5,48.4,29.74,SSW,202,0.0,0.0,96,0.00,,---,2.41,VWS V14.01,2013-01-25 22:36:00,
2013-01-25 14:37:00,49.5,48.4,29.74,SSW,202,0.0,0.0,96,0.00,,---,2.41,VWS V14.01,2013-01-25 22:37:00,
2013-01-25 14:38:00,49.5,48.4,29.74,SSW,202,0.0,0.0,96,0.00,,---,2.41,VWS V14.01,2013-01-25 22:38:00,
2013-01-25 14:39:00,49.5,48.4,29.74,SSW,202,0.0,0.0,96,0.00,,---,2.41,VWS V14.01,2013-01-25 22:39:00,
2013-01-25 14:40:00,49.5,48.4,29.74,SSW,202,0.0,0.0,96,0.00,,---,2.41,VWS V14.01,2013-01-25 22:40:00,
2013-01-25 14:41:00,49.5,48.4,29.74,SSW,202,0.0,0.0,96,0.00,,---,2.41,VWS V14.01,2013-01-25 22:41:00,
2013-01-25 14:42:00,49.5,48.4,29.74,SSW,202,0.0,0.0,96,0.00,,---,2.41,VWS V14.01,2013-01-25 22:42:00,
2013-01-25 14:43:00,49.5,48.4,29.74,SSW,202,0.0,0.0,96,0.00,,---,2.41,VWS V14.01,2013-01-25 22:43:00,
2013-01-25 14:44:00,49.5,48.4,29.74,SSW,202,0.0,0.0,96,0.00,,---,2.41,VWS V14.01,2013-01-25 22:44:00,
2013-01-25 14:45:00,49.5,48.4,29.74,SSW,202,0.0,0.0,96,0.00,,---,2.41,VWS V14.01,2013-01-25 22:45:00,
2013-01-25 14:46:00,49.6,48.5,29.74,SSW,202,0.0,0.0,96,0.00,,---,2.41,VWS V14.01,2013-01-25 22:46:00,
2013-01-25 14:47:00,49.6,48.5,29.74,SSW,202,0.0,0.0,96,0.00,,---,2.41,VWS V14.01,2013-01-25 22:47:00,
2013-01-25 14:48:00,49.6,48.5,29.74,SSW,202,0.0,0.0,96,0.00,,---,2.41,VWS V14.01,2013-01-25 22:48:00,
2013-01-25 14:49:00,49.6,48.5,29.74,SSW,202,0.0,0.0,96,0.00,,---,2.41,VWS V14.01,2013-01-25 22:49:00,
2013-01-25 14:50:00,49.6,48.5,29.74,SSW,202,0.0,0.0,96,0.00,,---,2.41,VWS V14.01,2013-01-25 22:50:00,
2013-01-25 14:51:00,49.6,48.5,29.74,SSW,202,0.0,0.0,96,0.00,,---,2.41,VWS V14.01,2013-01-25 22:51:00,
2013-01-25 14:52:00,49.6,48.5,29.71,SSW,202,0.0,0.0,96,0.00,,---,2.41,VWS V14.01,2013-01-25 22:52:00,
2013-01-25 14:53:00,49.6,48.5,29.71,SSW,202,0.0,0.0,96,0.00,,---,2.41,VWS V14.01,2013-01-25 22:53:00,
2013-01-25 14:54:00,49.6,48.5,29.71,SSW,202,0.0,0.0,96,0.00,,---,2.41,VWS V14.01,2013-01-25 22:54:00,
2013-01-25 14:55:00,49.6,48.5,29.71,SSW,202,0.0,0.0,96,0.00,,---,2.41,VWS V14.01,2013-01-25 22:55:00,
2013-01-25 14:56:00,49.6,48.5,29.71,SSW,202,0.0,0.0,96,0.00,,---,2.41,VWS V14.01,2013-01-25 22:56:00,
2013-01-25 14:57:00,49.6,48.5,29.71,SSW,202,0.0,0.0,96,0.00,,---,2.41,VWS V14.01,2013-01-25 22:57:00,
2013-01-25 14:58:00,49.6,48.5,29.71,SSW,202,0.0,0.0,96,0.00,,---,2.41,VWS V14.01,2013-01-25 22:58:00,
2013-01-25 14:59:00,49.6,48.5,29.71,SSW,202,0.0,0.0,96,0.00,,---,2.41,VWS V14.01,2013-01-25 22:59:00,
2013-01-25 15:00:00,49.6,48.5,29.71,SSW,202,0.0,0.0,96,0.00,,---,2.41,VWS V14.01,2013-01-25 23:00:00,
2013-01-25 15:01:00,49.6,48.5,29.71,SSW,202,0.0,0.0,96,0.00,,---,2.41,VWS V14.01,2013-01-25 23:01:00,
2013-01-25 15:02:00,49.8,48.7,29.71,SSW,202,0.0,0.0,96,0.00,,---,2.41,VWS V14.01,2013-01-25 23:02:00,
2013-01-25 15:03:00,49.8,48.7,29.71,SSW,202,0.0,0.0,96,0.00,,---,2.41,VWS V14.01,2013-01-25 23:03:00,
2013-01-25 15:04:00,49.8,48.7,29.71,SSW,202,0.0,0.0,96,0.00,,---,2.41,VWS V14.01,2013-01-25 23:04:00,
2013-01-25 15:05:00,49.8,48.7,29.71,SSW,202,0.0,0.0,96,0.00,,---,2.41,VWS V14.01,2013-01-25 23:05:00,
2013-01-25 15:06:00,49.6,48.5,29.71,SSW,202,0.0,0.0,96,0.00,,---,2.41,VWS V14.01,2013-01-25 23:06:00,
2013-01-25 15:07:00,49.6,48.5,29.74,SSW,202,0.0,0.0,96,0.00,,---,2.41,VWS V14.01,2013-01-25 23:07:00,
2013-01-25 15:08:00,49.6,48.5,29.74,SSW,202,0.0,0.0,96,0.00,,---,2.41,VWS V14.01,2013-01-25 23:08:00,
2013-01-25 15:09:00,49.6,48.5,29.74,SSW,202,0.0,0.0,96,0.00,,---,2.41,VWS V14.01,2013-01-25 23:09:00,
2013-01-25 15:10:00,49.6,48.5,29.74,SSW,202,0.0,0.0,96,0.00,,---,2.41,VWS V14.01,2013-01-25 23:10:00,
2013-01-25 15:11:00,49.6,48.5,29.74,SSW,202,0.0,0.0,96,0.00,,---,2.41,VWS V14.01,2013-01-25 23:11:00,
2013-01-25 15:12:00,49.6,48.5,29.74,SSW,202,0.0,0.0,96,0.00,,---,2.41,VWS V14.01,2013-01-25 23:12:00,
2013-01-25 15:13:00,49.6,48.5,29.74,SSW,202,0.0,0.0,96,0.00,,---,2.41,VWS V14.01,2013-01-25 23:13:00,
2013-01-25 15:14:00,49.6,48.5,29.74,SSW,202,0.0,0.0,96,0.00,,---,2.41,VWS V14.01,2013-01-25 23:14:00,
2013-01-25 15:15:00,49.6,48.5,29.74,SSW,202,0.0,0.0,96,0.00,,---,2.41,VWS V14.01,2013-01-25 23:15:00,
2013-01-25 15:16:00,49.6,48.5,29.74,SSW,202,0.0,0.0,96,0.00,,---,2.41,VWS V14.01,2013-01-25 23:16:00,
2013-01-25 15:17:00,49.6,48.5,29.74,SSW,202,0.0,0.0,96,0.00,,---,2.41,VWS V14.01,2013-01-25 23:17:00,
2013-01-25 15:18:00,49.6,48.5,29.74,SSW,202,0.0,0.0,96,0.00,,---,2.41,VWS V14.01,2013-01-25 23:18:00,
2013-01-25 15:19:00,49.6,48.5,29.74,SSW,202,0.0,0.0,96,0.00,,---,2.41,VWS V14.01,2013-01-25 23:19:00,
2013-01-25 15:21:00,49.6,48.5,29.74,SSW,202,0.0,0.0,96,0.00,,---,2.41,VWS V14.01,2013-01-25 23:21:00,
2013-01-25 15:22:00,49.6,48.5,29.74,SSW,202,0.0,0.0,96,0.00,,---,2.41,VWS V14.01,2013-01-25 23:22:00,
2013-01-25 15:23:00,49.6,48.5,29.74,SSW,202,0.0,0.0,96,0.00,,---,2.41,VWS V14.01,2013-01-25 23:23:00,
2013-01-25 15:24:00,49.6,48.5,29.74,SSW,202,0.0,0.0,96,0.00,,---,2.41,VWS V14.01,2013-01-25 23:24:00,
2013-01-25 15:25:00,49.6,48.5,29.74,SSW,202,0.0,0.0,96,0.00,,---,2.41,VWS V14.01,2013-01-25 23:25:00,
2013-01-25 15:26:00,49.6,48.5,29.74,SSW,202,0.0,0.0,96,0.00,,---,2.41,VWS V14.01,2013-01-25 23:26:00,
2013-01-25 15:27:00,49.6,48.5,29.74,SSW,202,0.0,0.0,96,0.00,,---,2.41,VWS V14.01,2013-01-25 23:27:00,
2013-01-25 15:28:00,49.6,48.5,29.74,SSW,202,0.0,0.0,96,0.00,,---,2.41,VWS V14.01,2013-01-25 23:28:00,
2013-01-25 15:29:00,49.6,48.5,29.74,SSW,202,0.0,0.0,96,0.00,,---,2.41,VWS V14.01,2013-01-25 23:29:00,
2013-01-25 15:30:00,49.6,48.5,29.74,SSW,202,0.0,0.0,96,0.00,,---,2.41,VWS V14.01,2013-01-25 23:30:00,
2013-01-25 15:31:00,49.6,48.5,29.74,SSW,202,0.0,0.0,96,0.00,,---,2.41,VWS V14.01,2013-01-25 23:31:00,
2013-01-25 15:32:00,49.8,48.7,29.74,SSW,202,0.0,0.0,96,0.00,,---,2.41,VWS V14.01,2013-01-25 23:32:00,
2013-01-25 15:33:00,49.8,48.7,29.74,SSW,202,0.0,0.0,96,0.00,,---,2.41,VWS V14.01,2013-01-25 23:33:00,
2013-01-25 15:35:00,49.8,48.7,29.74,SSW,202,0.0,0.0,96,0.00,,---,2.41,VWS V14.01,2013-01-25 23:35:00,
2013-01-25 15:36:00,49.8,48.7,29.74,SSW,202,0.0,0.0,96,0.00,,---,2.41,VWS V14.01,2013-01-25 23:36:00,
2013-01-25 15:37:00,49.8,48.7,29.74,SSW,202,0.0,0.0,96,0.00,,---,2.41,VWS V14.01,2013-01-25 23:37:00,
2013-01-25 15:38:00,49.8,48.7,29.74,SSW,202,0.0,0.0,96,0.00,,---,2.41,VWS V14.01,2013-01-25 23:38:00,
2013-01-25 15:39:00,49.8,48.7,29.74,SSW,202,0.0,0.0,96,0.00,,---,2.41,VWS V14.01,2013-01-25 23:39:00,
2013-01-25 15:40:00,50.0,48.9,29.74,SSW,202,0.0,0.0,96,0.00,,---,2.41,VWS V14.01,2013-01-25 23:40:00,
2013-01-25 15:41:00,50.0,48.9,29.74,South,180,0.0,0.0,96,0.00,,---,2.41,VWS V14.01,2013-01-25 23:41:00,
2013-01-25 15:42:00,50.0,48.9,29.74,SSE,158,0.0,0.0,96,0.00,,---,2.41,VWS V14.01,2013-01-25 23:42:00,
2013-01-25 15:45:00,49.8,48.7,29.74,East,90,0.0,0.0,96,0.00,,---,2.41,VWS V14.01,2013-01-25 23:45:00,
2013-01-25 15:46:00,49.8,48.7,29.74,ESE,112,0.0,0.0,96,0.00,,---,2.41,VWS V14.01,2013-01-25 23:46:00,
2013-01-25 15:47:00,49.8,48.7,29.74,ESE,112,0.0,0.0,96,0.00,,---,2.41,VWS V14.01,2013-01-25 23:47:00,
2013-01-25 15:48:00,49.8,48.7,29.74,SSE,158,0.9,0.9,96,0.00,,---,2.41,VWS V14.01,2013-01-25 23:48:00,
2013-01-25 15:49:00,49.6,48.5,29.74,SSE,158,0.0,0.9,96,0.00,,---,2.41,VWS V14.01,2013-01-25 23:49:00,
2013-01-25 15:50:00,49.6,48.5,29.74,SSE,158,0.0,0.0,96,0.00,,---,2.41,VWS V14.01,2013-01-25 23:50:00,
2013-01-25 15:51:00,49.6,48.5,29.74,SSE,158,0.0,0.0,96,0.00,,---,2.41,VWS V14.01,2013-01-25 23:51:00,
2013-01-25 15:52:00,49.5,48.1,29.71,SSE,158,0.0,0.0,95,0.00,,---,2.41,VWS V14.01,2013-01-25 23:52:00,
2013-01-25 15:53:00,49.5,48.1,29.71,SSE,158,0.0,0.0,95,0.00,,---,2.41,VWS V14.01,2013-01-25 23:53:00,
2013-01-25 15:54:00,49.5,48.1,29.71,SSE,158,0.0,0.0,95,0.00,,---,2.41,VWS V14.01,2013-01-25 23:54:00,
2013-01-25 15:55:00,49.3,47.9,29.71,SSE,158,0.0,0.0,95,0.00,,---,2.41,VWS V14.01,2013-01-25 23:55:00,
2013-01-25 15:56:00,49.3,47.6,29.71,SSE,158,0.0,0.0,94,0.00,,---,2.41,VWS V14.01,2013-01-25 23:56:00,
2013-01-25 15:57:00,49.1,47.5,29.71,SSE,158,0.0,0.0,94,0.00,,---,2.41,VWS V14.01,2013-01-25 23:57:00,
2013-01-25 15:58:00,49.1,47.5,29.71,SSE,158,0.0,0.0,94,0.00,,---,2.41,VWS V14.01,2013-01-25 23:58:00,
2013-01-25 15:59:00,49.1,47.5,29.71,SSE,158,0.0,0.0,94,0.00,,---,2.41,VWS V14.01,2013-01-25 23:59:00,
2013-01-25 16:00:00,48.9,47.3,29.71,SSE,158,0.0,0.0,94,0.00,,---,2.41,VWS V14.01,2013-01-26 00:00:00,
2013-01-25 16:01:00,48.9,47.3,29.71,SSE,158,0.0,0.0,94,0.00,,---,2.41,VWS V14.01,2013-01-26 00:01:00,
2013-01-25 16:02:00,48.9,47.3,29.71,SSE,158,0.0,0.0,94,0.00,,---,2.41,VWS V14.01,2013-01-26 00:02:00,
2013-01-25 16:03:00,48.9,47.3,29.71,SSE,158,0.0,0.0,94,0.00,,---,2.41,VWS V14.01,2013-01-26 00:03:00,
2013-01-25 16:04:00,48.7,47.1,29.71,SSE,158,0.0,0.9,94,0.00,,---,2.41,VWS V14.01,2013-01-26 00:04:00,
2013-01-25 16:05:00,48.7,47.1,29.71,SE,135,0.0,0.0,94,0.00,,---,2.41,VWS V14.01,2013-01-26 00:05:00,
2013-01-25 16:06:00,48.7,47.1,29.71,SE,135,0.0,0.0,94,0.00,,---,2.41,VWS V14.01,2013-01-26 00:06:00,
2013-01-25 16:07:00,48.6,46.9,29.74,SE,135,0.0,0.0,94,0.00,,---,2.41,VWS V14.01,2013-01-26 00:07:00,
2013-01-25 16:08:00,48.6,46.9,29.74,SE,135,0.0,0.0,94,0.00,,---,2.41,VWS V14.01,2013-01-26 00:08:00,
2013-01-25 16:09:00,48.6,46.9,29.74,SE,135,0.0,0.0,94,0.00,,---,2.41,VWS V14.01,2013-01-26 00:09:00,
2013-01-25 16:10:00,48.4,46.7,29.74,SE,135,0.0,0.0,94,0.00,,---,2.41,VWS V14.01,2013-01-26 00:10:00,
2013-01-25 16:11:00,48.2,46.6,29.74,SE,135,0.0,0.0,94,0.00,,---,2.41,VWS V14.01,2013-01-26 00:11:00,
2013-01-25 16:12:00,48.2,46.6,29.74,SE,135,0.0,0.0,94,0.00,,---,2.41,VWS V14.01,2013-01-26 00:12:00,
2013-01-25 16:13:00,48.0,46.4,29.74,SE,135,0.0,0.0,94,0.00,,---,2.41,VWS V14.01,2013-01-26 00:13:00,
2013-01-25 16:14:00,48.0,46.4,29.74,SE,135,0.0,0.0,94,0.00,,---,2.41,VWS V14.01,2013-01-26 00:14:00,
2013-01-25 16:15:00,48.0,46.7,29.74,SE,135,0.0,0.0,95,0.00,,---,2.41,VWS V14.01,2013-01-26 00:15:00,
2013-01-25 16:16:00,47.8,46.5,29.74,SSE,158,0.0,0.0,95,0.00,,---,2.41,VWS V14.01,2013-01-26 00:16:00,
2013-01-25 16:17:00,47.8,46.5,29.74,SSE,158,0.0,0.0,95,0.00,,---,2.41,VWS V14.01,2013-01-26 00:17:00,
2013-01-25 16:18:00,47.8,46.5,29.74,SSE,158,0.0,0.0,95,0.00,,---,2.41,VWS V14.01,2013-01-26 00:18:00,
2013-01-25 16:19:00,47.7,46.3,29.74,SSE,158,0.0,0.0,95,0.00,,---,2.41,VWS V14.01,2013-01-26 00:19:00,
2013-01-25 16:20:00,47.7,46.3,29.74,SSE,158,0.0,0.0,95,0.00,,---,2.41,VWS V14.01,2013-01-26 00:20:00,
2013-01-25 16:21:00,47.7,46.3,29.74,SSE,158,0.0,0.0,95,0.00,,---,2.41,VWS V14.01,2013-01-26 00:21:00,
2013-01-25 16:22:00,47.5,46.1,29.74,SSE,158,0.0,0.0,95,0.00,,---,2.41,VWS V14.01,2013-01-26 00:22:00,
2013-01-25 16:23:00,47.3,45.9,29.74,SSE,158,0.0,0.0,95,0.00,,---,2.41,VWS V14.01,2013-01-26 00:23:00,
2013-01-25 16:24:00,47.3,45.9,29.74,SE,135,0.0,0.0,95,0.00,,---,2.41,VWS V14.01,2013-01-26 00:24:00,
2013-01-25 16:25:00,47.3,45.9,29.74,SE,135,0.0,0.0,95,0.00,,---,2.41,VWS V14.01,2013-01-26 00:25:00,
2013-01-25 16:26:00,47.3,45.9,29.74,SE,135,0.0,0.0,95,0.00,,---,2.41,VWS V14.01,2013-01-26 00:26:00,
2013-01-25 16:27:00,47.1,45.8,29.74,SE,135,0.0,0.0,95,0.00,,---,2.41,VWS V14.01,2013-01-26 00:27:00,
2013-01-25 16:28:00,47.1,45.8,29.74,SE,135,0.0,0.0,95,0.00,,---,2.41,VWS V14.01,2013-01-26 00:28:00,
2013-01-25 16:29:00,46.9,45.6,29.74,SE,135,0.0,0.0,95,0.00,,---,2.41,VWS V14.01,2013-01-26 00:29:00,
2013-01-25 16:30:00,46.9,45.6,29.74,SSE,158,0.0,1.3,95,0.00,,---,2.41,VWS V14.01,2013-01-26 00:30:00,
2013-01-25 16:31:00,46.9,45.6,29.74,SSE,158,0.0,0.0,95,0.00,,---,2.41,VWS V14.01,2013-01-26 00:31:00,
2013-01-25 16:32:00,46.8,45.7,29.74,SSE,158,0.0,0.0,96,0.00,,---,2.41,VWS V14.01,2013-01-26 00:32:00,
2013-01-25 16:33:00,46.8,45.7,29.74,SSE,158,0.0,0.0,96,0.00,,---,2.41,VWS V14.01,2013-01-26 00:33:00,
2013-01-25 16:34:00,46.8,45.7,29.74,SSE,158,0.0,0.0,96,0.00,,---,2.41,VWS V14.01,2013-01-26 00:34:00,
2013-01-25 16:35:00,46.6,45.5,29.74,SSE,158,0.0,0.0,96,0.00,,---,2.41,VWS V14.01,2013-01-26 00:35:00,
2013-01-25 16:36:00,46.6,45.5,29.74,SSE,158,0.0,0.0,96,0.00,,---,2.41,VWS V14.01,2013-01-26 00:36:00,
2013-01-25 16:37:00,46.6,45.5,29.74,SE,135,0.0,0.0,96,0.00,,---,2.41,VWS V14.01,2013-01-26 00:37:00,
2013-01-25 16:38:00,46.6,45.5,29.74,SE,135,0.0,0.0,96,0.00,,---,2.41,VWS V14.01,2013-01-26 00:38:00,
2013-01-25 16:39:00,46.6,45.5,29.74,SSE,158,1.1,1.1,96,0.00,,---,2.41,VWS V14.01,2013-01-26 00:39:00,
2013-01-25 16:40:00,46.6,45.5,29.74,SSE,158,0.0,1.6,96,0.00,,---,2.41,VWS V14.01,2013-01-26 00:40:00,
2013-01-25 16:41:00,46.6,45.5,29.74,SSE,158,0.0,0.0,96,0.00,,---,2.41,VWS V14.01,2013-01-26 00:41:00,
2013-01-25 16:42:00,46.4,45.3,29.74,SSE,158,0.0,0.0,96,0.00,,---,2.41,VWS V14.01,2013-01-26 00:42:00,
2013-01-25 16:43:00,46.4,45.3,29.74,SSE,158,0.0,0.0,96,0.00,,---,2.41,VWS V14.01,2013-01-26 00:43:00,
2013-01-25 16:44:00,46.4,45.3,29.74,SSE,158,0.0,0.0,96,0.00,,---,2.41,VWS V14.01,2013-01-26 00:44:00,
2013-01-25 16:45:00,46.4,45.6,29.74,SSE,158,0.0,0.0,97,0.00,,---,2.41,VWS V14.01,2013-01-26 00:45:00,
2013-01-25 16:46:00,46.4,45.6,29.74,SSE,158,0.0,0.0,97,0.00,,---,2.41,VWS V14.01,2013-01-26 00:46:00,
2013-01-25 16:47:00,46.2,45.4,29.74,SSE,158,0.0,0.0,97,0.00,,---,2.41,VWS V14.01,2013-01-26 00:47:00,
2013-01-25 16:48:00,46.2,45.4,29.74,SSE,158,0.0,0.0,97,0.00,,---,2.41,VWS V14.01,2013-01-26 00:48:00,
2013-01-25 16:49:00,46.2,45.4,29.74,SE,135,0.0,0.0,97,0.00,,---,2.41,VWS V14.01,2013-01-26 00:49:00,
2013-01-25 16:50:00,46.0,45.2,29.74,SE,135,0.0,0.0,97,0.00,,---,2.41,VWS V14.01,2013-01-26 00:50:00,
2013-01-25 16:51:00,46.0,45.2,29.74,SE,135,0.0,0.0,97,0.00,,---,2.41,VWS V14.01,2013-01-26 00:51:00,
2013-01-25 16:52:00,46.0,45.2,29.74,SE,135,0.0,0.0,97,0.00,,---,2.41,VWS V14.01,2013-01-26 00:52:00,
2013-01-25 16:53:00,46.0,45.2,29.74,SE,135,0.0,0.0,97,0.00,,---,2.41,VWS V14.01,2013-01-26 00:53:00,
2013-01-25 16:54:00,45.9,45.1,29.74,SE,135,0.0,0.0,97,0.00,,---,2.41,VWS V14.01,2013-01-26 00:54:00,
2013-01-25 16:55:00,45.9,45.1,29.74,SE,135,0.0,0.0,97,0.00,,---,2.41,VWS V14.01,2013-01-26 00:55:00,
2013-01-25 16:56:00,45.9,45.1,29.74,SE,135,0.0,0.0,97,0.00,,---,2.41,VWS V14.01,2013-01-26 00:56:00,
2013-01-25 16:57:00,45.7,44.9,29.74,SE,135,0.9,0.9,97,0.00,,---,2.41,VWS V14.01,2013-01-26 00:57:00,
2013-01-25 16:58:00,45.7,44.9,29.74,SSE,158,1.1,1.3,97,0.00,,---,2.41,VWS V14.01,2013-01-26 00:58:00,
2013-01-25 16:59:00,45.7,44.9,29.74,SSE,158,1.6,1.6,97,0.00,,---,2.41,VWS V14.01,2013-01-26 00:59:00,
2013-01-25 17:00:00,45.7,44.9,29.74,SSE,158,0.0,1.6,97,0.00,,---,2.41,VWS V14.01,2013-01-26 01:00:00,
2013-01-25 17:01:00,45.7,44.9,29.74,SSE,158,0.0,0.0,97,0.00,,---,2.41,VWS V14.01,2013-01-26 01:01:00,
2013-01-25 17:02:00,45.7,44.9,29.74,SSE,158,0.0,0.0,97,0.00,,---,2.41,VWS V14.01,2013-01-26 01:02:00,
2013-01-25 17:03:00,45.7,44.9,29.74,SSE,158,0.0,0.0,97,0.00,,---,2.41,VWS V14.01,2013-01-26 01:03:00,
2013-01-25 17:04:00,45.5,45.0,29.74,SE,135,0.0,0.0,98,0.00,,---,2.41,VWS V14.01,2013-01-26 01:04:00,
2013-01-25 17:05:00,45.5,45.0,29.74,SE,135,0.0,0.0,98,0.00,,---,2.41,VWS V14.01,2013-01-26 01:05:00,
2013-01-25 17:06:00,45.5,45.0,29.74,SE,135,0.0,0.0,98,0.00,,---,2.41,VWS V14.01,2013-01-26 01:06:00,
2013-01-25 17:07:00,45.3,44.8,29.74,SE,135,0.0,0.0,98,0.00,,---,2.41,VWS V14.01,2013-01-26 01:07:00,
2013-01-25 17:08:00,45.3,44.8,29.74,SE,135,0.0,0.0,98,0.00,,---,2.41,VWS V14.01,2013-01-26 01:08:00,
2013-01-25 17:09:00,45.3,44.8,29.74,SSE,158,0.0,0.0,98,0.00,,---,2.41,VWS V14.01,2013-01-26 01:09:00,
2013-01-25 17:10:00,45.3,44.8,29.74,SSE,158,0.0,0.0,98,0.00,,---,2.41,VWS V14.01,2013-01-26 01:10:00,
2013-01-25 17:11:00,45.3,44.8,29.74,SSE,158,0.0,0.0,98,0.00,,---,2.41,VWS V14.01,2013-01-26 01:11:00,
2013-01-25 17:12:00,45.1,44.6,29.74,SSE,158,0.0,0.0,98,0.00,,---,2.41,VWS V14.01,2013-01-26 01:12:00,
2013-01-25 17:13:00,45.1,44.6,29.74,SE,135,0.0,0.9,98,0.00,,---,2.41,VWS V14.01,2013-01-26 01:13:00,
2013-01-25 17:14:00,45.1,44.6,29.74,SE,135,0.0,0.0,98,0.00,,---,2.41,VWS V14.01,2013-01-26 01:14:00,
2013-01-25 17:16:00,45.1,44.6,29.74,SSE,158,1.1,2.5,98,0.00,,---,2.41,VWS V14.01,2013-01-26 01:16:00,
2013-01-25 17:17:00,45.1,44.6,29.74,SSE,158,0.0,0.0,98,0.00,,---,2.41,VWS V14.01,2013-01-26 01:17:00,
2013-01-25 17:18:00,45.1,44.6,29.74,SSE,158,0.0,0.0,98,0.00,,---,2.41,VWS V14.01,2013-01-26 01:18:00,
2013-01-25 17:19:00,45.1,44.6,29.74,SE,135,0.0,0.0,98,0.00,,---,2.41,VWS V14.01,2013-01-26 01:19:00,
2013-01-25 17:20:00,45.1,44.6,29.74,SE,135,0.0,0.0,98,0.00,,---,2.41,VWS V14.01,2013-01-26 01:20:00,
2013-01-25 17:21:00,45.0,44.4,29.74,SE,135,0.0,0.0,98,0.00,,---,2.41,VWS V14.01,2013-01-26 01:21:00,
2013-01-25 17:22:00,45.0,44.4,29.74,SE,135,0.0,0.0,98,0.00,,---,2.41,VWS V14.01,2013-01-26 01:22:00,
2013-01-25 17:23:00,45.0,44.4,29.74,SSE,158,0.0,0.0,98,0.00,,---,2.41,VWS V14.01,2013-01-26 01:23:00,
2013-01-25 17:24:00,45.0,44.4,29.74,SSE,158,0.0,0.9,98,0.00,,---,2.41,VWS V14.01,2013-01-26 01:24:00,
2013-01-25 17:25:00,45.0,44.4,29.74,SSE,158,1.3,1.3,98,0.00,,---,2.41,VWS V14.01,2013-01-26 01:25:00,
2013-01-25 17:26:00,45.0,44.4,29.74,SSE,158,1.3,1.3,98,0.00,,---,2.41,VWS V14.01,2013-01-26 01:26:00,
2013-01-25 17:27:00,45.0,44.4,29.74,SSE,158,0.0,0.0,98,0.00,,---,2.41,VWS V14.01,2013-01-26 01:27:00,
2013-01-25 17:28:00,45.0,44.4,29.74,SSE,158,0.0,0.0,98,0.00,,---,2.41,VWS V14.01,2013-01-26 01:28:00,
2013-01-25 17:29:00,45.0,44.4,29.74,SSE,158,0.0,0.0,98,0.00,,---,2.41,VWS V14.01,2013-01-26 01:29:00,
2013-01-25 17:30:00,45.0,44.4,29.74,SSE,158,0.0,0.0,98,0.00,,---,2.41,VWS V14.01,2013-01-26 01:30:00,
2013-01-25 17:31:00,45.0,44.4,29.74,SSE,158,0.0,0.0,98,0.00,,---,2.41,VWS V14.01,2013-01-26 01:31:00,
2013-01-25 17:32:00,45.0,44.4,29.74,SSE,158,0.0,0.0,98,0.00,,---,2.41,VWS V14.01,2013-01-26 01:32:00,
2013-01-25 17:33:00,45.0,44.4,29.74,SSE,158,0.0,0.0,98,0.00,,---,2.41,VWS V14.01,2013-01-26 01:33:00,
2013-01-25 17:34:00,45.0,44.4,29.74,SSE,158,1.1,1.1,98,0.00,,---,2.41,VWS V14.01,2013-01-26 01:34:00,
2013-01-25 17:35:00,45.0,44.4,29.74,SSE,158,0.0,1.3,98,0.00,,---,2.41,VWS V14.01,2013-01-26 01:35:00,
2013-01-25 17:37:00,45.0,44.4,29.74,SSE,158,0.0,0.0,98,0.00,,---,2.41,VWS V14.01,2013-01-26 01:37:00,
2013-01-25 17:38:00,45.0,44.4,29.74,SSE,158,0.0,0.0,98,0.00,,---,2.41,VWS V14.01,2013-01-26 01:38:00,
2013-01-25 17:39:00,45.0,44.4,29.74,SSE,158,0.0,0.0,98,0.00,,---,2.41,VWS V14.01,2013-01-26 01:39:00,
2013-01-25 17:40:00,45.0,44.4,29.74,SSE,158,0.0,0.0,98,0.00,,---,2.41,VWS V14.01,2013-01-26 01:40:00,
2013-01-25 17:41:00,45.0,44.4,29.74,SSE,158,0.0,0.0,98,0.00,,---,2.41,VWS V14.01,2013-01-26 01:41:00,
2013-01-25 17:42:00,45.0,44.4,29.74,SSE,158,0.0,0.0,98,0.00,,---,2.41,VWS V14.01,2013-01-26 01:42:00,
2013-01-25 17:43:00,45.0,44.4,29.74,SSE,158,0.0,0.0,98,0.00,,---,2.41,VWS V14.01,2013-01-26 01:43:00,
2013-01-25 17:44:00,45.0,44.4,29.74,SSE,158,0.0,0.0,98,0.00,,---,2.41,VWS V14.01,2013-01-26 01:44:00,
2013-01-25 17:45:00,45.0,44.4,29.74,SE,135,0.0,0.0,98,0.00,,---,2.41,VWS V14.01,2013-01-26 01:45:00,
2013-01-25 17:46:00,45.0,44.4,29.74,SE,135,0.0,0.0,98,0.00,,---,2.41,VWS V14.01,2013-01-26 01:46:00,
2013-01-25 17:47:00,45.0,44.4,29.74,SE,135,0.0,0.0,98,0.00,,---,2.41,VWS V14.01,2013-01-26 01:47:00,
2013-01-25 17:48:00,45.0,44.4,29.74,SE,135,0.0,0.0,98,0.00,,---,2.41,VWS V14.01,2013-01-26 01:48:00,
2013-01-25 17:49:00,45.0,44.4,29.74,SE,135,0.0,0.0,98,0.00,,---,2.41,VWS V14.01,2013-01-26 01:49:00,
2013-01-25 17:50:00,45.0,44.4,29.74,SE,135,0.0,0.0,98,0.00,,---,2.41,VWS V14.01,2013-01-26 01:50:00,
2013-01-25 17:51:00,45.0,44.4,29.74,SE,135,0.0,0.0,98,0.00,,---,2.41,VWS V14.01,2013-01-26 01:51:00,
2013-01-25 17:52:00,45.0,44.4,29.74,SE,135,0.0,0.0,98,0.00,,---,2.41,VWS V14.01,2013-01-26 01:52:00,
2013-01-25 17:53:00,45.0,44.4,29.74,ESE,112,0.0,0.0,98,0.00,,---,2.41,VWS V14.01,2013-01-26 01:53:00,
2013-01-25 17:54:00,45.0,44.4,29.74,ESE,112,0.0,1.3,98,0.00,,---,2.41,VWS V14.01,2013-01-26 01:54:00,
2013-01-25 17:55:00,45.0,44.4,29.74,ESE,112,0.0,0.0,98,0.00,,---,2.41,VWS V14.01,2013-01-26 01:55:00,
2013-01-25 17:56:00,45.0,44.4,29.74,ESE,112,0.0,0.0,98,0.00,,---,2.41,VWS V14.01,2013-01-26 01:56:00,
2013-01-25 17:57:00,44.8,44.2,29.74,ESE,112,0.0,1.1,98,0.00,,---,2.41,VWS V14.01,2013-01-26 01:57:00,
2013-01-25 17:58:00,44.8,44.2,29.74,ESE,112,0.0,1.1,98,0.00,,---,2.41,VWS V14.01,2013-01-26 01:58:00,
2013-01-25 17:59:00,44.8,44.2,29.74,ESE,112,0.0,0.0,98,0.00,,---,2.41,VWS V14.01,2013-01-26 01:59:00,
2013-01-25 18:00:00,44.8,44.2,29.74,ESE,112,0.0,0.0,98,0.00,,---,2.41,VWS V14.01,2013-01-26 02:00:00,
2013-01-25 18:01:00,44.8,44.2,29.74,ESE,112,0.0,0.0,98,0.00,,---,2.41,VWS V14.01,2013-01-26 02:01:00,
2013-01-25 18:02:00,44.6,44.1,29.74,ESE,112,0.0,0.0,98,0.00,,---,2.41,VWS V14.01,2013-01-26 02:02:00,
2013-01-25 18:03:00,44.6,44.1,29.74,ESE,112,0.0,0.0,98,0.00,,---,2.41,VWS V14.01,2013-01-26 02:03:00,
2013-01-25 18:04:00,44.6,44.1,29.74,ESE,112,0.0,0.0,98,0.00,,---,2.41,VWS V14.01,2013-01-26 02:04:00,
2013-01-25 18:05:00,44.4,43.9,29.74,ESE,112,0.0,0.0,98,0.00,,---,2.41,VWS V14.01,2013-01-26 02:05:00,
2013-01-25 18:06:00,44.4,43.9,29.74,ESE,112,0.0,0.0,98,0.00,,---,2.41,VWS V14.01,2013-01-26 02:06:00,
2013-01-25 18:07:00,44.2,43.7,29.74,SE,135,0.0,0.0,98,0.00,,---,2.41,VWS V14.01,2013-01-26 02:07:00,
2013-01-25 18:08:00,44.2,43.7,29.74,SE,135,0.0,0.0,98,0.00,,---,2.41,VWS V14.01,2013-01-26 02:08:00,
2013-01-25 18:09:00,44.2,43.7,29.74,SE,135,0.0,0.0,98,0.00,,---,2.41,VWS V14.01,2013-01-26 02:09:00,
2013-01-25 18:10:00,44.2,43.7,29.74,SE,135,0.0,0.0,98,0.00,,---,2.41,VWS V14.01,2013-01-26 02:10:00,
2013-01-25 18:11:00,44.1,43.5,29.74,SE,135,0.0,0.0,98,0.00,,---,2.41,VWS V14.01,2013-01-26 02:11:00,
2013-01-25 18:12:00,44.1,43.5,29.74,SE,135,0.0,0.0,98,0.00,,---,2.41,VWS V14.01,2013-01-26 02:12:00,
2013-01-25 18:13:00,44.1,43.5,29.74,SE,135,0.0,0.0,98,0.00,,---,2.41,VWS V14.01,2013-01-26 02:13:00,
2013-01-25 18:14:00,43.7,43.2,29.74,SSE,158,0.0,0.0,98,0.00,,---,2.41,VWS V14.01,2013-01-26 02:14:00,
2013-01-25 18:15:00,43.7,43.2,29.74,SSE,158,0.0,1.3,98,0.00,,---,2.41,VWS V14.01,2013-01-26 02:15:00,
2013-01-25 18:16:00,43.7,43.2,29.74,SSE,158,0.0,0.0,98,0.00,,---,2.41,VWS V14.01,2013-01-26 02:16:00,
2013-01-25 18:17:00,43.5,43.0,29.74,SSE,158,0.9,0.9,98,0.00,,---,2.41,VWS V14.01,2013-01-26 02:17:00,
2013-01-25 18:18:00,43.5,43.0,29.74,SSE,158,1.6,1.6,98,0.00,,---,2.41,VWS V14.01,2013-01-26 02:18:00,
2013-01-25 18:19:00,43.5,43.0,29.74,SSE,158,1.3,2.0,98,0.00,,---,2.41,VWS V14.01,2013-01-26 02:19:00,
2013-01-25 18:20:00,43.5,43.0,29.74,SSE,158,0.0,1.6,98,0.00,,---,2.41,VWS V14.01,2013-01-26 02:20:00,
2013-01-25 18:21:00,43.5,43.0,29.74,SSE,158,0.0,0.0,98,0.00,,---,2.41,VWS V14.01,2013-01-26 02:21:00,
2013-01-25 18:22:00,43.5,43.0,29.74,SSE,158,0.0,0.0,98,0.00,,---,2.41,VWS V14.01,2013-01-26 02:22:00,
2013-01-25 18:23:00,43.3,42.8,29.74,SSE,158,0.0,0.0,98,0.00,,---,2.41,VWS V14.01,2013-01-26 02:23:00,
2013-01-25 18:24:00,43.3,42.8,29.74,SSE,158,0.0,0.0,98,0.00,,---,2.41,VWS V14.01,2013-01-26 02:24:00,
2013-01-25 18:25:00,43.3,42.8,29.74,SSE,158,0.0,0.0,98,0.00,,---,2.41,VWS V14.01,2013-01-26 02:25:00,
2013-01-25 18:26:00,43.2,42.6,29.74,ESE,112,0.0,0.0,98,0.00,,---,2.41,VWS V14.01,2013-01-26 02:26:00,
2013-01-25 18:27:00,43.2,42.6,29.74,SE,135,0.0,1.3,98,0.00,,---,2.41,VWS V14.01,2013-01-26 02:27:00,
2013-01-25 18:28:00,43.2,42.6,29.74,ESE,112,0.0,1.1,98,0.00,,---,2.41,VWS V14.01,2013-01-26 02:28:00,
2013-01-25 18:29:00,43.2,42.6,29.74,ESE,112,0.0,0.0,98,0.00,,---,2.41,VWS V14.01,2013-01-26 02:29:00,
2013-01-25 18:30:00,43.0,42.5,29.74,ESE,112,0.9,0.9,98,0.00,,---,2.41,VWS V14.01,2013-01-26 02:30:00,
2013-01-25 18:31:00,42.8,42.3,29.74,ESE,112,0.0,0.9,98,0.00,,---,2.41,VWS V14.01,2013-01-26 02:31:00,
2013-01-25 18:32:00,42.8,42.3,29.74,ESE,112,0.9,0.9,98,0.00,,---,2.41,VWS V14.01,2013-01-26 02:32:00,
2013-01-25 18:33:00,42.8,42.3,29.74,ESE,112,0.0,0.9,98,0.00,,---,2.41,VWS V14.01,2013-01-26 02:33:00,
2013-01-25 18:34:00,42.8,42.3,29.74,ESE,112,0.0,0.0,98,0.00,,---,2.41,VWS V14.01,2013-01-26 02:34:00,
2013-01-25 18:35:00,42.8,42.3,29.74,ESE,112,1.3,1.3,98,0.00,,---,2.41,VWS V14.01,2013-01-26 02:35:00,
2013-01-25 18:36:00,42.6,42.1,29.74,ESE,112,0.0,0.0,98,0.00,,---,2.41,VWS V14.01,2013-01-26 02:36:00,
2013-01-25 18:37:00,42.6,42.1,29.74,ESE,112,0.0,0.0,98,0.00,,---,2.41,VWS V14.01,2013-01-26 02:37:00,
2013-01-25 18:38:00,42.6,42.1,29.74,ESE,112,0.0,0.9,98,0.00,,---,2.41,VWS V14.01,2013-01-26 02:38:00,
2013-01-25 18:39:00,42.4,41.9,29.74,ESE,112,0.0,0.0,98,0.00,,---,2.41,VWS V14.01,2013-01-26 02:39:00,
2013-01-25 18:40:00,42.4,41.9,29.74,ESE,112,0.0,0.0,98,0.00,,---,2.41,VWS V14.01,2013-01-26 02:40:00,
2013-01-25 18:41:00,42.4,41.9,29.74,ESE,112,0.0,0.9,98,0.00,,---,2.41,VWS V14.01,2013-01-26 02:41:00,
2013-01-25 18:42:00,42.4,41.9,29.74,ESE,112,0.9,1.3,98,0.00,,---,2.41,VWS V14.01,2013-01-26 02:42:00,
2013-01-25 18:43:00,42.4,41.9,29.74,ESE,112,0.0,0.9,98,0.00,,---,2.41,VWS V14.01,2013-01-26 02:43:00,
2013-01-25 18:44:00,42.3,41.7,29.74,ESE,112,0.0,0.0,98,0.00,,---,2.41,VWS V14.01,2013-01-26 02:44:00,
2013-01-25 18:45:00,42.3,41.7,29.74,ESE,112,0.0,0.0,98,0.00,,---,2.41,VWS V14.01,2013-01-26 02:45:00,
2013-01-25 18:46:00,42.3,41.7,29.74,ESE,112,0.0,1.3,98,0.00,,---,2.41,VWS V14.01,2013-01-26 02:46:00,
2013-01-25 18:47:00,42.3,41.7,29.74,ESE,112,1.3,1.3,98,0.00,,---,2.41,VWS V14.01,2013-01-26 02:47:00,
2013-01-25 18:48:00,42.3,41.7,29.74,ESE,112,0.9,1.3,98,0.00,,---,2.41,VWS V14.01,2013-01-26 02:48:00,
2013-01-25 18:49:00,42.3,41.7,29.74,ESE,112,0.0,1.6,98,0.00,,---,2.41,VWS V14.01,2013-01-26 02:49:00,
2013-01-25 18:50:00,42.3,41.7,29.74,ESE,112,0.0,1.3,98,0.00,,---,2.41,VWS V14.01,2013-01-26 02:50:00,
2013-01-25 18:51:00,42.3,41.7,29.74,ESE,112,0.0,0.0,98,0.00,,---,2.41,VWS V14.01,2013-01-26 02:51:00,
2013-01-25 18:52:00,42.3,41.7,29.74,ESE,112,0.0,0.0,98,0.00,,---,2.41,VWS V14.01,2013-01-26 02:52:00,
2013-01-25 18:53:00,42.3,41.7,29.74,ESE,112,0.0,0.0,98,0.00,,---,2.41,VWS V14.01,2013-01-26 02:53:00,
2013-01-25 18:54:00,42.3,41.7,29.74,ESE,112,0.0,0.0,98,0.00,,---,2.41,VWS V14.01,2013-01-26 02:54:00,
2013-01-25 18:55:00,42.1,41.6,29.74,ESE,112,0.0,0.0,98,0.00,,---,2.41,VWS V14.01,2013-01-26 02:55:00,
2013-01-25 18:56:00,42.1,41.6,29.74,ESE,112,0.0,0.0,98,0.00,,---,2.41,VWS V14.01,2013-01-26 02:56:00,
2013-01-25 18:57:00,42.1,41.6,29.74,ESE,112,0.0,0.0,98,0.00,,---,2.41,VWS V14.01,2013-01-26 02:57:00,
2013-01-25 18:58:00,42.1,41.6,29.74,ESE,112,0.0,0.0,98,0.00,,---,2.41,VWS V14.01,2013-01-26 02:58:00,
2013-01-25 18:59:00,42.1,41.6,29.74,ESE,112,0.0,0.0,98,0.00,,---,2.41,VWS V14.01,2013-01-26 02:59:00,
2013-01-25 19:00:00,42.1,41.6,29.74,ESE,112,0.0,0.0,98,0.00,,---,2.41,VWS V14.01,2013-01-26 03:00:00,
2013-01-25 19:01:00,42.1,41.6,29.74,SE,135,0.0,0.0,98,0.00,,---,2.41,VWS V14.01,2013-01-26 03:01:00,
2013-01-25 19:02:00,42.1,41.6,29.74,SE,135,0.0,0.0,98,0.00,,---,2.41,VWS V14.01,2013-01-26 03:02:00,
2013-01-25 19:03:00,42.1,41.6,29.74,SE,135,0.0,0.0,98,0.00,,---,2.41,VWS V14.01,2013-01-26 03:03:00,
2013-01-25 19:04:00,42.1,41.6,29.74,SE,135,0.0,0.0,98,0.00,,---,2.41,VWS V14.01,2013-01-26 03:04:00,
2013-01-25 19:05:00,42.1,41.6,29.74,SE,135,0.0,0.0,98,0.00,,---,2.41,VWS V14.01,2013-01-26 03:05:00,
2013-01-25 19:06:00,42.3,41.7,29.74,SE,135,0.0,0.0,98,0.00,,---,2.41,VWS V14.01,2013-01-26 03:06:00,
2013-01-25 19:07:00,42.3,41.7,29.74,SE,135,0.0,0.0,98,0.00,,---,2.41,VWS V14.01,2013-01-26 03:07:00,
2013-01-25 19:08:00,42.3,41.7,29.74,SE,135,0.0,0.0,98,0.00,,---,2.41,VWS V14.01,2013-01-26 03:08:00,
2013-01-25 19:09:00,42.3,41.7,29.74,SE,135,0.9,0.9,98,0.00,,---,2.41,VWS V14.01,2013-01-26 03:09:00,
2013-01-25 19:10:00,42.3,41.7,29.74,SE,135,0.0,0.9,98,0.00,,---,2.41,VWS V14.01,2013-01-26 03:10:00,
2013-01-25 19:11:00,42.3,41.7,29.74,ESE,112,0.9,0.9,98,0.00,,---,2.41,VWS V14.01,2013-01-26 03:11:00,
2013-01-25 19:12:00,42.3,41.7,29.74,ESE,112,0.0,2.5,98,0.00,,---,2.41,VWS V14.01,2013-01-26 03:12:00,
2013-01-25 19:13:00,42.3,41.7,29.74,SSE,158,2.7,2.7,98,0.00,,---,2.41,VWS V14.01,2013-01-26 03:13:00,
2013-01-25 19:14:00,42.4,41.9,29.74,ENE,68,2.7,3.8,98,0.00,,---,2.41,VWS V14.01,2013-01-26 03:14:00,
2013-01-25 19:15:00,42.8,42.3,29.74,SSE,158,3.1,3.6,98,0.00,,---,2.41,VWS V14.01,2013-01-26 03:15:00,
2013-01-25 19:16:00,43.0,42.5,29.74,SW,225,2.0,2.0,98,0.00,,---,2.41,VWS V14.01,2013-01-26 03:16:00,
2013-01-25 19:17:00,43.0,42.5,29.74,SSE,158,0.9,2.5,98,0.00,,---,2.41,VWS V14.01,2013-01-26 03:17:00,
2013-01-25 19:18:00,43.0,42.5,29.74,ESE,112,1.1,2.0,98,0.00,,---,2.41,VWS V14.01,2013-01-26 03:18:00,
2013-01-25 19:19:00,43.0,42.5,29.74,ESE,112,0.0,1.1,98,0.00,,---,2.41,VWS V14.01,2013-01-26 03:19:00,
2013-01-25 19:20:00,43.2,42.6,29.74,SE,135,0.0,0.0,98,0.00,,---,2.41,VWS V14.01,2013-01-26 03:20:00,
2013-01-25 19:21:00,43.2,42.6,29.74,SSE,158,1.6,2.2,98,0.00,,---,2.41,VWS V14.01,2013-01-26 03:21:00,
2013-01-25 19:22:00,43.2,42.6,29.74,SSE,158,2.2,2.2,98,0.00,,---,2.41,VWS V14.01,2013-01-26 03:22:00,
2013-01-25 19:23:00,43.2,42.6,29.74,SSE,158,0.0,2.2,98,0.00,,---,2.41,VWS V14.01,2013-01-26 03:23:00,
2013-01-25 19:24:00,43.2,42.6,29.74,SSE,158,0.0,0.0,98,0.00,,---,2.41,VWS V14.01,2013-01-26 03:24:00,
2013-01-25 19:25:00,43.3,42.8,29.74,SE,135,0.0,0.0,98,0.00,,---,2.41,VWS V14.01,2013-01-26 03:25:00,
2013-01-25 19:26:00,43.3,42.8,29.74,ESE,112,1.1,1.1,98,0.03,,---,2.44,VWS V14.01,2013-01-26 03:26:00,
2013-01-25 19:27:00,43.3,42.8,29.74,ESE,112,0.0,1.1,98,0.03,,---,2.44,VWS V14.01,2013-01-26 03:27:00,
2013-01-25 19:28:00,43.2,42.6,29.74,SE,135,0.9,1.1,98,0.03,,---,2.44,VWS V14.01,2013-01-26 03:28:00,
2013-01-25 19:29:00,43.3,42.8,29.74,SSE,158,0.0,1.6,98,0.03,,---,2.44,VWS V14.01,2013-01-26 03:29:00,
2013-01-25 19:30:00,43.2,42.6,29.74,SSE,158,0.0,0.0,98,0.03,,---,2.44,VWS V14.01,2013-01-26 03:30:00,
2013-01-25 19:31:00,43.2,42.6,29.74,SSE,158,0.0,0.0,98,0.03,,---,2.44,VWS V14.01,2013-01-26 03:31:00,
2013-01-25 19:32:00,43.2,42.6,29.74,SSE,158,0.0,0.0,98,0.03,,---,2.44,VWS V14.01,2013-01-26 03:32:00,
2013-01-25 19:33:00,43.2,42.6,29.74,SSE,158,0.0,0.0,98,0.03,,---,2.44,VWS V14.01,2013-01-26 03:33:00,
2013-01-25 19:34:00,43.2,42.6,29.74,SSE,158,0.0,0.0,98,0.03,,---,2.44,VWS V14.01,2013-01-26 03:34:00,
2013-01-25 19:35:00,43.0,42.5,29.74,SSE,158,0.0,0.0,98,0.03,,---,2.44,VWS V14.01,2013-01-26 03:35:00,
2013-01-25 19:36:00,43.0,42.5,29.74,SSE,158,1.1,1.1,98,0.03,,---,2.44,VWS V14.01,2013-01-26 03:36:00,
2013-01-25 19:37:00,43.0,42.5,29.74,SSE,158,1.1,1.1,98,0.03,,---,2.44,VWS V14.01,2013-01-26 03:37:00,
2013-01-25 19:38:00,42.8,42.3,29.74,SSE,158,1.1,1.3,98,0.03,,---,2.44,VWS V14.01,2013-01-26 03:38:00,
2013-01-25 19:39:00,42.8,42.3,29.74,SSE,158,1.3,1.3,98,0.03,,---,2.44,VWS V14.01,2013-01-26 03:39:00,
2013-01-25 19:40:00,42.8,42.3,29.74,SSE,158,0.0,1.3,98,0.03,,---,2.44,VWS V14.01,2013-01-26 03:40:00,
2013-01-25 19:41:00,42.8,42.3,29.74,ESE,112,0.0,0.0,98,0.03,,---,2.44,VWS V14.01,2013-01-26 03:41:00,
2013-01-25 19:42:00,42.8,42.3,29.74,SE,135,0.0,1.1,98,0.03,,---,2.44,VWS V14.01,2013-01-26 03:42:00,
2013-01-25 19:43:00,42.8,42.3,29.74,ESE,112,1.1,1.1,98,0.03,,---,2.44,VWS V14.01,2013-01-26 03:43:00,
2013-01-25 19:44:00,42.8,42.3,29.74,ESE,112,1.3,1.3,98,0.03,,---,2.44,VWS V14.01,2013-01-26 03:44:00,
2013-01-25 19:45:00,42.6,42.1,29.74,ESE,112,0.0,1.3,98,0.03,,---,2.44,VWS V14.01,2013-01-26 03:45:00,
2013-01-25 19:46:00,42.6,42.1,29.74,East,90,1.3,1.3,98,0.03,,---,2.44,VWS V14.01,2013-01-26 03:46:00,
2013-01-25 19:49:00,42.4,41.9,29.74,East,90,0.0,1.3,98,0.03,,---,2.44,VWS V14.01,2013-01-26 03:49:00,
2013-01-25 19:50:00,42.4,41.9,29.74,ESE,112,0.0,1.1,98,0.03,,---,2.44,VWS V14.01,2013-01-26 03:50:00,
2013-01-25 19:51:00,42.4,41.9,29.71,ESE,112,0.0,0.0,98,0.03,,---,2.44,VWS V14.01,2013-01-26 03:51:00,
2013-01-25 19:52:00,42.4,41.9,29.71,ESE,112,0.0,0.9,98,0.03,,---,2.44,VWS V14.01,2013-01-26 03:52:00,
2013-01-25 19:53:00,42.3,41.7,29.71,ESE,112,0.0,0.0,98,0.03,,---,2.44,VWS V14.01,2013-01-26 03:53:00,
2013-01-25 19:54:00,42.3,41.7,29.71,ESE,112,0.0,0.0,98,0.03,,---,2.44,VWS V14.01,2013-01-26 03:54:00,
2013-01-25 19:55:00,42.3,41.7,29.71,ESE,112,0.0,0.0,98,0.03,,---,2.44,VWS V14.01,2013-01-26 03:55:00,
2013-01-25 19:56:00,42.3,41.7,29.71,ESE,112,0.0,0.0,98,0.03,,---,2.44,VWS V14.01,2013-01-26 03:56:00,
2013-01-25 19:57:00,42.3,41.7,29.71,ESE,112,0.0,0.0,98,0.03,,---,2.44,VWS V14.01,2013-01-26 03:57:00,
2013-01-25 19:58:00,42.3,41.7,29.71,ESE,112,0.0,0.0,98,0.03,,---,2.44,VWS V14.01,2013-01-26 03:58:00,
2013-01-25 20:00:00,42.1,41.6,29.71,SE,135,0.0,0.9,98,0.03,,---,2.44,VWS V14.01,2013-01-26 04:00:00,
2013-01-25 20:01:00,42.1,41.6,29.71,ESE,112,0.0,0.0,98,0.03,,---,2.44,VWS V14.01,2013-01-26 04:01:00,
2013-01-25 20:02:00,42.1,41.6,29.71,ESE,112,0.0,0.0,98,0.03,,---,2.44,VWS V14.01,2013-01-26 04:02:00,
2013-01-25 20:03:00,42.1,41.6,29.71,ESE,112,0.0,0.0,98,0.03,,---,2.44,VWS V14.01,2013-01-26 04:03:00,
2013-01-25 20:04:00,42.1,41.6,29.71,ESE,112,0.0,0.9,98,0.03,,---,2.44,VWS V14.01,2013-01-26 04:04:00,
2013-01-25 20:05:00,42.1,41.6,29.71,ESE,112,0.0,0.9,98,0.03,,---,2.44,VWS V14.01,2013-01-26 04:05:00,
2013-01-25 20:06:00,42.1,41.6,29.71,East,90,1.1,1.1,98,0.03,,---,2.44,VWS V14.01,2013-01-26 04:06:00,
2013-01-25 20:09:00,42.3,41.7,29.71,ESE,112,0.9,1.3,98,0.03,,---,2.44,VWS V14.01,2013-01-26 04:09:00,
2013-01-25 20:10:00,42.3,41.7,29.71,ESE,112,0.0,0.9,98,0.03,,---,2.44,VWS V14.01,2013-01-26 04:10:00,
2013-01-25 20:11:00,42.3,41.7,29.71,East,90,0.0,0.0,98,0.03,,---,2.44,VWS V14.01,2013-01-26 04:11:00,
2013-01-25 20:12:00,42.3,41.7,29.71,East,90,0.0,1.1,98,0.03,,---,2.44,VWS V14.01,2013-01-26 04:12:00,
2013-01-25 20:13:00,42.3,41.7,29.71,East,90,0.0,0.0,98,0.03,,---,2.44,VWS V14.01,2013-01-26 04:13:00,
2013-01-25 20:14:00,42.3,41.7,29.71,ESE,112,0.0,0.0,98,0.03,,---,2.44,VWS V14.01,2013-01-26 04:14:00,
2013-01-25 20:15:00,42.3,41.7,29.71,ESE,112,0.0,0.0,98,0.03,,---,2.44,VWS V14.01,2013-01-26 04:15:00,
2013-01-25 20:16:00,42.3,41.7,29.71,SSE,158,2.2,2.2,98,0.03,,---,2.44,VWS V14.01,2013-01-26 04:16:00,
2013-01-25 20:17:00,42.3,41.7,29.71,ESE,112,0.0,0.0,98,0.03,,---,2.44,VWS V14.01,2013-01-26 04:17:00,
2013-01-25 20:18:00,42.4,41.9,29.71,SSE,158,1.6,4.0,98,0.03,,---,2.44,VWS V14.01,2013-01-26 04:18:00,
2013-01-25 20:19:00,42.4,41.9,29.71,South,180,0.0,1.6,98,0.03,,---,2.44,VWS V14.01,2013-01-26 04:19:00,
2013-01-25 20:20:00,42.4,41.9,29.71,SSE,158,0.9,0.9,98,0.03,,---,2.44,VWS V14.01,2013-01-26 04:20:00,
2013-01-25 20:21:00,42.4,41.9,29.71,SSE,158,0.0,0.0,98,0.03,,---,2.44,VWS V14.01,2013-01-26 04:21:00,
2013-01-25 20:22:00,42.4,41.9,29.71,SSE,158,0.0,0.9,98,0.03,,---,2.44,VWS V14.01,2013-01-26 04:22:00,
2013-01-25 20:23:00,42.4,41.9,29.71,SSE,158,0.0,0.9,98,0.03,,---,2.44,VWS V14.01,2013-01-26 04:23:00,
2013-01-25 20:24:00,42.4,41.9,29.71,SSE,158,0.0,0.0,98,0.03,,---,2.44,VWS V14.01,2013-01-26 04:24:00,
2013-01-25 20:25:00,42.4,41.9,29.71,ESE,112,0.0,0.0,98,0.03,,---,2.44,VWS V14.01,2013-01-26 04:25:00,
2013-01-25 20:26:00,42.6,42.1,29.71,ESE,112,0.0,0.0,98,0.00,,---,2.44,VWS V14.01,2013-01-26 04:26:00,
2013-01-25 20:27:00,42.6,42.1,29.71,ESE,112,0.0,0.0,98,0.03,,---,2.44,VWS V14.01,2013-01-26 04:27:00,
2013-01-25 20:28:00,42.6,42.1,29.71,SE,135,0.0,0.0,98,0.00,,---,2.44,VWS V14.01,2013-01-26 04:28:00,
2013-01-25 20:29:00,42.6,42.1,29.71,SE,135,0.0,0.0,98,0.00,,---,2.44,VWS V14.01,2013-01-26 04:29:00,
2013-01-25 20:30:00,42.6,42.1,29.71,SSE,158,2.5,3.1,98,0.00,,---,2.44,VWS V14.01,2013-01-26 04:30:00,
2013-01-25 20:31:00,42.6,42.1,29.71,SSE,158,0.0,0.0,98,0.00,,---,2.44,VWS V14.01,2013-01-26 04:31:00,
2013-01-25 20:32:00,42.6,42.1,29.71,SSE,158,0.0,0.0,98,0.00,,---,2.44,VWS V14.01,2013-01-26 04:32:00,
2013-01-25 20:33:00,42.6,42.1,29.71,SSE,158,1.3,1.3,98,0.00,,---,2.44,VWS V14.01,2013-01-26 04:33:00,
2013-01-25 20:34:00,42.6,42.1,29.71,ESE,112,1.1,1.3,98,0.00,,---,2.44,VWS V14.01,2013-01-26 04:34:00,
2013-01-25 20:35:00,42.6,42.1,29.71,SSE,158,2.7,2.7,98,0.00,,---,2.44,VWS V14.01,2013-01-26 04:35:00,
2013-01-25 20:36:00,42.6,42.1,29.71,ESE,112,0.0,0.0,98,0.00,,---,2.44,VWS V14.01,2013-01-26 04:36:00,
2013-01-25 20:37:00,42.6,42.1,29.71,ESE,112,0.0,0.0,98,0.00,,---,2.44,VWS V14.01,2013-01-26 04:37:00,
2013-01-25 20:38:00,42.6,42.1,29.71,ESE,112,0.0,1.1,98,0.00,,---,2.44,VWS V14.01,2013-01-26 04:38:00,
2013-01-25 20:39:00,42.6,42.1,29.71,ESE,112,0.0,0.0,98,0.00,,---,2.44,VWS V14.01,2013-01-26 04:39:00,
2013-01-25 20:40:00,42.6,42.1,29.71,ESE,112,0.0,0.0,98,0.00,,---,2.44,VWS V14.01,2013-01-26 04:40:00,
2013-01-25 20:41:00,42.6,42.1,29.71,SE,135,0.9,0.9,98,0.00,,---,2.44,VWS V14.01,2013-01-26 04:41:00,
2013-01-25 20:42:00,42.6,42.1,29.71,SE,135,0.9,0.9,98,0.00,,---,2.44,VWS V14.01,2013-01-26 04:42:00,
2013-01-25 20:43:00,42.6,42.1,29.71,ESE,112,0.0,1.1,98,0.00,,---,2.44,VWS V14.01,2013-01-26 04:43:00,
2013-01-25 20:44:00,42.6,42.1,29.71,ESE,112,0.0,0.0,98,0.00,,---,2.44,VWS V14.01,2013-01-26 04:44:00,
2013-01-25 20:45:00,42.6,42.1,29.71,ESE,112,0.0,0.0,98,0.00,,---,2.44,VWS V14.01,2013-01-26 04:45:00,
2013-01-25 20:46:00,42.6,42.1,29.71,ESE,112,0.0,0.0,98,0.00,,---,2.44,VWS V14.01,2013-01-26 04:46:00,
2013-01-25 20:47:00,42.6,42.1,29.71,ESE,112,0.0,0.0,98,0.00,,---,2.44,VWS V14.01,2013-01-26 04:47:00,
2013-01-25 20:48:00,42.6,42.1,29.71,ESE,112,0.0,0.0,98,0.00,,---,2.44,VWS V14.01,2013-01-26 04:48:00,
2013-01-25 20:49:00,42.6,42.1,29.71,East,90,0.0,0.0,98,0.00,,---,2.44,VWS V14.01,2013-01-26 04:49:00,
2013-01-25 20:50:00,42.6,42.1,29.71,ESE,112,0.0,0.0,98,0.00,,---,2.44,VWS V14.01,2013-01-26 04:50:00,
2013-01-25 20:51:00,42.6,42.1,29.71,ESE,112,2.0,2.0,98,0.00,,---,2.44,VWS V14.01,2013-01-26 04:51:00,
2013-01-25 20:52:00,42.6,42.1,29.71,ESE,112,0.9,0.9,98,0.00,,---,2.44,VWS V14.01,2013-01-26 04:52:00,
2013-01-25 20:53:00,42.4,41.9,29.71,SE,135,0.9,2.0,98,0.00,,---,2.44,VWS V14.01,2013-01-26 04:53:00,
2013-01-25 20:54:00,42.4,41.9,29.71,SE,135,0.0,0.9,98,0.00,,---,2.44,VWS V14.01,2013-01-26 04:54:00,
2013-01-25 20:55:00,42.4,41.9,29.71,SE,135,0.0,0.0,98,0.00,,---,2.44,VWS V14.01,2013-01-26 04:55:00,
2013-01-25 20:56:00,42.4,41.9,29.71,ESE,112,0.0,0.0,98,0.00,,---,2.44,VWS V14.01,2013-01-26 04:56:00,
2013-01-25 20:58:00,42.4,41.9,29.71,ESE,112,0.0,0.0,98,0.00,,---,2.44,VWS V14.01,2013-01-26 04:58:00,
2013-01-25 20:59:00,42.4,41.9,29.71,East,90,0.0,1.3,98,0.00,,---,2.44,VWS V14.01,2013-01-26 04:59:00,
2013-01-25 21:00:00,42.4,41.9,29.71,ESE,112,0.0,0.0,98,0.00,,---,2.44,VWS V14.01,2013-01-26 05:00:00,
2013-01-25 21:01:00,42.4,41.9,29.71,ESE,112,0.0,0.0,98,0.00,,---,2.44,VWS V14.01,2013-01-26 05:01:00,
2013-01-25 21:02:00,42.4,41.9,29.71,ESE,112,0.0,0.0,98,0.00,,---,2.44,VWS V14.01,2013-01-26 05:02:00,
2013-01-25 21:03:00,42.3,41.7,29.71,ESE,112,0.0,0.0,98,0.00,,---,2.44,VWS V14.01,2013-01-26 05:03:00,
2013-01-25 21:04:00,42.3,41.7,29.71,ESE,112,0.0,0.0,98,0.00,,---,2.44,VWS V14.01,2013-01-26 05:04:00,
2013-01-25 21:05:00,42.3,41.7,29.71,ESE,112,0.0,0.0,98,0.00,,---,2.44,VWS V14.01,2013-01-26 05:05:00,
2013-01-25 21:06:00,42.3,41.7,29.71,ESE,112,0.0,0.0,98,0.00,,---,2.44,VWS V14.01,2013-01-26 05:06:00,
2013-01-25 21:07:00,42.3,41.7,29.71,ESE,112,0.0,0.0,98,0.00,,---,2.44,VWS V14.01,2013-01-26 05:07:00,
2013-01-25 21:08:00,42.1,41.6,29.71,East,90,0.9,0.9,98,0.00,,---,2.44,VWS V14.01,2013-01-26 05:08:00,
2013-01-25 21:09:00,42.1,41.6,29.71,East,90,0.0,1.1,98,0.00,,---,2.44,VWS V14.01,2013-01-26 05:09:00,
2013-01-25 21:10:00,42.1,41.6,29.71,ESE,112,0.0,0.9,98,0.00,,---,2.44,VWS V14.01,2013-01-26 05:10:00,
2013-01-25 21:11:00,42.1,41.6,29.71,ESE,112,0.0,1.6,98,0.00,,---,2.44,VWS V14.01,2013-01-26 05:11:00,
2013-01-25 21:12:00,42.1,41.6,29.71,ESE,112,1.6,1.6,98,0.00,,---,2.44,VWS V14.01,2013-01-26 05:12:00,
2013-01-25 21:13:00,42.1,41.6,29.71,ESE,112,0.0,1.6,98,0.00,,---,2.44,VWS V14.01,2013-01-26 05:13:00,
2013-01-25 21:14:00,42.1,41.6,29.71,ESE,112,0.9,0.9,98,0.00,,---,2.44,VWS V14.01,2013-01-26 05:14:00,
2013-01-25 21:15:00,42.1,41.6,29.71,East,90,2.0,2.0,98,0.00,,---,2.44,VWS V14.01,2013-01-26 05:15:00,
2013-01-25 21:16:00,41.9,41.4,29.71,ESE,112,0.0,0.0,98,0.00,,---,2.44,VWS V14.01,2013-01-26 05:16:00,
2013-01-25 21:18:00,41.9,41.4,29.71,ESE,112,0.0,0.9,98,0.00,,---,2.44,VWS V14.01,2013-01-26 05:18:00,
2013-01-25 21:19:00,41.9,41.4,29.71,SSE,158,1.6,2.5,98,0.00,,---,2.44,VWS V14.01,2013-01-26 05:19:00,
2013-01-25 21:20:00,41.9,41.4,29.71,SSE,158,1.3,1.6,98,0.00,,---,2.44,VWS V14.01,2013-01-26 05:20:00,
2013-01-25 21:21:00,41.9,41.4,29.71,ESE,112,0.0,0.0,98,0.00,,---,2.44,VWS V14.01,2013-01-26 05:21:00,
2013-01-25 21:22:00,41.9,41.4,29.71,ESE,112,0.0,0.0,98,0.00,,---,2.44,VWS V14.01,2013-01-26 05:22:00,
2013-01-25 21:23:00,41.7,41.2,29.71,SE,135,1.3,1.3,98,0.00,,---,2.44,VWS V14.01,2013-01-26 05:23:00,
2013-01-25 21:24:00,41.7,41.2,29.71,ESE,112,1.1,1.3,98,0.00,,---,2.44,VWS V14.01,2013-01-26 05:24:00,
2013-01-25 21:25:00,41.7,41.2,29.71,SSW,202,1.3,3.4,98,0.00,,---,2.44,VWS V14.01,2013-01-26 05:25:00,
2013-01-25 21:26:00,41.7,41.2,29.71,SSE,158,0.0,0.9,98,0.00,,---,2.44,VWS V14.01,2013-01-26 05:26:00,
2013-01-25 21:27:00,41.7,41.2,29.71,SSE,158,0.0,0.9,98,0.00,,---,2.44,VWS V14.01,2013-01-26 05:27:00,
2013-01-25 21:28:00,41.7,41.2,29.71,SE,135,0.0,0.0,98,0.00,,---,2.44,VWS V14.01,2013-01-26 05:28:00,
2013-01-25 21:29:00,41.7,41.2,29.71,SE,135,0.0,0.0,98,0.00,,---,2.44,VWS V14.01,2013-01-26 05:29:00,
2013-01-25 21:30:00,41.7,41.2,29.71,ESE,112,1.1,1.1,98,0.00,,---,2.44,VWS V14.01,2013-01-26 05:30:00,
2013-01-25 21:31:00,41.7,41.2,29.71,ESE,112,1.1,1.3,98,0.00,,---,2.44,VWS V14.01,2013-01-26 05:31:00,
2013-01-25 21:32:00,41.7,41.2,29.71,ESE,112,1.1,1.3,98,0.00,,---,2.44,VWS V14.01,2013-01-26 05:32:00,
2013-01-25 21:33:00,41.7,41.2,29.71,ESE,112,0.0,1.1,98,0.00,,---,2.44,VWS V14.01,2013-01-26 05:33:00,
2013-01-25 21:35:00,41.5,41.0,29.71,SSE,158,0.9,2.2,98,0.00,,---,2.44,VWS V14.01,2013-01-26 05:35:00,
2013-01-25 21:36:00,41.5,41.0,29.71,ESE,112,1.1,2.0,98,0.00,,---,2.44,VWS V14.01,2013-01-26 05:36:00,
2013-01-25 21:37:00,41.5,41.0,29.71,SE,135,2.0,2.2,98,0.00,,---,2.44,VWS V14.01,2013-01-26 05:37:00,
2013-01-25 21:38:00,41.5,41.0,29.71,SE,135,0.0,2.0,98,0.00,,---,2.44,VWS V14.01,2013-01-26 05:38:00,
2013-01-25 21:39:00,41.5,41.0,29.71,SSE,158,2.0,2.2,98,0.00,,---,2.44,VWS V14.01,2013-01-26 05:39:00,
2013-01-25 21:40:00,41.5,41.0,29.71,SSE,158,0.0,2.0,98,0.00,,---,2.44,VWS V14.01,2013-01-26 05:40:00,
2013-01-25 21:41:00,41.5,41.0,29.71,ESE,112,0.0,2.0,98,0.00,,---,2.44,VWS V14.01,2013-01-26 05:41:00,
2013-01-25 21:42:00,41.5,41.0,29.71,ESE,112,0.0,2.0,98,0.00,,---,2.44,VWS V14.01,2013-01-26 05:42:00,
2013-01-25 21:43:00,41.5,41.0,29.71,SE,135,0.9,3.1,98,0.00,,---,2.44,VWS V14.01,2013-01-26 05:43:00,
2013-01-25 21:44:00,41.5,41.0,29.71,SSE,158,0.0,0.9,98,0.00,,---,2.44,VWS V14.01,2013-01-26 05:44:00,
2013-01-25 21:45:00,41.5,41.0,29.71,ESE,112,2.0,2.2,98,0.00,,---,2.44,VWS V14.01,2013-01-26 05:45:00,
2013-01-25 21:46:00,41.5,41.0,29.71,ESE,112,0.0,0.9,98,0.00,,---,2.44,VWS V14.01,2013-01-26 05:46:00,
2013-01-25 21:47:00,41.5,41.0,29.71,ESE,112,0.9,0.9,98,0.00,,---,2.44,VWS V14.01,2013-01-26 05:47:00,
2013-01-25 21:48:00,41.4,40.8,29.71,ESE,112,0.0,1.1,98,0.00,,---,2.44,VWS V14.01,2013-01-26 05:48:00,
2013-01-25 21:49:00,41.4,40.8,29.71,ESE,112,0.0,0.0,98,0.00,,---,2.44,VWS V14.01,2013-01-26 05:49:00,
2013-01-25 21:50:00,41.4,40.8,29.71,SSE,158,2.9,2.9,98,0.00,,---,2.44,VWS V14.01,2013-01-26 05:50:00,
2013-01-25 21:51:00,41.4,40.8,29.71,ESE,112,0.0,0.0,98,0.00,,---,2.44,VWS V14.01,2013-01-26 05:51:00,
2013-01-25 21:52:00,41.4,40.8,29.71,ESE,112,0.0,1.1,98,0.00,,---,2.44,VWS V14.01,2013-01-26 05:52:00,
2013-01-25 21:53:00,41.2,40.7,29.71,ESE,112,0.0,0.0,98,0.00,,---,2.44,VWS V14.01,2013-01-26 05:53:00,
2013-01-25 21:54:00,41.2,40.7,29.71,ESE,112,1.1,1.1,98,0.00,,---,2.44,VWS V14.01,2013-01-26 05:54:00,
2013-01-25 21:55:00,41.2,40.7,29.71,ESE,112,1.1,1.3,98,0.00,,---,2.44,VWS V14.01,2013-01-26 05:55:00,
2013-01-25 21:56:00,41.2,40.7,29.71,ESE,112,0.0,1.1,98,0.00,,---,2.44,VWS V14.01,2013-01-26 05:56:00,
2013-01-25 21:57:00,41.2,40.7,29.71,ESE,112,0.0,1.1,98,0.00,,---,2.44,VWS V14.01,2013-01-26 05:57:00,
2013-01-25 21:58:00,41.2,40.7,29.71,ESE,112,0.0,0.0,98,0.00,,---,2.44,VWS V14.01,2013-01-26 05:58:00,
2013-01-25 21:59:00,41.2,40.7,29.71,ESE,112,0.0,0.0,98,0.00,,---,2.44,VWS V14.01,2013-01-26 05:59:00,
2013-01-25 22:00:00,41.2,40.7,29.71,ESE,112,0.0,0.0,98,0.00,,---,2.44,VWS V14.01,2013-01-26 06:00:00,
2013-01-25 22:01:00,41.0,40.5,29.71,ESE,112,0.0,0.9,98,0.00,,---,2.44,VWS V14.01,2013-01-26 06:01:00,
2013-01-25 22:03:00,41.0,40.5,29.71,ESE,112,0.0,0.9,98,0.00,,---,2.44,VWS V14.01,2013-01-26 06:03:00,
2013-01-25 22:04:00,41.0,40.5,29.71,ESE,112,0.9,0.9,98,0.00,,---,2.44,VWS V14.01,2013-01-26 06:04:00,
2013-01-25 22:05:00,40.8,40.3,29.71,ESE,112,0.0,0.9,98,0.00,,---,2.44,VWS V14.01,2013-01-26 06:05:00,
2013-01-25 22:06:00,40.6,40.1,29.71,ESE,112,0.0,0.0,98,0.00,,---,2.44,VWS V14.01,2013-01-26 06:06:00,
2013-01-25 22:07:00,40.6,40.1,29.71,ESE,112,0.0,0.0,98,0.00,,---,2.44,VWS V14.01,2013-01-26 06:07:00,
2013-01-25 22:08:00,40.6,40.1,29.71,ESE,112,0.0,0.0,98,0.00,,---,2.44,VWS V14.01,2013-01-26 06:08:00,
2013-01-25 22:09:00,40.5,39.9,29.71,SE,135,0.0,0.0,98,0.00,,---,2.44,VWS V14.01,2013-01-26 06:09:00,
2013-01-25 22:10:00,40.5,39.9,29.71,SE,135,0.0,0.0,98,0.00,,---,2.44,VWS V14.01,2013-01-26 06:10:00,
2013-01-25 22:11:00,40.5,39.9,29.71,SE,135,0.0,0.0,98,0.00,,---,2.44,VWS V14.01,2013-01-26 06:11:00,
2013-01-25 22:12:00,40.5,39.9,29.71,SE,135,0.0,0.0,98,0.00,,---,2.44,VWS V14.01,2013-01-26 06:12:00,
2013-01-25 22:13:00,40.5,39.9,29.71,SE,135,0.0,0.0,98,0.00,,---,2.44,VWS V14.01,2013-01-26 06:13:00,
2013-01-25 22:14:00,40.3,39.8,29.71,SE,135,0.0,0.9,98,0.00,,---,2.44,VWS V14.01,2013-01-26 06:14:00,
2013-01-25 22:15:00,40.3,39.8,29.71,SE,135,0.0,0.0,98,0.00,,---,2.44,VWS V14.01,2013-01-26 06:15:00,
2013-01-25 22:16:00,40.3,39.8,29.71,ESE,112,0.0,0.0,98,0.00,,---,2.44,VWS V14.01,2013-01-26 06:16:00,
2013-01-25 22:17:00,40.3,39.8,29.71,ESE,112,0.0,0.0,98,0.00,,---,2.44,VWS V14.01,2013-01-26 06:17:00,
2013-01-25 22:18:00,40.3,39.8,29.71,ESE,112,0.0,1.1,98,0.00,,---,2.44,VWS V14.01,2013-01-26 06:18:00,
2013-01-25 22:19:00,40.3,39.8,29.71,ESE,112,0.0,0.0,98,0.00,,---,2.44,VWS V14.01,2013-01-26 06:19:00,
2013-01-25 22:20:00,40.3,39.8,29.71,ESE,112,0.0,0.0,98,0.00,,---,2.44,VWS V14.01,2013-01-26 06:20:00,
2013-01-25 22:21:00,40.1,39.6,29.71,SSE,158,0.9,1.1,98,0.00,,---,2.44,VWS V14.01,2013-01-26 06:21:00,
2013-01-25 22:22:00,40.1,39.6,29.71,SSE,158,0.9,1.1,98,0.00,,---,2.44,VWS V14.01,2013-01-26 06:22:00,
2013-01-25 22:23:00,40.1,39.6,29.71,SSE,158,0.0,0.9,98,0.00,,---,2.44,VWS V14.01,2013-01-26 06:23:00,
2013-01-25 22:24:00,39.9,39.4,29.71,SE,135,0.0,0.0,98,0.00,,---,2.44,VWS V14.01,2013-01-26 06:24:00,
2013-01-25 22:25:00,39.9,39.4,29.71,SSE,158,0.0,0.0,98,0.00,,---,2.44,VWS V14.01,2013-01-26 06:25:00,
2013-01-25 22:26:00,39.9,39.4,29.71,ESE,112,1.3,1.3,98,0.00,,---,2.44,VWS V14.01,2013-01-26 06:26:00,
2013-01-25 22:27:00,39.9,39.4,29.71,ESE,112,1.3,1.3,98,0.00,,---,2.44,VWS V14.01,2013-01-26 06:27:00,
2013-01-25 22:28:00,39.9,39.4,29.71,ESE,112,0.0,1.3,98,0.00,,---,2.44,VWS V14.01,2013-01-26 06:28:00,
2013-01-25 22:29:00,39.9,39.4,29.71,ESE,112,0.0,0.0,98,0.00,,---,2.44,VWS V14.01,2013-01-26 06:29:00,
2013-01-25 22:30:00,39.9,39.4,29.71,ESE,112,0.0,0.0,98,0.00,,---,2.44,VWS V14.01,2013-01-26 06:30:00,
2013-01-25 22:31:00,39.9,39.4,29.71,ESE,112,0.0,0.9,98,0.00,,---,2.44,VWS V14.01,2013-01-26 06:31:00,
2013-01-25 22:32:00,39.9,39.4,29.71,ESE,112,0.0,0.9,98,0.00,,---,2.44,VWS V14.01,2013-01-26 06:32:00,
2013-01-25 22:33:00,39.9,39.4,29.71,SE,135,0.0,1.6,98,0.00,,---,2.44,VWS V14.01,2013-01-26 06:33:00,
2013-01-25 22:34:00,39.9,39.4,29.71,ESE,112,0.0,0.0,98,0.00,,---,2.44,VWS V14.01,2013-01-26 06:34:00,
2013-01-25 22:35:00,39.9,39.4,29.71,ESE,112,0.0,0.0,98,0.00,,---,2.44,VWS V14.01,2013-01-26 06:35:00,
2013-01-25 22:36:00,39.9,39.4,29.71,ESE,112,0.0,0.0,98,0.00,,---,2.44,VWS V14.01,2013-01-26 06:36:00,
2013-01-25 22:37:00,39.9,39.4,29.71,ESE,112,0.0,0.0,98,0.00,,---,2.44,VWS V14.01,2013-01-26 06:37:00,
2013-01-25 22:38:00,39.9,39.4,29.71,ESE,112,0.0,1.3,98,0.00,,---,2.44,VWS V14.01,2013-01-26 06:38:00,
2013-01-25 22:39:00,39.9,39.4,29.71,ESE,112,0.0,0.0,98,0.00,,---,2.44,VWS V14.01,2013-01-26 06:39:00,
2013-01-25 22:40:00,39.9,39.4,29.71,ESE,112,0.0,0.0,98,0.00,,---,2.44,VWS V14.01,2013-01-26 06:40:00,
2013-01-25 22:41:00,39.9,39.4,29.71,ESE,112,0.0,0.0,98,0.00,,---,2.44,VWS V14.01,2013-01-26 06:41:00,
2013-01-25 22:42:00,39.9,39.4,29.71,ESE,112,0.0,0.0,98,0.00,,---,2.44,VWS V14.01,2013-01-26 06:42:00,
2013-01-25 22:43:00,39.7,39.2,29.71,ESE,112,0.0,0.0,98,0.00,,---,2.44,VWS V14.01,2013-01-26 06:43:00,
2013-01-25 22:44:00,39.7,39.2,29.71,ESE,112,0.0,0.0,98,0.00,,---,2.44,VWS V14.01,2013-01-26 06:44:00,
2013-01-25 22:45:00,39.7,39.2,29.71,ESE,112,0.0,0.0,98,0.00,,---,2.44,VWS V14.01,2013-01-26 06:45:00,
2013-01-25 22:46:00,39.7,39.2,29.71,ESE,112,0.0,0.0,98,0.00,,---,2.44,VWS V14.01,2013-01-26 06:46:00,
2013-01-25 22:47:00,39.7,39.2,29.71,ESE,112,0.0,0.0,98,0.00,,---,2.44,VWS V14.01,2013-01-26 06:47:00,
2013-01-25 22:48:00,39.7,39.2,29.71,ESE,112,0.0,0.9,98,0.00,,---,2.44,VWS V14.01,2013-01-26 06:48:00,
2013-01-25 22:49:00,39.7,39.2,29.71,ESE,112,0.0,0.0,98,0.00,,---,2.44,VWS V14.01,2013-01-26 06:49:00,
2013-01-25 22:50:00,39.6,39.0,29.71,ESE,112,0.0,0.0,98,0.00,,---,2.44,VWS V14.01,2013-01-26 06:50:00,
2013-01-25 22:51:00,39.6,39.0,29.71,ESE,112,0.0,0.0,98,0.00,,---,2.44,VWS V14.01,2013-01-26 06:51:00,
2013-01-25 22:52:00,39.6,39.0,29.71,ESE,112,0.0,0.0,98,0.00,,---,2.44,VWS V14.01,2013-01-26 06:52:00,
2013-01-25 22:53:00,39.6,39.0,29.71,ESE,112,0.0,0.0,98,0.00,,---,2.44,VWS V14.01,2013-01-26 06:53:00,
2013-01-25 22:54:00,39.6,39.0,29.71,ESE,112,0.0,0.0,98,0.00,,---,2.44,VWS V14.01,2013-01-26 06:54:00,
2013-01-25 22:55:00,39.6,39.0,29.71,ESE,112,0.0,0.0,98,0.00,,---,2.44,VWS V14.01,2013-01-26 06:55:00,
2013-01-25 22:56:00,39.6,39.0,29.71,SSE,158,0.9,1.3,98,0.00,,---,2.44,VWS V14.01,2013-01-26 06:56:00,
2013-01-25 22:57:00,39.6,39.0,29.71,SSE,158,0.9,1.3,98,0.00,,---,2.44,VWS V14.01,2013-01-26 06:57:00,
2013-01-25 22:58:00,39.6,39.0,29.71,ESE,112,0.0,0.9,98,0.00,,---,2.44,VWS V14.01,2013-01-26 06:58:00,
2013-01-25 22:59:00,39.6,39.0,29.71,ESE,112,0.0,0.0,98,0.00,,---,2.44,VWS V14.01,2013-01-26 06:59:00,
2013-01-25 23:00:00,39.6,39.0,29.71,ESE,112,0.0,0.9,98,0.00,,---,2.44,VWS V14.01,2013-01-26 07:00:00,
2013-01-25 23:01:00,39.6,39.0,29.71,ESE,112,0.0,0.0,98,0.00,,---,2.44,VWS V14.01,2013-01-26 07:01:00,
2013-01-25 23:02:00,39.6,39.0,29.71,ESE,112,0.0,0.0,98,0.00,,---,2.44,VWS V14.01,2013-01-26 07:02:00,
2013-01-25 23:03:00,39.6,39.0,29.71,ESE,112,0.0,0.0,98,0.00,,---,2.44,VWS V14.01,2013-01-26 07:03:00,
2013-01-25 23:04:00,39.6,39.0,29.71,SE,135,0.0,0.0,98,0.00,,---,2.44,VWS V14.01,2013-01-26 07:04:00,
2013-01-25 23:06:00,39.6,39.0,29.71,ESE,112,0.0,0.9,98,0.00,,---,2.44,VWS V14.01,2013-01-26 07:06:00,
2013-01-25 23:07:00,39.6,39.0,29.71,ESE,112,0.0,0.9,98,0.00,,---,2.44,VWS V14.01,2013-01-26 07:07:00,
2013-01-25 23:08:00,39.6,39.0,29.71,ESE,112,0.0,0.0,98,0.00,,---,2.44,VWS V14.01,2013-01-26 07:08:00,
2013-01-25 23:09:00,39.6,39.0,29.71,ESE,112,0.0,0.0,98,0.00,,---,2.44,VWS V14.01,2013-01-26 07:09:00,
2013-01-25 23:10:00,39.6,39.0,29.71,ESE,112,0.0,0.0,98,0.00,,---,2.44,VWS V14.01,2013-01-26 07:10:00,
2013-01-25 23:11:00,39.7,39.2,29.71,ESE,112,0.0,2.2,98,0.00,,---,2.44,VWS V14.01,2013-01-26 07:11:00,
2013-01-25 23:12:00,39.7,39.2,29.71,ESE,112,0.0,2.2,98,0.00,,---,2.44,VWS V14.01,2013-01-26 07:12:00,
2013-01-25 23:13:00,39.7,39.2,29.71,ESE,112,0.0,0.0,98,0.00,,---,2.44,VWS V14.01,2013-01-26 07:13:00,
2013-01-25 23:14:00,39.7,39.2,29.71,ESE,112,0.0,0.0,98,0.00,,---,2.44,VWS V14.01,2013-01-26 07:14:00,
2013-01-25 23:15:00,39.7,39.2,29.71,SE,135,0.0,1.3,98,0.00,,---,2.44,VWS V14.01,2013-01-26 07:15:00,
2013-01-25 23:16:00,39.9,39.4,29.71,SSE,158,0.9,0.9,98,0.00,,---,2.44,VWS V14.01,2013-01-26 07:16:00,
2013-01-25 23:17:00,39.9,39.4,29.71,SSE,158,0.9,0.9,98,0.00,,---,2.44,VWS V14.01,2013-01-26 07:17:00,
2013-01-25 23:18:00,39.9,39.4,29.71,SE,135,0.0,1.1,98,0.00,,---,2.44,VWS V14.01,2013-01-26 07:18:00,
2013-01-25 23:19:00,39.9,39.4,29.71,ESE,112,0.0,0.0,98,0.00,,---,2.44,VWS V14.01,2013-01-26 07:19:00,
2013-01-25 23:20:00,39.9,39.4,29.71,ESE,112,0.0,0.0,98,0.00,,---,2.44,VWS V14.01,2013-01-26 07:20:00,
2013-01-25 23:21:00,39.9,39.4,29.71,SSE,158,0.0,0.0,98,0.00,,---,2.44,VWS V14.01,2013-01-26 07:21:00,
2013-01-25 23:22:00,39.9,39.4,29.71,SSE,158,0.0,0.0,98,0.00,,---,2.44,VWS V14.01,2013-01-26 07:22:00,
2013-01-25 23:23:00,39.9,39.4,29.71,ESE,112,0.0,0.9,98,0.00,,---,2.44,VWS V14.01,2013-01-26 07:23:00,
2013-01-25 23:24:00,39.9,39.4,29.71,ESE,112,0.0,0.0,98,0.00,,---,2.44,VWS V14.01,2013-01-26 07:24:00,
2013-01-25 23:25:00,39.9,39.4,29.71,ESE,112,0.0,0.0,98,0.00,,---,2.44,VWS V14.01,2013-01-26 07:25:00,
2013-01-25 23:26:00,39.9,39.4,29.71,ESE,112,0.0,0.0,98,0.00,,---,2.44,VWS V14.01,2013-01-26 07:26:00,
2013-01-25 23:27:00,39.9,39.4,29.71,ESE,112,0.0,0.0,98,0.00,,---,2.44,VWS V14.01,2013-01-26 07:27:00,
2013-01-25 23:28:00,39.9,39.4,29.71,ESE,112,0.0,0.0,98,0.00,,---,2.44,VWS V14.01,2013-01-26 07:28:00,
2013-01-25 23:30:00,39.9,39.4,29.71,ESE,112,0.0,0.0,98,0.00,,---,2.44,VWS V14.01,2013-01-26 07:30:00,
2013-01-25 23:31:00,39.9,39.4,29.71,ESE,112,0.0,0.0,98,0.00,,---,2.44,VWS V14.01,2013-01-26 07:31:00,
2013-01-25 23:32:00,39.9,39.4,29.71,ESE,112,0.0,0.0,98,0.00,,---,2.44,VWS V14.01,2013-01-26 07:32:00,
2013-01-25 23:33:00,39.9,39.4,29.71,ESE,112,0.0,0.0,98,0.00,,---,2.44,VWS V14.01,2013-01-26 07:33:00,
2013-01-25 23:34:00,39.9,39.4,29.71,ESE,112,1.1,1.1,98,0.00,,---,2.44,VWS V14.01,2013-01-26 07:34:00,
2013-01-25 23:35:00,39.9,39.4,29.71,ESE,112,0.0,1.1,98,0.00,,---,2.44,VWS V14.01,2013-01-26 07:35:00,
2013-01-25 23:36:00,39.9,39.4,29.71,ESE,112,0.0,0.0,98,0.00,,---,2.44,VWS V14.01,2013-01-26 07:36:00,
2013-01-25 23:37:00,39.9,39.4,29.71,ESE,112,0.0,0.0,98,0.00,,---,2.44,VWS V14.01,2013-01-26 07:37:00,
2013-01-25 23:38:00,39.9,39.4,29.71,ESE,112,0.0,0.0,98,0.00,,---,2.44,VWS V14.01,2013-01-26 07:38:00,
2013-01-25 23:39:00,39.9,39.4,29.71,ESE,112,0.0,0.0,98,0.00,,---,2.44,VWS V14.01,2013-01-26 07:39:00,
2013-01-25 23:40:00,39.9,39.4,29.71,ESE,112,0.0,0.0,98,0.00,,---,2.44,VWS V14.01,2013-01-26 07:40:00,
2013-01-25 23:41:00,40.1,39.6,29.71,ESE,112,0.0,0.0,98,0.00,,---,2.44,VWS V14.01,2013-01-26 07:41:00,
2013-01-25 23:42:00,40.1,39.6,29.71,ESE,112,0.0,0.0,98,0.00,,---,2.44,VWS V14.01,2013-01-26 07:42:00,
2013-01-25 23:43:00,40.1,39.6,29.71,ESE,112,0.0,0.0,98,0.00,,---,2.44,VWS V14.01,2013-01-26 07:43:00,
2013-01-25 23:44:00,40.1,39.6,29.71,ESE,112,0.0,0.0,98,0.00,,---,2.44,VWS V14.01,2013-01-26 07:44:00,
2013-01-25 23:45:00,39.9,39.4,29.71,ESE,112,0.0,0.0,98,0.00,,---,2.44,VWS V14.01,2013-01-26 07:45:00,
2013-01-25 23:46:00,40.1,39.6,29.71,SSE,158,1.6,1.6,98,0.00,,---,2.44,VWS V14.01,2013-01-26 07:46:00,
2013-01-25 23:47:00,40.1,39.6,29.71,SSE,158,1.6,1.6,98,0.00,,---,2.44,VWS V14.01,2013-01-26 07:47:00,
2013-01-25 23:48:00,40.1,39.6,29.71,SSE,158,0.0,1.6,98,0.00,,---,2.44,VWS V14.01,2013-01-26 07:48:00,
2013-01-25 23:49:00,40.1,39.6,29.71,SSE,158,0.0,0.0,98,0.00,,---,2.44,VWS V14.01,2013-01-26 07:49:00,
2013-01-25 23:50:00,40.1,39.6,29.71,SSE,158,0.0,0.0,98,0.00,,---,2.44,VWS V14.01,2013-01-26 07:50:00,
2013-01-25 23:51:00,40.1,39.6,29.71,ESE,112,0.0,0.0,98,0.00,,---,2.44,VWS V14.01,2013-01-26 07:51:00,
2013-01-25 23:53:00,40.1,39.6,29.71,ESE,112,0.0,0.0,98,0.00,,---,2.44,VWS V14.01,2013-01-26 07:53:00,
2013-01-25 23:55:00,40.1,39.6,29.71,SE,135,0.0,0.0,98,0.00,,---,2.44,VWS V14.01,2013-01-26 07:55:00,
2013-01-25 23:56:00,40.3,39.8,29.71,ESE,112,0.0,0.0,98,0.00,,---,2.44,VWS V14.01,2013-01-26 07:56:00,
2013-01-25 23:57:00,40.3,39.8,29.71,ESE,112,0.0,0.0,98,0.00,,---,2.44,VWS V14.01,2013-01-26 07:57:00,